GFSGL_sfc_wetblb_060.txt.gz
Wetbulb
69.43 69.83 70.03 70.10 70.30 70.34 69.30 69.26 69.04 69.02 68.91 69.99 71.76 72.20 72.62 73.49 73.93 73.04 73.24 73.47 72.90 73.22 72.84 72.29 71.81 71.22 70.74 70.48 68.40 67.36 65.68 64.28 63.52 66.07 64.90 67.57 68.88 68.55 69.39 70.05 68.97 68.88 68.81
69.73 69.91 70.08 70.62 70.51 70.20 69.96 69.86 69.71 69.16 69.41 69.94 71.23 72.24 72.74 73.65 74.05 73.47 73.01 73.47 73.06 73.04 73.30 73.18 72.78 72.41 71.82 71.79 69.83 69.04 67.28 65.96 64.99 64.74 66.10 66.41 67.76 69.19 68.94 68.83 68.51 67.83 67.55
69.93 69.96 70.00 70.15 70.04 69.96 70.12 70.20 70.30 70.30 70.28 70.46 70.33 70.87 72.06 72.95 73.80 74.01 73.85 73.50 73.30 73.74 73.65 73.40 73.39 73.48 72.83 72.51 71.48 70.30 68.89 68.13 66.33 64.74 65.67 65.76 67.21 67.45 67.33 67.60 67.49 68.46 68.23
69.64 69.85 69.71 69.88 70.27 70.54 70.86 71.09 70.08 70.08 69.90 70.36 71.21 71.56 72.08 72.86 73.43 74.08 74.00 73.70 73.53 73.39 73.87 73.67 73.75 73.57 73.18 73.43 72.68 72.24 71.48 69.07 67.37 66.07 66.42 66.18 65.91 67.81 66.90 66.75 66.38 66.40 66.77
68.80 69.55 69.68 70.30 70.49 70.60 70.73 71.59 72.44 71.45 70.31 70.48 70.34 70.69 71.69 72.81 72.95 73.46 74.03 73.83 73.51 73.27 73.54 73.77 74.05 73.48 71.26 71.85 73.38 73.13 72.53 70.99 70.31 68.15 68.07 68.40 66.90 67.19 66.30 68.62 66.04 67.55 68.18
68.63 68.70 70.12 70.57 70.76 70.59 70.49 70.28 70.46 71.56 72.51 72.57 71.48 71.03 71.05 71.74 67.93 67.14 71.83 73.73 73.98 73.49 73.11 73.55 74.19 71.92 71.35 68.20 67.75 68.66 71.76 71.85 70.80 70.21 69.61 68.90 69.53 69.51 69.29 67.49 66.48 65.58 64.11
69.15 69.43 69.71 70.27 70.78 71.15 71.60 71.54 70.82 70.14 70.59 71.40 72.07 72.02 71.69 71.80 65.14 65.32 67.43 73.38 73.58 73.75 73.88 73.89 73.73 73.96 71.68 74.10 69.19 66.61 67.01 66.23 68.40 72.88 71.20 70.62 70.17 71.30 70.73 68.80 66.94 67.23 66.05
69.34 69.59 70.08 70.21 70.36 71.16 71.63 71.68 71.94 72.07 71.10 70.55 70.87 71.87 71.84 71.72 64.17 63.34 65.72 72.78 73.58 73.78 73.90 74.11 73.98 74.08 73.97 73.47 73.66 73.63 72.79 72.50 71.19 70.78 71.92 72.73 73.56 74.34 72.86 71.46 70.50 68.52 66.89
69.44 69.78 70.37 70.88 70.68 70.95 70.96 71.71 72.45 72.75 72.62 72.23 72.04 71.68 71.58 72.01 62.79 62.21 64.34 71.40 72.56 73.27 73.96 74.48 74.23 73.93 69.28 64.94 73.07 72.93 73.30 73.62 69.46 64.84 65.43 65.85 65.07 64.88 67.19 70.02 67.37 65.25 64.68
69.56 70.39 71.43 71.77 71.88 71.52 71.76 71.82 72.88 73.28 73.45 73.87 73.53 73.55 69.73 72.56 63.71 60.32 63.48 72.00 71.73 72.32 73.43 74.20 66.39 71.76 64.95 62.41 71.19 73.13 72.62 73.30 74.23 74.43 74.09 69.60 65.41 67.84 64.08 67.84 69.53 67.29 66.62
70.09 71.10 71.50 72.19 72.21 72.73 73.15 73.49 73.31 73.47 73.66 73.79 74.23 74.88 75.08 72.98 72.81 60.44 59.00 71.65 72.64 72.76 72.94 73.48 74.55 63.02 60.43 59.71 60.97 73.62 72.54 73.55 73.07 73.70 73.96 73.83 73.31 73.14 73.87 71.52 68.92 67.79 67.07
69.59 70.54 71.21 71.84 72.81 73.07 72.99 73.46 73.95 73.86 73.65 73.81 73.79 74.25 75.25 75.97 65.37 61.29 58.75 59.92 68.50 73.48 73.55 74.47 74.25 61.77 58.57 57.66 60.44 63.14 61.72 63.23 72.44 72.33 72.79 72.79 73.14 73.09 73.27 72.02 70.80 68.79 69.06
68.35 68.88 69.69 71.76 72.66 73.18 73.24 73.20 73.18 74.01 73.48 73.53 73.51 73.67 74.21 75.50 75.93 60.74 58.39 58.57 59.21 70.05 75.02 71.87 65.14 58.39 56.75 58.42 57.44 58.89 58.47 67.18 69.01 69.83 70.48 71.47 73.35 73.87 72.01 71.22 71.92 71.54 70.23
71.05 71.03 71.26 70.39 70.03 71.53 73.26 73.66 73.62 73.44 73.21 73.42 73.43 73.35 73.79 74.56 74.98 75.52 70.31 65.60 60.03 63.05 65.32 70.03 66.91 64.85 62.74 65.77 65.25 62.35 63.67 67.59 69.22 69.94 71.14 71.53 69.85 69.62 69.06 70.08 69.22 68.88 63.16
69.51 70.29 71.81 72.25 71.08 72.22 72.25 70.90 72.96 74.15 70.57 73.48 73.53 73.98 73.61 73.51 73.86 68.96 69.68 73.39 72.93 68.56 68.38 71.66 70.53 70.53 71.25 70.03 69.85 71.03 68.99 68.13 67.63 68.67 68.54 67.32 67.34 68.27 68.52 68.70 66.98 65.17 63.77
68.34 69.03 69.35 71.47 72.30 71.70 70.16 66.29 49.14 49.50 47.51 47.15 48.96 60.23 74.24 62.79 58.93 54.58 53.31 53.13 54.40 52.95 66.46 70.96 70.71 70.69 70.66 71.18 70.89 70.33 69.06 66.95 68.43 67.43 66.95 67.41 67.12 64.70 65.01 64.97 64.90 64.98 63.45
64.34 67.06 68.67 67.93 71.55 70.55 68.54 67.75 67.39 58.02 46.60 44.97 46.06 46.97 46.78 56.73 51.68 49.87 48.96 48.05 48.60 52.59 70.94 70.94 71.23 71.62 71.05 71.37 71.03 69.58 68.13 68.58 68.54 68.02 67.16 64.15 65.23 64.58 64.12 63.24 63.84 64.61 61.92
61.81 56.67 65.54 68.85 70.08 70.94 69.80 68.56 68.29 67.48 67.61 65.94 48.02 48.23 46.78 46.42 47.69 46.42 46.42 50.75 62.67 57.08 69.69 71.10 70.35 69.08 69.74 69.69 69.04 68.09 66.64 66.42 66.01 64.51 64.04 65.83 64.54 63.83 62.29 62.49 62.97 61.89 60.46
60.64 63.45 65.98 67.52 68.44 66.68 69.96 69.50 68.04 67.68 67.37 66.63 62.31 52.75 46.71 42.07 42.43 42.98 45.33 69.79 70.59 68.40 68.22 67.68 67.32 66.62 66.03 67.26 66.76 65.68 65.48 64.86 64.68 64.17 64.40 65.16 65.02 63.93 63.23 62.62 61.58 55.83 56.68
60.51 59.89 60.80 66.44 67.70 68.40 68.89 68.88 68.29 67.39 67.10 65.65 64.30 65.23 58.61 55.81 62.58 63.42 64.73 65.96 66.63 66.01 65.87 65.80 64.83 64.04 63.41 64.27 63.96 63.71 63.64 60.99 62.31 63.28 63.39 65.14 63.24 63.29 61.70 61.40 60.01 59.58 58.60
58.84 61.98 62.65 66.67 67.61 67.91 68.28 69.10 68.38 67.59 66.83 65.76 65.58 62.86 54.04 65.47 65.17 64.48 64.63 63.97 63.43 63.14 63.10 63.10 61.81 62.01 61.99 63.14 63.04 62.60 62.58 62.22 62.32 62.77 64.17 63.51 63.21 62.56 62.20 62.06 60.80 61.28 60.07
58.53 60.31 63.59 65.36 67.10 67.50 67.91 69.75 68.96 67.44 66.21 64.83 63.63 58.68 47.87 64.92 64.53 62.82 62.89 62.61 62.61 63.14 63.62 63.61 62.70 62.50 63.68 63.73 63.35 63.32 63.00 62.74 61.66 61.44 62.67 62.56 62.35 62.12 62.03 61.65 61.26 60.61 59.45
58.27 59.40 61.64 64.92 66.12 62.50 64.35 66.85 67.82 66.03 64.53 64.14 63.53 60.50 62.00 63.53 63.50 62.38 60.53 61.11 59.80 57.88 57.73 60.68 61.97 61.66 62.20 63.54 63.84 63.86 63.83 63.71 63.89 63.93 62.87 61.89 61.63 61.14 60.57 61.72 60.39 58.69 57.73
57.54 60.17 61.23 63.00 64.41 64.54 64.43 63.57 62.63 56.62 62.16 62.87 62.69 61.37 61.38 60.08 58.66 56.54 54.77 53.16 51.35 49.47 49.88 50.47 49.69 49.01 49.12 49.24 49.49 50.17 51.62 51.64 61.52 63.94 63.86 63.29 61.46 57.83 61.25 61.59 61.04 60.63 59.77
53.61 54.67 57.50 59.50 58.45 56.95 55.00 53.16 52.20 51.57 50.86 51.18 51.58 51.68 51.96 52.26 51.32 49.95 48.58 48.32 47.34 46.45 45.40 44.94 44.97 44.62 43.68 43.29 43.09 42.58 37.51 32.97 42.69 44.56 63.71 63.64 63.22 62.71 62.24 61.80 61.49 60.40 59.64
47.66 47.18 46.67 46.49 46.15 46.72 46.72 46.50 46.16 46.06 45.93 45.88 45.75 45.70 45.58 45.55 45.82 46.17 46.33 45.78 45.31 44.79 43.61 43.32 43.14 43.24 43.34 42.83 41.33 36.03 32.21 33.68 42.68 34.24 56.05 63.39 63.29 62.81 62.00 61.80 61.61 60.66 60.02

GFSGL_sfc_wetblb_063.txt.gz
Wetbulb
73.39 73.54 74.05 74.20 74.19 74.45 73.92 74.32 75.01 75.04 75.02 74.96 75.33 75.35 75.55 75.85 76.47 76.74 76.64 76.47 76.80 77.12 77.32 76.68 76.35 77.01 75.61 75.39 74.46 73.27 72.01 70.79 68.41 70.07 71.58 72.76 73.31 73.87 73.89 74.14 73.95 74.16 73.22
73.74 73.88 73.87 74.61 74.84 73.66 74.14 74.19 74.69 74.61 74.99 75.09 75.24 75.49 75.71 75.74 76.38 76.21 75.79 75.62 75.90 76.30 76.96 77.12 76.65 76.27 76.60 76.76 75.46 75.58 74.66 74.05 70.90 71.42 72.45 71.78 73.34 74.33 74.59 74.32 73.48 72.95 73.05
73.45 72.97 73.67 74.21 74.01 74.55 74.65 74.90 74.55 74.85 75.00 74.66 74.96 74.73 75.05 75.38 75.91 76.41 76.32 76.13 76.33 76.38 76.80 77.05 77.05 77.13 76.73 76.31 76.10 75.22 74.86 74.66 73.70 71.34 71.19 72.70 72.95 72.69 72.89 73.55 73.12 73.94 73.27
72.85 72.96 73.33 73.88 74.55 74.66 75.27 75.33 74.61 74.98 74.96 74.86 75.08 75.37 75.52 75.48 75.39 75.57 75.98 76.46 76.91 76.93 77.30 77.41 77.30 77.14 76.98 77.10 76.76 76.66 76.30 75.13 75.05 73.25 72.51 72.42 73.19 75.03 72.92 70.95 71.15 72.78 71.64
72.95 72.90 73.31 74.31 74.86 75.22 75.29 75.21 74.74 74.98 75.30 75.58 75.54 75.21 75.13 74.85 74.55 75.35 75.62 76.49 76.75 76.68 77.00 77.11 77.27 76.14 72.37 73.77 76.24 77.89 77.38 75.20 74.00 72.63 71.99 71.93 71.89 71.89 72.11 72.61 71.92 72.72 73.84
73.12 72.98 74.13 74.38 74.91 75.02 75.23 75.20 75.21 74.51 74.65 75.10 74.55 74.89 74.77 74.12 67.92 66.75 73.09 75.52 76.33 76.51 76.29 77.30 77.63 73.91 73.18 68.32 67.90 68.69 73.67 77.44 75.66 74.00 73.14 72.86 75.67 74.66 74.62 73.42 73.06 72.10 71.01
73.09 73.72 74.23 74.71 74.40 74.79 75.23 75.29 75.45 75.50 75.32 75.03 74.36 74.56 74.95 75.26 65.08 64.66 66.96 74.93 76.19 76.77 77.06 76.99 76.05 75.68 74.40 77.05 70.69 66.74 67.30 66.27 68.33 76.04 75.71 75.87 76.21 76.49 76.58 75.20 75.84 74.54 73.25
72.65 73.21 74.06 74.41 74.40 74.91 74.94 74.34 75.07 74.48 75.37 75.59 75.33 75.58 75.17 75.82 64.65 63.07 65.29 73.87 75.84 76.82 77.08 77.22 77.26 77.16 77.50 76.60 76.27 76.16 77.00 76.93 75.86 73.81 75.09 75.60 76.88 77.61 77.72 77.06 74.97 73.05 72.07
72.56 72.93 73.59 74.24 74.44 74.93 74.39 74.66 75.04 74.38 73.98 74.41 74.73 75.35 75.40 76.08 62.96 62.14 65.24 73.36 74.22 76.05 76.85 77.58 77.43 77.34 71.43 65.55 75.50 75.55 76.56 76.77 71.85 66.45 66.85 66.16 65.19 64.72 67.77 72.34 70.81 69.91 68.91
73.09 73.47 74.35 74.72 74.55 74.59 75.20 75.39 76.03 75.30 74.99 74.60 74.47 75.29 71.48 75.75 64.66 60.49 64.07 73.26 74.16 73.81 76.54 77.49 67.56 73.45 65.80 62.31 74.46 75.17 75.34 75.75 76.80 77.30 77.61 72.80 68.23 72.61 64.71 70.50 72.12 69.39 69.71
73.60 74.15 74.94 75.09 74.97 75.39 75.60 76.13 76.19 75.65 76.05 75.71 75.58 76.06 75.83 74.25 74.93 60.02 58.69 73.87 74.18 74.36 74.52 75.14 76.06 62.89 60.86 59.18 61.22 76.39 75.48 75.75 74.98 76.92 76.59 76.36 76.54 76.21 77.08 76.38 72.39 71.49 69.75
74.86 74.47 75.29 75.79 74.88 74.65 76.01 75.79 75.92 75.97 75.63 75.79 75.33 75.45 76.18 77.20 66.44 62.29 58.17 59.78 69.60 75.19 75.63 76.65 76.79 61.52 57.61 57.07 60.55 64.00 61.62 63.87 75.25 75.05 74.35 73.79 74.25 75.07 74.85 74.55 74.31 72.33 72.06
74.83 75.11 75.16 75.66 75.49 76.49 75.72 75.61 74.66 75.45 74.52 74.63 74.50 74.66 75.24 76.91 77.69 61.58 57.79 57.35 59.25 71.58 76.65 73.04 65.20 58.50 57.25 60.35 57.79 59.43 59.38 70.46 71.34 71.08 72.32 73.63 74.80 75.27 75.63 74.32 73.26 73.96 74.41
73.75 73.97 74.66 74.41 74.69 75.71 75.24 75.21 74.77 74.76 74.77 74.62 74.84 74.93 75.62 76.51 77.25 78.05 74.70 68.64 59.95 64.20 66.27 72.36 70.39 66.74 64.32 67.29 67.58 65.61 67.50 70.99 71.69 72.53 72.26 74.09 74.67 73.60 71.90 71.75 71.16 71.11 69.64
73.23 72.76 73.04 73.28 73.97 74.71 75.44 75.06 75.16 76.92 72.93 75.24 75.68 75.99 75.61 75.77 76.45 71.01 72.19 77.41 76.88 71.95 70.67 73.78 73.18 72.12 71.61 71.27 72.10 73.65 74.04 71.76 69.55 70.09 71.20 71.36 70.97 70.53 70.28 68.57 69.66 68.16 67.16
71.64 73.63 71.85 74.20 74.19 73.97 73.64 72.89 51.14 53.29 50.36 49.63 50.90 64.70 76.13 64.65 57.99 54.89 52.53 52.71 54.16 53.80 69.82 72.89 72.75 73.22 73.36 73.59 73.07 72.46 72.60 69.50 70.94 71.46 71.78 71.54 69.79 68.55 67.69 67.30 68.34 67.28 66.96
64.78 67.81 69.62 69.42 74.47 72.67 73.56 73.47 72.94 61.64 48.00 47.28 48.18 48.36 49.09 55.90 50.18 49.27 49.81 47.82 48.73 53.98 72.37 73.00 73.83 73.58 73.20 73.09 73.22 72.71 71.70 72.33 74.20 72.26 70.88 70.20 69.13 69.07 66.15 67.83 66.27 66.43 65.86
62.03 55.80 68.77 71.48 72.51 74.08 73.10 72.23 72.71 72.64 72.85 73.56 52.93 52.62 47.04 44.74 45.83 46.37 45.83 51.35 63.89 58.85 70.63 73.31 74.09 74.03 74.79 73.53 72.97 72.46 72.64 71.68 70.88 70.55 69.75 69.41 67.98 66.45 64.88 65.44 65.08 64.58 65.44
60.59 60.86 64.04 68.38 71.26 69.79 73.42 73.89 73.28 72.19 71.96 73.77 69.70 56.14 49.97 42.93 43.47 43.83 44.36 72.81 74.67 74.50 73.86 73.38 74.21 74.97 73.54 71.97 72.47 71.15 70.79 69.71 69.44 68.11 67.11 67.42 65.94 64.96 65.26 65.52 64.64 57.98 60.46
60.25 57.51 57.94 63.87 68.23 71.11 72.18 72.59 72.69 72.68 72.98 73.45 73.50 73.13 66.15 58.44 66.09 66.31 63.33 67.34 73.67 75.00 75.35 74.31 72.24 69.28 68.89 68.41 68.17 68.46 68.82 67.46 68.49 67.66 66.01 68.40 68.24 67.91 66.33 64.85 63.86 64.65 63.03
59.13 60.58 58.54 62.01 64.65 68.60 71.06 71.41 72.15 72.28 72.46 72.78 73.20 71.56 56.12 69.56 71.66 71.28 68.55 69.83 72.88 74.20 72.45 71.25 68.34 67.27 66.11 65.78 66.09 66.06 66.91 67.64 65.87 65.75 66.43 67.14 67.28 65.15 65.69 64.05 63.51 64.20 63.93
57.89 59.76 61.19 61.73 63.51 65.82 68.76 70.92 71.68 71.63 71.17 71.22 72.65 70.71 48.00 64.23 72.49 72.70 72.29 71.63 71.65 71.18 70.39 66.97 65.93 68.04 67.78 67.20 67.13 65.81 66.15 66.96 65.99 65.28 65.56 64.96 65.22 64.16 63.54 62.93 63.08 63.38 64.70
57.25 59.01 61.37 62.10 63.38 62.02 66.13 67.93 69.83 71.22 69.85 69.89 70.37 70.69 64.28 67.16 70.93 71.49 70.92 69.81 68.74 67.36 68.43 68.98 68.59 67.93 67.99 68.10 68.49 68.13 67.28 66.83 66.96 66.30 65.40 64.72 63.82 63.33 63.65 62.69 63.12 63.37 64.30
56.25 58.48 61.22 62.97 63.36 64.04 64.75 66.24 68.16 58.38 66.16 66.53 65.84 64.86 63.70 64.05 62.12 60.31 61.29 61.93 61.29 59.40 61.35 63.36 63.02 62.56 60.75 61.41 61.52 62.03 62.91 64.59 66.64 66.11 66.10 64.13 63.46 60.80 62.85 63.11 64.88 64.11 64.01
49.98 49.76 50.29 51.17 53.52 56.52 58.28 57.74 56.50 56.03 55.60 54.83 53.37 53.46 52.07 51.17 50.08 49.09 48.99 49.81 50.27 50.39 51.55 53.07 53.71 54.16 52.85 52.77 50.15 49.88 41.94 34.46 47.47 48.35 64.60 65.04 64.58 63.43 62.77 63.21 64.89 65.21 64.75
45.91 45.75 45.21 44.73 44.45 44.76 45.59 45.87 45.67 46.37 46.42 46.31 46.74 46.45 46.78 46.95 46.03 45.81 45.28 45.20 45.17 44.81 45.27 45.42 45.85 46.31 46.80 43.94 41.37 36.27 32.26 33.03 42.79 35.56 60.87 64.21 64.33 65.03 64.80 64.41 64.48 63.88 63.66

GFSGL_sfc_wetblb_069.txt.gz
Wetbulb
77.64 78.19 77.81 77.81 77.91 77.35 77.92 78.94 79.44 80.15 80.58 79.52 78.92 77.86 77.74 77.80 79.03 80.28 80.15 78.91 79.24 79.25 78.69 78.69 79.21 80.42 75.96 75.44 75.39 74.91 73.51 72.85 70.41 71.79 72.99 76.52 79.15 78.88 77.83 78.43 76.77 78.05 75.42
77.67 78.28 77.90 78.41 78.15 77.50 76.55 78.41 79.64 79.89 80.56 80.78 79.86 79.20 77.79 77.80 79.39 79.08 77.38 77.81 77.06 77.28 77.69 79.42 77.80 76.27 80.05 79.76 76.46 79.26 76.69 78.16 73.24 75.47 75.74 75.02 77.76 79.40 79.40 79.11 76.32 76.47 76.76
77.37 77.18 78.02 78.16 77.94 77.43 78.35 78.62 79.10 79.68 80.08 79.19 79.98 79.57 78.93 78.18 78.43 79.02 79.17 78.16 77.34 77.83 78.30 78.75 78.61 79.37 79.93 78.02 79.66 77.25 76.19 76.95 76.53 74.76 74.57 75.93 76.29 76.09 76.97 79.30 79.33 78.72 77.54
76.00 76.12 77.10 77.89 78.36 78.31 79.02 79.24 79.25 80.05 79.86 79.85 80.30 80.09 79.69 78.81 78.21 77.78 78.25 78.86 78.83 77.61 78.22 78.72 78.79 79.01 79.78 80.39 79.45 80.25 79.27 77.80 76.56 74.74 74.66 74.93 75.56 78.66 76.83 74.96 75.01 76.29 75.94
76.69 76.64 77.08 78.52 79.02 79.19 78.72 79.27 79.41 79.93 79.81 80.39 80.23 79.78 79.73 78.53 77.02 77.89 78.18 78.47 78.98 78.34 78.53 78.53 78.92 78.08 73.55 75.59 77.24 79.19 79.97 77.71 75.18 74.43 73.97 74.12 73.96 74.04 75.50 75.97 74.75 76.31 78.09
77.28 76.83 77.73 78.87 78.93 78.97 78.64 78.91 79.47 79.55 79.89 80.22 79.98 79.65 79.05 76.96 69.51 67.38 74.51 76.97 78.31 78.64 78.54 79.40 80.06 75.82 74.25 69.74 69.07 69.28 73.67 78.20 78.96 75.32 74.36 73.84 76.86 76.33 76.77 76.00 76.23 75.01 73.77
78.12 78.04 78.40 78.99 78.85 78.97 78.70 78.95 79.13 79.38 79.85 80.08 79.91 79.86 79.55 79.78 66.78 65.01 67.51 76.71 77.36 77.76 78.71 79.26 78.65 76.17 75.61 79.75 71.50 68.53 68.87 67.49 68.91 76.43 76.45 76.77 76.83 78.31 79.23 78.28 76.74 76.66 75.96
77.58 78.97 78.60 79.31 78.94 79.54 79.32 78.93 79.46 79.59 79.38 79.60 79.77 80.13 79.96 79.72 66.75 63.20 65.53 76.39 76.33 77.31 78.43 79.35 79.33 78.70 78.65 78.83 79.75 79.40 78.95 78.81 77.34 75.18 76.88 77.46 78.77 79.71 79.40 79.03 78.93 78.39 78.11
77.88 78.53 78.76 79.29 79.10 79.54 79.15 79.15 79.60 79.54 79.57 79.51 80.26 80.28 80.25 80.08 64.61 62.69 66.10 75.38 75.73 77.33 78.27 78.52 78.39 78.48 72.65 66.70 77.63 76.91 77.14 77.49 71.79 65.46 66.38 67.57 67.76 66.90 70.50 75.36 74.85 74.93 74.04
78.36 78.34 79.30 79.58 79.48 79.51 79.60 79.85 80.22 80.07 79.48 78.13 79.12 80.32 75.94 80.56 66.55 61.33 65.95 75.70 75.58 75.16 77.82 78.78 69.02 74.40 67.03 63.61 76.99 77.28 76.45 77.51 78.10 78.20 79.20 75.46 68.36 72.14 65.32 73.59 76.61 75.13 75.32
77.87 78.80 79.64 79.80 79.86 80.27 80.51 80.64 80.31 79.52 78.53 79.68 79.74 80.16 80.43 78.70 79.15 60.85 59.45 76.65 75.48 74.86 74.50 74.51 75.89 63.84 62.14 61.17 62.15 77.39 76.55 77.48 76.04 77.81 78.04 78.66 78.90 79.68 80.15 79.48 77.90 78.65 75.79
79.08 78.91 79.41 79.98 78.92 78.79 80.28 80.25 80.39 79.90 79.49 79.79 79.14 79.02 78.13 80.44 68.92 61.72 58.12 61.48 70.89 75.96 75.31 73.84 74.86 60.68 57.88 58.92 62.09 64.25 61.86 64.86 75.51 75.47 75.83 76.15 76.93 78.07 78.87 78.83 81.58 80.49 79.08
79.09 78.92 79.24 79.65 79.51 79.59 79.49 79.64 78.18 79.49 76.71 76.83 76.28 75.67 75.73 77.19 78.60 61.90 57.51 58.18 60.78 71.90 76.08 70.73 62.00 58.27 55.84 58.67 57.09 59.88 60.11 74.64 75.66 75.44 75.49 76.11 77.16 78.30 80.56 80.62 80.21 79.06 77.52
78.26 78.83 79.09 78.80 78.64 79.44 78.25 78.14 76.97 76.48 76.15 75.72 75.69 75.11 75.27 75.87 76.26 78.05 73.61 67.60 61.03 66.62 68.81 73.40 70.97 66.02 59.48 67.03 72.45 67.50 74.34 76.98 76.68 76.75 77.08 77.99 78.44 78.80 78.76 78.51 76.19 73.98 73.05
77.69 77.28 78.17 77.06 77.31 77.75 78.02 77.28 77.11 78.17 74.32 76.57 75.59 75.46 74.60 75.39 75.89 71.84 73.24 77.86 76.43 72.24 73.14 75.97 75.44 75.34 75.83 76.93 77.75 77.84 77.79 77.96 77.63 77.81 77.55 77.74 77.72 77.19 76.59 76.22 73.10 72.25 72.82
75.24 76.09 76.03 76.34 76.46 76.58 76.34 75.40 54.82 59.63 54.23 54.59 54.59 66.98 75.66 59.44 53.65 54.26 53.48 53.86 56.77 57.21 73.04 75.63 75.89 76.47 77.13 76.93 76.31 75.10 77.05 75.24 77.66 78.33 77.42 75.94 74.90 74.22 73.65 73.22 72.47 72.03 72.28
71.88 76.72 76.39 74.07 76.65 76.42 76.86 76.22 74.92 66.37 54.77 52.23 53.86 54.41 54.57 54.30 52.60 53.14 51.15 49.70 54.05 59.78 76.93 77.32 76.69 76.90 76.79 76.07 75.80 76.45 76.40 76.77 77.81 77.66 76.64 75.58 74.67 74.14 71.20 71.73 72.14 71.58 71.96
66.89 59.84 74.72 75.94 76.52 76.20 76.68 76.61 76.46 75.28 74.32 75.04 59.35 59.45 51.99 49.15 51.69 50.06 50.96 54.92 74.61 70.21 75.99 76.75 76.75 77.67 77.61 77.29 77.52 76.60 77.77 78.21 78.67 77.55 75.86 75.09 74.64 73.26 71.53 70.15 71.05 71.83 72.84
62.42 62.68 64.46 70.27 78.25 74.32 76.06 76.58 75.49 74.76 74.09 73.38 74.31 60.58 55.33 46.58 45.53 46.25 47.70 73.79 75.15 76.47 77.21 76.65 77.13 77.13 77.42 77.75 77.85 78.06 77.94 77.08 76.80 76.72 75.78 74.81 74.14 73.09 71.18 71.81 72.80 63.53 65.08
65.88 60.79 62.60 67.74 70.18 72.03 73.88 72.39 72.26 71.48 70.91 70.85 72.13 72.54 69.15 62.54 70.25 70.50 67.69 71.73 74.28 75.51 76.32 76.60 76.97 77.69 78.30 78.39 78.01 78.93 77.08 75.39 75.44 74.56 74.18 74.46 74.29 74.12 72.30 72.18 72.80 71.46 69.89
66.61 67.57 63.08 66.86 66.65 65.38 68.64 72.26 72.47 71.90 69.76 71.51 71.99 71.59 60.68 72.45 74.75 74.87 75.89 75.08 74.96 75.78 76.94 76.81 78.39 77.40 78.41 79.23 77.40 77.36 76.26 75.56 74.98 74.62 74.06 73.95 73.81 72.60 72.35 71.50 71.12 70.65 69.68
61.27 61.80 64.59 67.73 69.11 69.31 66.70 68.16 69.06 68.47 70.52 70.19 71.87 70.08 54.95 75.11 75.74 74.99 75.68 76.27 77.27 77.56 78.07 78.91 77.97 78.19 77.45 76.48 75.85 75.56 74.51 74.03 74.03 73.36 72.63 72.38 72.86 71.97 71.59 70.53 70.66 69.85 69.45
59.08 61.24 63.31 65.12 64.89 61.96 66.92 67.13 69.27 68.95 69.15 70.72 71.32 72.39 72.52 71.70 72.60 70.69 70.19 68.53 71.52 72.45 73.05 74.33 73.80 74.82 74.75 75.24 75.04 74.44 73.41 72.99 70.56 72.56 71.94 71.09 70.97 70.48 70.22 69.34 68.97 68.72 68.33
54.12 55.37 56.83 57.44 56.91 61.58 59.68 62.47 63.82 58.22 61.79 63.12 61.51 63.15 63.54 64.44 63.18 62.82 62.01 62.06 60.42 60.42 60.63 59.28 63.27 60.02 60.18 60.51 63.43 66.52 56.45 53.27 56.75 68.45 70.96 70.57 69.96 67.15 68.88 68.01 67.46 65.90 65.48
46.94 46.28 47.26 48.49 50.20 51.24 51.68 49.46 51.94 53.13 53.21 51.84 51.09 51.53 51.39 51.04 50.70 50.63 50.48 50.99 50.59 50.45 48.16 48.81 49.61 51.84 49.65 47.22 47.20 48.44 41.19 34.89 44.89 41.48 61.24 68.27 68.52 68.33 67.74 66.91 65.48 65.02 65.79
42.77 42.22 41.95 42.18 42.37 43.19 43.14 42.32 42.38 42.78 42.54 42.97 42.89 42.99 43.53 43.66 43.31 43.47 43.76 43.54 43.20 42.72 41.88 41.47 41.38 41.59 42.57 42.04 40.34 36.42 32.96 34.25 40.96 35.60 54.12 65.02 65.68 66.65 65.72 64.99 64.61 64.37 65.73

GFSGL_sfc_wetblb_072.txt.gz
Wetbulb
75.79 75.43 75.39 74.49 74.55 74.41 75.33 75.07 76.85 77.49 80.89 79.32 79.63 78.70 78.24 77.90 78.93 78.73 78.17 77.11 76.93 77.17 77.19 78.03 77.27 77.69 76.89 76.66 76.38 75.97 74.01 73.96 70.72 71.95 74.28 74.83 77.17 76.87 74.95 75.99 76.90 75.72 74.82
76.37 76.01 75.37 76.23 75.40 74.41 73.19 75.30 77.77 77.32 78.41 81.08 79.08 79.75 78.24 78.02 78.20 78.00 77.29 76.07 76.58 76.94 77.50 77.66 77.44 77.57 78.04 77.61 76.48 76.49 76.40 77.76 75.09 73.09 74.94 74.49 74.44 75.03 76.83 77.02 76.49 75.82 75.00
77.03 76.52 75.99 75.54 75.93 75.48 73.56 75.43 76.39 77.12 78.63 77.94 79.52 77.70 78.41 77.48 77.27 77.72 77.78 76.87 77.36 77.36 77.51 77.94 77.36 77.97 77.34 76.65 76.94 75.29 75.61 75.33 75.05 73.91 72.81 75.46 75.75 76.04 74.67 77.11 76.88 75.46 75.87
76.59 76.22 75.91 76.03 75.90 75.82 76.21 74.05 76.94 76.96 76.75 78.19 77.93 78.23 78.16 77.79 77.07 76.69 77.60 77.25 77.23 77.13 77.40 76.87 77.17 77.05 77.23 77.88 77.56 77.58 77.37 76.62 75.76 75.15 73.64 73.14 73.94 74.81 75.52 74.00 74.07 76.33 75.23
75.62 75.99 75.95 76.74 76.71 76.70 76.37 75.91 74.24 77.05 77.51 77.99 77.89 77.94 78.12 78.08 77.51 76.70 76.35 76.86 76.98 77.23 77.46 77.38 77.33 76.87 74.15 75.42 77.21 77.62 77.28 76.68 75.46 74.32 73.57 73.53 72.92 73.91 73.16 73.89 73.10 74.93 75.86
75.23 75.49 76.34 76.77 76.62 76.70 76.47 76.34 76.26 75.98 76.92 77.81 77.65 77.78 77.64 77.70 70.76 68.40 73.92 75.54 77.11 76.74 76.17 76.87 78.00 73.67 73.25 69.58 68.76 69.46 73.41 76.74 75.55 74.93 73.97 72.75 73.61 74.61 74.96 74.78 74.05 72.96 71.73
75.60 75.95 76.03 76.49 76.47 76.26 76.64 76.51 76.76 76.16 76.81 77.20 77.41 77.94 77.61 77.82 67.83 65.80 68.19 75.17 75.05 75.72 76.91 76.80 77.10 76.81 73.54 77.41 70.68 68.24 68.65 67.58 69.12 74.05 73.11 73.36 73.44 74.38 75.16 75.20 74.72 74.48 74.45
75.58 76.13 76.19 76.37 76.13 76.82 76.76 76.37 76.61 76.82 76.50 76.74 77.14 77.81 77.88 77.90 67.99 64.55 65.72 73.68 75.07 75.74 76.25 76.09 76.57 76.45 76.75 77.35 77.38 76.93 75.78 75.58 74.26 72.02 72.99 74.67 75.89 76.79 77.11 76.73 76.31 76.12 76.03
76.44 76.02 76.38 76.22 76.16 76.80 76.36 76.57 76.59 76.64 76.68 76.79 77.26 78.04 77.64 77.84 65.92 64.74 65.09 72.48 73.33 74.33 74.98 75.39 76.30 77.02 71.83 68.08 73.75 73.63 73.63 74.17 71.52 65.77 68.80 69.19 69.08 68.62 71.35 76.16 73.61 71.51 71.61
75.57 76.41 77.77 77.10 77.10 76.77 76.96 76.85 77.01 77.22 76.78 77.23 77.37 78.06 74.74 78.10 67.48 62.73 64.93 74.92 73.73 73.54 74.77 75.48 67.70 71.93 66.54 64.08 73.26 75.03 73.98 74.60 75.65 75.89 76.39 73.88 66.79 69.27 64.66 69.71 72.05 71.35 73.44
76.88 77.82 77.11 78.49 77.52 77.88 77.91 78.01 77.58 77.42 77.28 77.00 76.85 77.82 78.55 77.34 77.37 61.68 59.48 75.11 74.69 74.40 74.05 74.23 75.42 64.88 61.95 60.75 61.79 74.78 73.89 74.58 74.40 76.25 76.49 76.23 77.00 77.56 78.16 75.00 75.83 75.38 74.75
78.11 76.92 78.01 78.46 78.20 78.41 77.96 78.34 78.20 77.73 77.13 76.79 76.78 76.98 78.02 78.70 68.83 62.85 58.66 61.91 70.10 74.88 74.34 74.82 74.36 61.08 58.84 59.26 61.10 63.99 62.87 63.67 74.65 74.29 74.12 74.26 74.82 76.09 78.04 79.15 79.70 79.18 78.61
78.65 76.95 78.19 78.36 78.21 78.12 77.75 77.94 77.54 77.87 77.05 76.21 76.48 76.06 77.14 78.04 78.81 63.39 58.98 58.42 60.97 72.64 75.62 71.07 62.44 59.89 55.98 56.18 57.01 59.72 59.60 70.07 72.64 73.26 73.96 74.99 76.54 77.21 78.05 78.80 79.77 79.11 78.35
77.91 76.88 78.31 78.02 77.12 77.58 78.11 78.02 77.60 77.21 76.88 76.41 75.88 76.32 76.29 76.52 77.26 78.25 70.24 64.83 60.97 65.01 67.95 72.37 70.23 66.16 60.93 66.47 70.66 62.66 69.30 74.32 74.87 75.44 75.68 76.70 77.67 77.88 77.36 78.23 77.52 76.69 73.63
78.00 77.36 77.58 77.51 76.69 77.24 77.19 77.63 77.52 78.10 76.20 76.41 76.46 76.19 76.10 75.31 75.19 70.46 72.07 74.23 72.91 69.19 71.30 74.17 74.19 73.81 72.91 73.13 75.34 77.03 75.13 75.50 75.43 76.02 75.96 75.91 76.26 77.06 77.26 78.28 76.17 72.90 71.30
77.52 77.24 76.38 76.50 76.78 77.02 76.14 74.41 55.29 61.93 57.15 57.92 62.03 69.98 69.09 57.94 52.01 50.62 51.97 59.16 59.65 57.80 70.83 73.89 74.26 74.46 74.38 74.58 74.80 75.42 77.32 75.06 76.80 77.01 77.04 77.01 76.79 75.90 74.65 74.65 73.86 72.22 71.32
66.77 68.15 75.57 73.16 75.91 75.93 75.91 76.37 74.02 65.85 51.86 50.23 54.04 56.03 61.87 55.75 49.69 49.15 49.33 50.60 55.69 58.42 74.78 74.72 75.28 75.92 76.28 76.48 77.68 77.37 75.65 75.67 76.45 76.88 76.91 76.84 75.65 74.34 72.38 72.79 72.10 71.63 70.66
61.50 56.14 64.89 68.87 74.74 75.81 76.12 75.90 75.92 73.83 72.94 73.02 56.40 57.87 51.14 50.96 49.87 49.69 49.87 58.08 70.91 69.66 76.70 76.89 76.87 77.53 78.13 77.59 77.00 76.24 75.95 76.65 77.51 77.21 76.99 76.36 74.75 73.54 72.67 71.88 71.67 71.22 70.74
61.43 58.15 60.49 64.99 67.07 71.48 77.06 76.33 75.34 75.96 75.48 75.56 74.98 59.15 51.36 46.06 48.60 48.60 51.14 76.17 76.01 76.04 76.42 76.10 76.24 76.41 77.09 78.35 78.22 78.68 77.97 77.30 76.73 77.33 77.44 76.25 74.86 73.90 72.55 71.99 71.69 63.43 65.93
62.46 61.39 60.30 63.96 66.06 65.32 69.89 73.86 71.15 71.75 72.30 72.23 72.65 74.83 68.34 62.68 68.46 69.70 69.20 72.49 73.47 74.82 75.32 75.97 77.20 77.11 77.07 76.83 76.95 77.78 78.10 77.74 77.42 76.28 74.25 73.84 73.65 73.73 73.01 72.59 72.35 71.56 71.27
58.10 65.43 62.55 64.79 65.72 67.75 67.37 67.95 70.22 70.45 71.05 70.97 70.41 69.98 62.59 71.95 73.22 74.21 70.06 72.30 71.55 73.09 74.36 74.16 75.43 78.24 79.44 79.67 79.25 77.62 76.18 77.14 76.66 76.02 75.22 74.78 73.70 73.19 73.49 73.36 72.91 70.44 68.44
59.31 60.65 63.84 62.31 63.34 65.61 65.54 66.11 68.68 68.46 67.61 65.49 67.43 66.25 52.29 71.50 72.89 67.86 65.86 65.57 63.71 64.91 69.41 71.20 67.40 66.18 62.77 64.10 72.77 75.23 75.32 75.46 75.72 74.51 73.46 73.95 73.75 73.22 72.75 71.39 71.65 71.30 69.49
54.55 56.14 56.97 56.41 58.35 58.30 62.67 61.75 58.54 59.25 60.38 60.33 59.84 60.86 60.45 61.52 61.22 60.55 58.74 58.20 57.99 56.75 58.49 60.01 57.83 56.49 55.75 55.61 56.14 57.23 53.18 52.27 52.82 58.34 65.17 71.04 71.24 70.94 70.75 70.08 69.14 68.50 68.18
49.62 49.39 49.17 49.62 48.76 51.86 51.83 52.06 53.03 50.49 51.71 52.96 53.28 53.47 52.95 52.93 52.76 53.48 53.93 52.26 51.45 49.66 49.80 50.58 48.90 46.63 46.77 46.65 46.74 47.33 45.43 42.83 46.22 53.48 55.17 59.02 66.36 66.50 68.52 68.71 68.15 67.90 67.22
44.52 43.98 43.44 44.18 45.09 44.46 44.10 44.53 45.03 46.02 46.30 46.26 45.72 46.69 46.21 45.82 44.97 46.72 46.44 46.73 45.91 44.02 40.98 40.85 41.50 42.08 41.64 40.77 41.03 40.55 36.15 34.35 43.15 38.92 52.46 58.99 62.50 64.74 66.10 65.71 66.27 66.03 66.12
42.57 41.69 41.10 41.09 41.03 41.68 41.23 40.49 40.51 40.67 40.80 40.87 40.79 41.30 42.65 42.75 41.69 41.69 41.03 40.87 40.39 40.01 39.68 39.39 38.70 38.10 38.52 37.84 36.43 34.47 32.32 33.82 39.53 37.74 50.32 57.11 58.42 56.79 55.44 60.03 63.89 64.61 64.84

GFSGL_sfc_wetblb_075.txt.gz
Wetbulb
71.56 72.22 70.11 70.01 72.26 72.14 71.13 71.28 73.10 72.36 74.74 74.91 74.80 74.59 74.99 74.54 74.31 74.12 72.38 73.62 72.66 72.16 72.94 73.28 72.63 72.51 71.86 72.22 73.23 72.09 69.70 68.43 65.55 66.45 69.14 70.33 72.01 72.19 72.89 71.52 71.77 71.88 71.85
71.99 72.39 72.14 70.11 71.30 72.22 71.28 70.19 72.13 72.36 73.15 74.81 75.33 75.21 74.59 73.92 74.54 73.88 73.64 73.59 73.30 73.03 73.26 72.54 73.22 74.44 72.93 72.68 72.32 71.16 71.49 71.88 69.21 67.63 70.07 70.29 70.28 71.35 71.50 71.81 73.62 75.25 73.17
72.77 71.89 72.66 72.21 69.84 71.29 71.39 70.68 70.10 73.29 72.73 74.57 74.69 74.61 74.14 74.37 73.91 74.20 74.01 73.46 73.22 73.67 73.79 74.14 73.39 73.72 72.67 72.78 71.76 71.31 70.93 71.74 70.86 69.95 69.30 70.91 71.96 72.70 72.70 71.89 73.89 74.56 74.94
73.20 72.58 72.02 72.26 72.45 70.46 70.94 70.24 71.71 73.65 74.38 73.84 75.21 74.04 74.95 73.99 73.80 73.94 74.37 74.06 73.19 73.74 74.44 74.02 74.26 73.86 73.30 73.22 73.94 73.63 73.71 72.91 72.26 71.55 71.42 70.71 70.49 72.33 71.47 70.94 70.15 71.52 71.96
73.36 73.26 72.83 73.09 72.97 73.50 72.31 71.41 70.07 73.06 73.84 74.37 74.31 75.01 74.54 75.09 75.22 73.32 74.14 74.42 73.75 73.37 73.62 74.17 73.86 73.81 72.91 72.76 74.64 74.16 74.08 73.03 72.80 71.94 71.31 70.53 69.78 68.67 69.31 70.72 70.80 71.55 71.59
73.85 73.59 74.18 73.87 73.49 73.21 73.53 73.30 70.69 71.49 73.35 73.25 74.24 74.49 74.66 75.91 70.58 69.44 72.45 73.31 74.26 73.82 73.54 73.86 74.49 72.75 72.50 70.06 69.63 69.83 73.56 73.38 72.44 72.08 70.97 70.07 69.16 70.01 71.34 71.03 70.62 69.16 69.69
72.79 74.07 74.18 74.00 74.01 73.75 73.62 73.47 72.90 70.61 72.10 74.17 74.09 74.77 74.51 75.14 67.96 66.95 69.50 73.58 73.04 74.02 73.93 73.69 73.69 75.11 72.00 73.65 69.81 67.57 67.47 67.11 69.03 72.26 70.55 70.28 70.27 70.81 71.07 70.84 71.16 71.87 71.34
72.29 73.08 74.05 74.13 73.90 74.23 73.87 73.61 73.43 72.85 70.95 71.47 74.26 74.82 74.90 75.26 67.64 65.18 66.94 72.44 72.42 72.26 73.80 74.19 73.94 73.67 72.83 72.18 72.58 73.00 72.58 71.88 71.07 70.34 70.11 72.03 72.42 73.10 73.14 73.61 73.02 72.73 73.72
72.35 72.50 73.83 74.40 73.87 74.07 73.67 73.60 73.64 73.70 73.56 72.66 73.52 74.54 74.81 75.13 65.70 64.86 64.39 67.49 71.09 71.53 72.54 72.88 73.55 73.79 69.99 66.67 71.44 71.35 71.68 73.12 71.87 66.10 66.92 66.90 67.36 67.60 69.85 73.26 73.10 71.35 71.23
72.78 73.35 73.94 74.10 74.08 74.08 73.96 73.88 74.24 74.07 74.00 74.61 73.94 74.69 72.36 75.04 66.52 63.40 64.66 72.35 69.01 70.01 71.05 71.86 66.67 71.10 66.46 64.16 71.02 71.67 70.39 71.31 71.07 72.30 71.80 67.72 65.51 68.46 66.08 69.95 72.47 71.02 69.70
73.58 74.11 74.38 74.34 74.08 74.35 74.61 74.57 74.64 74.31 74.08 73.93 74.12 74.65 75.09 74.64 74.69 62.50 60.20 73.69 73.27 71.60 71.12 71.04 72.18 63.53 60.01 58.94 60.92 70.91 70.27 71.20 70.09 71.31 72.38 73.52 73.81 74.10 74.59 69.47 69.48 70.76 69.74
74.65 73.66 74.18 74.41 74.55 74.96 74.88 74.82 74.73 74.43 73.80 73.58 73.71 73.93 74.95 75.63 67.48 63.58 59.67 61.64 69.65 73.07 72.19 72.78 71.99 62.72 59.55 59.07 60.00 62.54 62.08 62.82 70.61 71.43 71.13 70.95 71.42 72.16 73.82 75.16 75.20 73.87 74.89
66.19 73.77 74.39 75.04 74.84 75.15 74.89 74.82 74.31 74.63 73.94 73.55 73.39 73.33 73.97 75.31 76.28 63.01 59.71 58.61 60.66 71.96 74.27 70.95 65.17 61.09 55.58 55.99 57.17 59.56 59.23 64.76 68.50 69.37 69.91 70.71 72.17 73.72 74.45 74.44 75.60 75.97 75.62
66.14 74.24 73.77 74.21 74.97 75.02 75.84 75.58 75.22 74.81 74.24 73.95 73.93 73.59 74.08 74.52 75.30 76.52 70.15 64.73 60.79 63.89 67.72 70.05 64.16 64.21 63.81 67.01 65.72 60.50 61.41 66.30 67.81 68.74 69.86 71.96 73.47 74.18 73.74 74.44 73.88 74.09 72.70
63.12 74.49 74.24 75.21 73.55 75.12 75.69 75.44 75.78 76.03 74.58 75.03 74.86 74.79 73.86 73.76 74.15 71.19 72.13 73.11 71.73 68.12 69.02 71.76 71.26 70.87 71.43 71.39 69.77 71.04 66.96 67.93 70.20 71.88 72.72 72.54 72.67 73.12 73.37 74.44 73.59 71.43 70.80
62.48 70.53 73.31 74.74 74.22 74.99 74.71 71.75 55.72 61.43 59.27 58.68 61.02 70.51 74.10 62.02 60.96 58.81 56.05 58.24 59.30 57.47 66.97 71.11 70.84 71.25 70.99 71.07 70.48 69.79 72.82 70.58 71.96 72.90 73.64 73.86 73.42 73.08 73.57 73.55 73.31 72.57 71.23
59.97 60.06 65.95 66.29 73.72 74.39 74.24 73.67 72.08 65.55 53.95 50.68 52.32 58.29 55.43 62.42 49.76 51.55 51.65 51.84 51.59 57.63 70.31 70.61 71.35 71.55 71.77 71.94 72.04 71.83 71.36 73.73 74.83 73.82 73.37 73.60 73.49 72.58 71.53 72.18 71.91 71.35 70.85
61.27 56.44 60.92 65.08 67.40 70.03 74.30 74.02 73.58 72.08 71.15 68.45 52.50 54.49 49.96 49.78 49.42 48.33 49.42 53.67 60.13 62.65 71.14 71.02 71.59 72.36 73.10 73.56 73.69 73.65 73.59 73.62 73.31 73.13 73.35 73.39 73.10 72.18 72.04 71.28 71.17 70.60 70.58
58.16 60.61 60.12 63.28 64.79 63.60 69.24 73.89 73.66 72.41 71.86 71.23 62.59 56.26 49.16 48.31 49.05 49.05 49.78 71.08 69.44 70.11 71.80 72.59 72.79 73.17 73.20 73.70 74.33 73.56 73.29 73.51 73.45 73.80 74.41 74.10 73.67 72.79 71.86 71.48 70.55 63.19 66.07
56.57 57.99 60.63 62.50 64.58 64.84 66.67 70.21 71.27 70.10 69.98 68.61 68.45 66.67 61.27 60.39 64.15 64.79 65.76 67.35 68.70 69.38 71.04 71.43 71.20 71.18 71.58 72.19 72.83 74.33 73.80 72.94 73.24 73.19 72.94 72.58 72.56 73.26 72.40 71.86 71.50 69.63 68.77
57.19 59.14 61.79 63.47 64.89 63.30 63.65 66.24 68.81 68.20 66.38 66.37 64.72 61.64 58.48 68.47 66.10 63.49 60.76 62.45 62.49 62.97 63.18 60.29 59.84 57.99 56.89 57.65 58.37 61.41 71.09 72.08 72.28 72.71 72.29 71.59 71.25 70.42 70.71 70.69 70.24 69.83 69.31
53.54 54.61 54.13 57.17 60.20 58.70 57.93 60.15 60.55 60.79 60.13 60.52 59.78 57.17 53.27 60.19 58.65 57.39 55.57 53.20 53.19 53.98 53.91 60.18 56.27 53.62 51.65 50.35 50.67 51.98 53.94 54.62 56.46 57.11 61.78 66.70 70.68 70.82 70.21 69.57 69.06 68.47 68.61
49.98 50.49 50.68 50.88 51.66 52.38 53.05 53.09 54.52 56.19 56.13 55.03 53.80 52.95 52.33 51.37 50.87 50.60 51.47 49.97 48.23 47.71 48.41 47.76 47.49 46.50 47.51 47.31 47.87 48.03 48.07 48.21 49.47 52.90 53.92 57.57 61.56 65.36 67.89 67.64 66.90 65.16 64.59
44.22 45.32 47.01 47.53 47.49 46.31 48.21 47.21 47.78 47.33 49.06 47.73 47.08 46.00 46.11 45.95 45.95 45.93 45.93 47.19 44.10 43.40 44.59 45.52 43.81 42.40 43.29 43.89 44.37 45.04 44.06 43.02 47.97 48.91 50.91 55.24 59.66 60.35 63.14 64.53 64.61 64.71 64.61
41.89 41.83 41.75 42.36 42.22 41.96 42.85 44.11 44.30 44.16 43.18 42.16 43.00 42.94 42.54 42.85 42.76 42.65 42.32 41.69 41.68 41.30 41.03 40.26 41.05 40.12 39.65 40.09 40.09 38.31 35.10 34.96 41.56 39.76 53.37 55.84 57.97 55.58 55.37 59.28 61.59 63.28 63.42
41.35 40.56 40.22 39.97 39.68 39.99 39.60 39.71 39.43 39.92 39.72 39.97 40.09 40.04 40.53 40.53 40.51 40.87 41.33 40.70 39.90 39.98 38.94 38.48 38.76 37.46 37.88 37.45 37.11 35.65 33.14 33.69 38.11 36.88 48.25 49.77 49.28 47.85 50.26 52.92 53.96 56.69 58.66

GFSGL_sfc_wetblb_078.txt.gz
Wetbulb
70.06 69.23 68.59 68.89 70.67 69.02 69.19 69.87 71.98 70.60 70.87 71.54 72.34 73.69 73.39 72.97 72.19 72.51 71.59 71.60 71.79 70.49 70.62 71.10 71.32 71.02 70.42 70.74 71.04 70.43 69.19 66.91 64.09 65.16 66.73 69.00 70.33 71.24 71.07 71.14 71.68 69.96 70.50
70.72 70.29 68.85 68.57 69.72 70.90 70.52 69.35 71.63 71.05 72.73 72.99 72.63 73.84 73.47 73.44 72.85 72.53 71.54 72.13 71.84 71.07 71.19 71.20 71.48 73.00 71.39 71.09 71.06 69.98 69.15 69.49 66.66 66.18 67.33 68.36 69.00 70.58 71.12 71.46 73.47 74.32 73.00
70.80 70.69 70.14 68.26 68.56 70.16 71.47 70.29 68.78 71.54 71.55 73.50 73.41 73.25 73.59 73.30 73.07 72.99 72.86 72.18 71.74 72.09 71.84 71.73 71.72 71.57 71.36 71.00 71.33 70.65 69.90 70.60 69.53 68.46 69.43 69.76 71.12 71.71 71.22 70.65 70.80 71.76 73.98
70.68 70.51 70.47 70.10 68.49 68.86 71.00 70.37 70.05 69.67 70.76 72.05 73.68 73.27 73.24 73.54 73.37 73.37 72.91 72.23 71.91 72.21 72.77 72.61 72.99 72.63 71.98 71.92 71.49 71.51 71.91 71.77 70.98 69.91 69.39 69.73 70.20 71.13 70.17 69.92 69.80 69.67 70.88
70.91 70.17 70.42 71.45 70.88 68.86 68.99 70.63 69.92 69.54 71.22 72.06 73.14 73.41 73.84 73.46 73.63 72.77 72.97 72.50 71.80 71.61 72.27 72.96 73.20 73.07 71.84 71.40 72.47 71.63 71.71 71.39 70.83 70.38 69.96 69.48 70.02 69.48 69.11 69.69 69.62 69.83 69.85
71.08 70.96 70.65 71.22 71.80 71.02 68.85 69.00 69.50 69.62 71.24 71.67 72.46 73.22 72.91 74.37 69.06 68.38 71.65 72.53 72.42 71.85 71.62 71.95 72.86 71.94 71.07 68.77 68.68 69.26 71.62 71.82 71.34 70.77 71.12 70.78 71.01 68.83 68.80 69.01 68.87 67.66 68.35
71.32 71.77 71.96 71.12 71.41 71.64 71.90 69.82 69.64 68.70 69.29 71.21 72.42 73.33 73.36 73.99 66.65 66.57 68.65 72.40 72.63 72.83 72.42 72.26 72.15 74.31 71.50 72.81 69.19 67.02 66.91 66.96 68.84 72.49 71.09 71.06 69.64 69.51 69.18 68.42 68.96 69.12 69.32
70.33 72.20 72.44 72.69 71.91 71.98 71.96 72.18 71.37 70.86 68.92 69.82 71.53 71.95 73.12 73.69 65.96 64.82 67.11 72.63 72.06 72.01 73.12 73.00 72.42 72.26 71.59 71.51 71.58 71.53 71.77 71.31 69.33 69.09 69.72 71.56 71.73 71.76 70.85 71.90 71.03 70.55 71.44
69.15 71.34 73.20 73.26 72.94 72.60 71.86 71.92 72.61 72.16 71.09 69.61 71.62 73.05 72.02 72.64 64.23 63.88 65.47 71.34 72.45 71.63 71.54 73.00 73.30 72.90 68.64 65.36 71.32 70.91 71.38 71.85 70.15 64.91 65.38 65.55 65.53 65.46 67.78 69.75 70.28 70.25 69.77
67.84 69.39 71.86 73.74 73.23 73.07 73.04 72.73 73.11 72.98 72.47 71.89 70.86 71.18 70.73 73.67 64.62 62.60 64.68 72.38 70.22 70.63 71.34 71.02 65.91 70.93 65.25 63.04 70.52 71.28 70.48 71.26 70.77 68.75 69.31 66.89 64.71 67.50 65.06 68.22 70.54 69.39 69.71
65.47 68.10 69.94 73.19 73.77 73.79 73.79 73.87 73.57 73.15 73.03 72.71 72.01 71.81 71.69 72.40 73.04 61.14 60.63 73.62 72.89 71.15 70.38 70.10 71.26 62.89 60.28 59.25 61.07 71.34 70.48 71.05 70.29 70.40 71.09 70.97 71.71 72.56 72.70 71.20 69.63 70.63 69.28
63.45 64.85 67.22 73.09 74.08 74.34 73.65 73.74 73.67 73.29 72.42 72.32 72.50 72.70 73.16 73.66 65.84 61.97 59.47 61.57 69.44 73.18 72.07 71.85 71.26 60.91 57.70 57.30 58.11 61.77 60.83 61.47 67.67 68.45 69.48 70.38 71.33 71.62 72.41 72.53 72.72 70.65 72.24
61.53 63.63 67.00 72.92 73.48 73.99 73.41 73.27 73.00 73.21 72.63 72.03 71.93 72.03 72.65 73.94 74.24 61.83 58.99 59.15 60.68 70.75 74.29 70.26 63.64 58.71 56.21 58.20 58.06 59.20 57.91 63.25 65.82 67.33 68.80 70.12 71.22 72.03 71.59 71.98 73.12 74.21 73.57
59.35 61.39 63.87 71.69 72.75 73.17 73.77 73.96 73.31 72.96 72.76 72.54 72.25 72.11 72.47 73.10 73.72 74.75 69.32 64.81 60.68 63.34 67.07 70.59 67.11 63.76 61.60 63.94 63.15 60.66 60.77 63.35 65.44 66.47 67.66 69.27 69.24 70.50 71.38 72.70 72.15 72.26 72.49
58.60 60.66 61.29 72.25 72.27 73.12 73.72 73.70 73.94 74.41 72.80 73.29 73.20 73.28 72.60 72.38 72.93 68.95 70.36 72.85 71.59 67.63 67.84 71.31 69.09 65.89 67.46 67.43 67.47 68.17 66.64 64.29 65.03 66.53 67.05 68.04 69.75 71.27 72.19 72.60 72.65 72.33 72.63
57.17 60.42 59.13 62.66 73.07 73.96 73.28 73.62 55.91 60.87 58.96 57.86 59.75 69.01 73.73 65.39 60.80 57.34 55.91 55.91 57.18 55.55 65.27 71.29 70.41 70.96 70.11 70.79 71.21 71.14 70.49 68.71 68.94 69.34 69.63 70.60 71.13 71.67 71.90 72.87 73.53 72.97 71.86
55.58 59.07 59.90 61.04 66.37 73.34 73.42 73.53 72.48 64.05 54.26 52.65 53.37 55.19 56.56 63.61 53.19 52.10 53.92 51.92 48.12 55.91 71.05 69.91 70.87 70.70 70.86 71.33 71.29 71.16 70.76 70.49 71.38 70.68 70.99 71.71 72.33 72.58 70.93 73.26 72.40 71.61 70.95
53.95 55.82 59.57 60.97 64.11 65.91 71.43 72.90 72.57 72.78 72.13 70.34 51.92 54.82 51.02 48.84 47.57 47.57 47.94 52.95 59.25 59.66 70.57 71.20 70.49 71.02 71.16 71.25 71.33 71.37 71.72 71.45 71.01 72.88 72.87 73.03 72.83 72.47 71.18 71.61 71.35 70.88 68.63
52.64 55.95 58.35 60.38 63.14 63.78 66.71 71.00 71.20 70.77 71.28 72.77 62.08 53.37 48.50 45.94 47.75 46.12 48.66 67.90 65.52 65.29 67.63 70.27 69.96 70.00 70.84 71.25 72.19 72.84 73.02 72.80 72.53 72.58 72.42 72.40 72.35 72.40 72.17 71.74 71.26 61.35 64.25
54.78 57.26 56.92 61.76 63.79 64.06 66.00 69.64 71.07 70.19 69.15 69.17 67.13 65.71 60.86 61.69 66.50 66.86 66.84 67.29 67.36 67.58 68.56 68.96 67.49 64.57 61.75 61.32 64.48 67.95 68.17 67.18 68.69 69.30 67.43 68.44 70.95 70.66 70.23 70.25 70.57 70.43 68.49
52.96 53.74 54.47 57.00 57.60 58.24 62.10 63.93 66.84 67.15 64.96 60.78 59.55 60.95 55.01 67.29 62.93 59.61 57.00 55.76 55.94 55.82 59.65 57.54 56.24 55.89 57.16 57.78 59.55 61.14 62.16 61.52 62.61 64.49 64.54 63.38 63.92 69.28 69.37 69.39 69.93 69.05 68.67
50.43 50.99 51.32 50.99 52.11 52.11 53.09 57.88 58.06 58.58 58.54 56.74 55.63 53.48 52.29 57.58 55.43 51.74 50.46 49.34 50.59 49.40 49.12 49.96 49.23 49.58 50.51 52.76 51.92 54.47 56.24 56.52 55.91 57.82 61.15 61.60 62.36 64.85 67.29 68.15 68.56 68.22 67.88
46.92 47.85 47.57 47.91 48.07 48.61 49.23 48.87 51.00 51.31 50.39 50.21 51.51 51.45 51.61 51.39 48.76 49.60 47.86 47.37 47.36 46.91 45.44 44.92 45.09 44.60 45.38 45.38 46.08 45.73 47.03 48.29 49.25 51.82 54.34 57.06 59.70 61.41 62.66 63.37 64.29 65.01 64.60
43.06 43.83 44.09 44.12 44.31 44.29 45.56 45.89 46.71 45.53 46.85 45.77 45.45 45.45 45.63 46.04 46.36 45.38 44.54 43.97 42.52 42.31 42.76 42.28 41.80 41.28 41.80 41.90 42.11 42.41 41.76 42.39 47.68 50.91 55.32 58.42 60.29 58.49 58.86 60.53 61.52 61.94 61.82
41.64 40.97 41.21 41.27 41.54 41.46 41.66 42.07 42.71 42.20 43.05 43.99 42.96 42.76 42.23 42.43 42.02 41.17 40.81 40.63 40.30 39.91 39.42 39.31 39.91 39.25 38.97 38.77 38.49 37.70 34.93 34.39 40.96 43.95 54.01 54.55 52.02 52.02 53.73 55.40 54.67 57.22 57.78
40.41 40.48 40.12 39.86 39.94 40.76 39.58 39.89 39.33 39.48 41.02 40.12 39.89 40.76 41.04 40.85 40.55 40.01 39.83 39.71 39.29 39.09 38.84 38.61 38.21 38.07 37.99 37.51 36.30 34.35 33.08 33.23 38.29 38.98 47.91 48.45 47.14 46.60 48.76 49.50 50.50 50.53 50.85

GFSGL_sfc_wetblb_081.txt.gz
Wetbulb
68.58 69.30 69.31 69.12 69.29 67.02 67.98 68.98 70.47 70.20 69.92 70.00 71.49 72.18 71.47 71.23 71.58 71.07 70.46 70.65 70.95 70.55 69.84 69.96 69.70 70.02 69.70 69.49 69.70 69.56 67.99 65.31 63.42 65.18 65.25 67.74 69.12 69.41 70.45 70.81 71.70 71.51 71.02
68.94 68.63 68.22 68.58 69.15 69.18 67.93 68.43 69.20 70.40 69.79 70.51 70.27 71.93 72.19 71.84 71.33 71.38 71.18 71.62 70.59 70.18 70.33 69.48 69.92 71.56 70.06 69.94 70.02 69.32 68.21 67.95 66.54 65.29 66.43 67.59 68.73 70.24 70.94 71.23 72.75 73.13 71.85
69.13 68.63 68.07 67.43 67.63 68.91 69.52 68.67 68.68 69.83 70.57 70.77 71.23 70.87 71.88 72.32 72.00 71.66 71.41 70.92 70.81 71.03 71.03 70.56 70.28 70.22 69.67 69.86 69.90 70.02 69.48 69.81 68.51 67.34 68.29 69.17 70.06 70.68 70.57 70.73 70.86 70.77 72.32
69.18 68.71 68.16 67.64 67.52 68.10 68.81 69.73 68.85 69.14 70.13 71.25 72.15 71.77 72.24 72.41 72.34 72.47 72.12 71.38 70.98 71.27 71.50 71.52 71.64 71.34 70.68 70.31 70.40 70.46 70.10 69.90 69.97 69.28 68.38 68.29 69.17 70.21 69.52 69.32 70.17 70.12 69.88
68.78 68.99 68.69 68.87 68.20 68.00 68.15 69.06 70.23 69.41 69.72 70.83 71.72 72.51 72.17 72.57 72.82 72.05 72.24 72.02 71.42 70.77 71.06 71.66 72.02 72.17 71.00 70.46 71.66 70.77 70.08 69.50 69.17 68.72 68.40 68.38 69.30 68.60 68.42 69.30 68.09 69.33 69.00
68.65 69.09 69.56 69.48 69.30 67.86 67.48 68.02 68.91 69.38 69.58 69.25 70.51 71.80 72.22 73.14 68.38 67.54 71.18 71.89 71.60 71.18 70.66 70.46 71.42 71.12 70.36 68.17 67.77 68.41 70.47 69.83 68.71 68.65 69.10 68.72 69.67 68.65 68.38 68.13 67.25 66.30 68.17
69.67 69.67 69.71 69.88 69.78 69.57 68.07 67.14 67.60 68.52 68.81 69.34 70.02 70.66 71.41 72.65 66.04 65.76 67.85 72.39 71.63 71.21 70.87 70.81 70.79 72.93 70.56 71.90 68.66 66.52 66.25 66.02 67.72 71.45 70.05 69.87 69.90 70.33 68.55 67.25 67.34 67.30 67.57
69.77 70.19 70.33 69.94 69.92 70.34 70.02 68.13 67.32 67.85 68.06 67.70 69.00 70.45 70.72 71.32 65.29 64.09 66.25 71.53 71.52 71.70 71.85 71.54 71.26 71.16 70.95 71.41 71.22 70.93 71.06 71.01 69.42 68.31 69.16 71.22 71.78 72.20 69.84 70.79 69.83 68.78 69.42
68.99 69.55 70.26 70.66 69.73 70.21 70.22 70.18 69.67 68.37 68.15 68.06 67.80 68.10 70.08 71.22 63.47 62.87 64.71 70.80 71.59 71.39 71.55 71.97 71.99 71.82 67.76 64.57 70.33 69.80 70.31 70.49 68.77 64.44 64.94 65.09 64.41 64.34 66.04 67.77 68.76 66.98 68.15
63.56 65.13 67.32 71.04 71.88 70.48 70.49 70.60 71.07 70.76 70.18 70.19 68.94 68.97 67.24 70.00 62.40 61.78 64.13 71.97 71.27 71.70 72.16 71.06 65.51 70.11 64.20 61.62 68.80 70.24 69.58 70.63 70.11 69.64 68.53 66.00 64.37 66.49 64.37 67.10 68.95 67.90 67.95
62.15 63.45 64.34 66.22 69.47 72.72 71.84 71.58 71.25 71.56 71.73 71.29 70.62 70.16 70.10 70.64 70.96 59.61 59.77 71.88 71.90 71.25 71.10 71.36 71.07 62.31 59.83 58.71 60.22 71.37 70.08 70.37 68.83 68.34 68.74 69.28 69.64 70.45 71.15 68.99 68.85 69.57 68.78
60.15 61.05 62.43 64.48 67.93 71.43 72.92 72.23 72.24 71.73 71.13 71.14 71.13 70.96 71.25 70.64 64.15 60.72 58.71 61.58 68.33 72.40 71.73 71.68 71.06 60.04 57.82 57.30 57.83 60.81 60.64 61.62 67.88 66.28 65.88 67.49 68.05 69.18 70.87 71.93 72.41 70.88 71.89
58.00 58.82 60.67 63.07 64.68 68.55 72.10 72.55 71.52 71.83 71.63 71.24 71.23 70.98 71.33 71.94 71.49 59.97 58.09 58.51 60.76 70.47 73.53 70.14 63.47 58.22 56.06 57.20 56.76 58.80 58.53 64.38 65.60 64.87 66.06 67.01 68.67 70.35 70.26 69.95 70.69 71.12 70.97
55.69 57.97 59.94 60.79 60.89 66.96 72.50 72.97 72.45 72.11 71.77 71.61 71.33 71.01 71.46 72.27 72.52 73.11 67.39 63.12 59.98 63.72 67.05 69.91 67.20 64.14 61.90 64.27 62.72 61.07 62.41 64.31 64.84 66.00 67.38 67.94 67.64 67.43 67.81 69.10 69.44 70.29 70.57
53.12 55.50 58.74 60.66 60.59 63.74 72.16 72.58 72.99 73.42 71.68 72.38 72.13 72.18 71.46 71.31 71.98 68.65 69.14 71.22 70.21 66.76 67.27 70.22 71.50 68.22 69.55 69.01 66.93 67.37 66.39 63.53 63.58 64.79 65.16 65.70 66.17 66.62 67.84 69.39 70.37 70.80 71.09
51.44 54.11 55.88 58.31 60.61 63.64 69.96 71.87 55.60 56.97 56.14 54.99 56.28 67.31 72.39 63.63 58.01 54.87 53.96 53.96 55.60 54.69 65.09 70.98 70.95 71.21 70.98 70.71 70.66 69.86 69.03 67.45 67.14 67.10 66.78 67.32 67.77 67.95 68.78 69.71 70.98 71.70 72.24
49.84 51.43 54.04 56.12 60.18 61.84 64.68 72.01 71.32 64.93 51.24 51.61 52.15 53.60 54.49 63.14 51.61 52.88 51.43 50.88 49.79 52.88 71.19 70.61 70.92 71.20 71.00 71.29 70.81 70.93 70.88 70.95 70.87 70.29 69.53 69.32 69.12 69.46 69.10 70.37 71.32 72.29 71.64
48.88 50.29 53.05 57.39 59.19 61.40 63.68 65.58 72.93 72.05 70.97 71.01 55.96 54.51 50.16 50.16 50.52 50.88 48.53 52.13 58.31 58.53 70.27 71.65 71.08 71.17 71.24 70.91 71.13 70.88 70.86 70.48 69.64 69.82 69.80 69.94 70.27 70.84 71.22 71.27 71.00 71.16 69.98
48.81 52.85 55.74 56.26 59.60 61.25 63.65 65.22 68.06 70.19 71.07 71.35 65.18 54.51 52.33 47.08 45.99 49.25 48.53 70.53 69.66 68.72 67.11 69.60 71.20 71.76 71.47 70.82 70.82 70.64 70.68 70.61 69.87 70.07 70.66 71.57 71.07 70.91 70.53 69.87 69.58 60.49 62.64
50.55 53.87 54.41 55.16 59.13 59.31 60.92 63.39 67.13 70.05 69.98 70.52 68.85 68.69 58.76 59.10 61.81 62.68 60.44 66.17 68.49 66.68 65.87 65.75 63.28 63.08 62.74 64.01 66.56 69.46 69.12 68.94 68.38 67.00 65.97 65.90 66.55 68.65 69.01 68.54 67.93 67.16 67.77
49.98 51.73 52.67 53.12 53.98 54.28 55.54 58.63 61.02 67.45 65.32 61.63 59.86 59.93 54.15 66.75 67.75 65.12 58.29 55.54 55.70 56.38 55.72 55.14 54.49 53.75 54.13 54.31 56.52 60.02 61.99 62.50 63.32 63.71 64.18 64.13 64.61 64.35 65.26 64.18 64.33 64.90 68.38
47.96 49.76 49.23 49.34 50.05 50.55 49.98 52.63 54.44 56.62 56.26 54.64 53.67 51.72 47.80 55.82 54.76 55.32 54.62 54.09 52.23 52.28 52.12 50.08 49.48 49.41 49.79 50.40 50.71 52.55 53.59 55.32 56.06 56.99 59.22 61.03 62.90 64.08 65.27 66.02 64.94 64.65 66.94
45.57 46.86 46.38 45.80 46.63 47.29 47.83 48.16 48.85 49.37 49.17 49.69 49.93 50.07 49.13 48.14 47.78 47.94 48.09 48.25 48.45 47.31 49.28 49.39 48.34 47.78 47.38 47.40 46.14 44.38 45.96 46.35 48.54 51.24 53.53 56.12 59.21 61.64 62.38 62.96 63.17 63.62 64.02
42.43 43.48 43.46 43.29 43.44 43.13 43.72 43.85 45.38 44.24 45.47 44.36 43.84 43.51 43.20 43.58 43.18 42.44 42.48 43.56 43.54 41.77 41.98 41.39 41.19 41.14 41.69 40.49 40.67 41.26 39.61 39.56 45.43 49.46 54.26 56.92 57.21 56.00 58.61 60.82 60.66 61.73 62.56
41.26 40.65 40.62 40.71 40.99 40.87 41.38 40.59 41.72 41.31 42.25 43.00 43.05 42.53 41.53 40.94 40.58 40.72 40.71 40.33 40.05 39.87 39.35 38.89 38.91 38.57 38.10 38.01 38.03 37.56 34.41 34.61 39.74 40.61 50.06 50.80 50.77 52.45 53.73 54.01 55.11 55.99 55.89
39.76 39.66 39.61 39.64 39.33 39.58 40.00 39.97 40.15 40.51 39.72 39.59 39.99 40.74 40.33 40.36 41.66 41.04 40.02 40.81 39.14 38.86 38.76 37.95 37.84 38.09 37.89 37.16 35.64 34.05 32.49 33.61 37.09 35.35 45.75 46.51 46.49 46.74 48.32 48.21 47.53 48.19 48.02

GFSGL_sfc_wetblb_084.txt.gz
Wetbulb
69.41 69.83 69.47 68.35 67.77 67.76 68.83 70.35 71.20 72.04 72.11 71.96 72.87 73.39 73.34 72.98 73.24 72.67 72.80 73.11 72.65 72.85 72.66 72.90 72.84 72.78 72.61 72.09 72.39 72.31 70.93 68.54 68.12 70.59 69.37 71.81 73.65 74.65 75.79 76.08 75.97 76.41 75.59
69.05 69.66 69.59 69.51 68.94 67.66 67.94 68.84 70.77 71.76 71.92 72.00 71.85 73.09 73.24 73.00 72.99 72.78 72.37 72.90 72.34 72.39 72.66 71.83 71.91 72.34 72.77 73.11 72.60 72.51 71.93 71.48 70.34 69.94 71.12 71.77 73.63 75.16 75.19 75.25 75.64 75.75 75.64
68.92 68.90 69.29 69.37 69.23 68.94 68.24 68.22 69.54 70.40 71.17 71.57 71.97 71.65 72.84 73.40 72.90 72.96 73.14 73.29 73.03 72.81 72.92 72.64 72.67 72.62 72.45 72.34 72.78 72.55 72.63 72.41 71.47 70.69 71.33 73.12 73.61 74.06 74.95 75.49 75.61 75.81 75.21
68.56 68.44 68.21 68.44 68.90 69.52 69.91 69.25 69.05 69.67 70.22 71.29 71.83 72.26 72.40 73.12 73.49 73.37 73.07 72.91 73.08 73.07 73.27 73.27 73.33 73.12 73.06 73.39 72.77 73.11 73.44 72.90 72.86 72.34 72.15 71.91 72.56 74.03 73.33 72.39 73.39 75.08 73.82
68.60 68.21 68.03 68.52 68.76 68.81 69.14 70.07 69.94 69.43 70.19 70.63 71.74 72.81 73.04 73.13 73.07 73.46 73.46 73.22 72.98 72.95 73.36 73.32 73.73 73.42 71.01 71.86 73.81 73.96 73.51 72.93 72.61 72.18 71.98 71.65 72.14 72.46 72.92 73.60 72.12 72.97 73.56
68.58 68.54 69.07 68.64 68.73 68.19 68.36 68.64 70.00 69.96 69.86 70.16 70.52 71.52 72.65 73.27 68.10 67.59 71.93 73.20 73.25 73.24 72.89 73.28 73.67 71.54 71.37 68.14 67.62 68.16 72.40 74.10 73.21 72.33 72.15 71.47 72.70 72.65 73.58 72.49 71.94 71.39 70.66
67.88 68.84 69.72 69.47 69.12 68.86 68.38 68.39 68.53 69.55 70.13 69.43 70.09 70.90 71.70 73.03 65.52 65.66 67.79 73.51 73.20 73.20 73.33 73.45 72.89 73.21 71.34 73.96 69.14 66.59 66.59 65.98 68.32 74.07 72.87 72.88 73.15 74.58 74.00 73.40 73.04 71.47 71.36
69.04 69.26 69.71 69.88 69.67 69.80 69.29 67.77 68.04 68.75 69.20 69.55 69.71 70.29 70.68 71.48 64.63 63.85 66.08 72.66 73.20 73.18 73.23 73.33 73.12 73.46 73.37 73.40 73.73 73.58 73.58 73.73 72.38 70.41 72.01 73.58 74.56 75.00 74.83 74.18 73.41 72.75 73.11
63.24 65.45 68.75 70.42 69.92 70.11 69.54 69.57 68.58 68.12 68.49 68.94 69.41 70.02 70.23 70.54 62.33 62.68 64.92 72.12 72.44 73.03 73.23 73.53 73.63 73.38 68.57 64.58 72.87 72.93 72.99 73.13 69.00 64.55 65.65 65.54 65.05 64.68 67.53 71.37 70.83 70.67 70.37
60.66 62.29 63.98 65.14 68.07 70.05 70.56 70.71 70.43 69.28 68.59 68.92 69.00 69.13 67.08 70.27 62.07 60.78 63.94 71.57 71.13 71.81 73.14 73.38 65.60 71.18 64.41 61.50 71.15 72.66 71.63 72.34 73.46 73.43 72.91 69.20 65.85 69.51 63.66 69.50 71.63 70.36 70.81
59.94 61.08 62.54 63.82 65.11 67.28 71.23 71.41 71.37 70.95 70.73 69.86 69.50 69.76 69.10 67.97 68.97 59.03 59.42 71.38 70.96 70.69 71.28 72.06 73.43 62.06 60.08 58.11 60.87 72.96 71.75 72.69 71.71 72.34 72.49 72.14 72.26 72.81 73.06 72.21 72.29 71.63 71.72
59.03 60.44 61.42 62.43 63.93 66.12 68.32 72.03 71.42 70.91 70.71 70.64 70.54 70.62 70.84 70.54 62.74 58.90 57.86 60.92 67.45 71.69 71.29 72.49 72.27 60.35 57.87 56.78 58.41 61.59 60.71 61.90 71.05 71.08 71.26 70.84 71.21 71.82 72.46 72.86 74.32 73.28 74.01
57.46 58.56 60.12 61.71 63.30 63.87 64.07 67.26 71.83 71.57 70.93 70.76 70.93 70.80 71.20 72.22 71.36 59.71 56.68 57.70 60.30 70.26 72.88 69.44 63.82 58.41 56.06 58.04 56.98 58.66 57.83 66.02 68.11 68.74 69.73 70.00 71.25 71.91 73.11 73.60 74.47 74.98 74.97
55.24 56.18 58.39 60.17 61.00 62.56 64.46 66.52 70.73 72.46 71.21 71.09 71.00 71.13 71.68 72.34 72.46 72.39 67.13 62.60 59.51 63.24 66.55 69.96 67.27 65.36 63.01 66.17 65.23 62.60 64.95 67.23 68.23 68.81 69.48 70.64 71.38 71.34 71.23 72.66 72.64 72.92 72.60
52.94 54.09 56.11 57.69 59.30 60.80 63.27 65.24 68.26 73.26 71.68 72.13 72.12 72.43 71.83 71.57 72.41 67.88 67.84 70.05 69.33 66.59 67.92 71.25 71.98 71.73 71.16 70.53 70.14 70.37 70.16 68.48 67.25 68.60 69.27 69.59 69.57 70.01 70.16 72.05 72.28 72.56 72.34
50.79 52.05 53.02 54.26 56.56 59.75 62.09 64.13 58.96 56.38 54.06 54.97 56.38 67.28 72.60 63.37 58.96 53.70 52.98 53.70 54.43 52.79 66.02 70.34 70.27 70.86 71.09 71.02 70.36 71.36 71.47 69.10 70.37 70.64 70.32 69.66 69.46 69.64 69.97 71.30 71.98 72.29 72.16
49.66 49.92 51.72 52.46 56.64 58.00 60.77 62.72 63.80 64.35 52.79 50.26 49.89 50.07 51.16 63.24 51.34 50.62 50.26 51.16 49.89 53.70 71.08 70.52 70.82 71.18 70.56 71.01 71.23 71.49 71.30 72.45 72.98 71.38 70.53 70.73 70.59 71.04 69.83 70.43 71.32 71.87 71.75
48.59 49.15 50.58 53.53 56.54 57.42 58.66 61.48 63.62 64.92 65.99 71.52 55.67 54.61 50.07 49.89 48.26 49.53 48.99 50.62 59.80 55.78 70.47 71.69 71.79 71.80 71.71 71.57 71.72 71.87 72.12 73.12 72.90 72.48 72.07 72.10 71.66 70.92 70.33 70.12 70.16 71.18 71.69
47.38 49.18 52.32 54.28 55.44 56.86 59.38 60.18 62.90 65.16 66.72 69.49 72.14 56.60 50.96 47.72 49.17 47.72 45.54 69.91 70.05 68.95 67.84 70.69 72.06 73.02 71.95 72.08 72.62 72.54 73.39 73.44 73.29 73.33 72.93 72.30 71.92 71.52 71.03 72.23 71.50 63.31 66.48
47.96 49.56 51.64 53.79 55.04 57.34 58.04 57.90 60.07 62.56 64.57 68.59 70.46 72.48 63.63 59.06 61.39 62.31 60.89 64.68 70.46 71.30 72.10 69.38 68.23 67.71 68.34 69.11 69.90 71.62 72.07 71.82 72.40 72.53 72.31 71.95 71.66 72.00 71.52 71.39 71.36 70.08 68.30
46.75 47.93 51.08 52.37 53.25 53.52 54.28 54.66 56.36 58.73 61.08 61.90 59.88 55.01 47.54 65.67 67.87 66.49 62.86 60.55 62.18 59.11 58.83 57.02 55.96 56.16 57.10 57.23 59.42 61.63 63.50 63.52 62.59 64.00 65.65 65.70 66.65 67.35 69.31 69.08 69.44 68.93 68.98
45.51 46.89 48.90 49.14 49.95 50.58 50.60 51.26 52.68 53.82 55.32 55.40 54.43 53.23 48.81 56.70 55.02 54.13 54.15 54.11 56.36 55.80 55.82 53.07 51.22 51.73 52.73 52.46 52.80 54.67 55.94 56.08 55.86 57.28 59.90 61.93 63.37 65.00 66.50 67.62 68.00 67.61 67.64
44.24 45.62 47.09 46.19 46.55 46.91 47.91 47.95 48.19 49.09 49.16 48.44 48.66 48.22 47.75 46.92 47.16 47.00 45.91 47.01 47.90 48.22 50.07 52.38 49.47 45.06 45.39 47.25 47.28 47.45 49.73 50.24 50.65 53.78 56.84 59.70 61.64 62.02 62.94 64.03 64.10 65.70 67.17
42.36 42.93 43.33 43.50 43.46 43.22 43.59 43.95 44.25 44.05 45.08 44.36 43.68 43.15 42.96 42.63 42.05 41.68 42.07 43.17 43.37 42.90 45.90 43.92 41.97 41.42 41.87 41.80 42.04 41.32 41.17 43.97 49.21 52.38 54.24 54.65 55.52 55.06 57.30 57.64 58.63 57.81 59.29
40.88 40.56 40.67 40.48 40.77 41.02 41.39 41.56 41.56 41.33 42.45 43.01 42.27 41.56 41.08 41.39 40.79 40.77 40.97 41.28 40.98 40.12 39.86 40.40 42.61 40.73 40.34 40.50 40.71 40.35 36.14 35.95 40.49 41.30 50.66 50.90 49.81 50.89 50.72 51.61 53.11 53.38 53.66
39.71 39.55 39.69 39.71 39.22 39.09 39.15 39.74 39.94 40.05 39.40 39.79 40.14 39.99 40.25 39.68 39.69 39.48 39.33 39.84 38.84 38.43 39.12 39.92 39.36 39.33 39.12 39.38 35.91 34.40 32.85 34.69 38.64 36.63 46.40 46.82 47.01 46.78 47.23 46.76 47.36 48.57 49.81

GFSGL_sfc_wetblb_087.txt.gz
Wetbulb
73.06 74.35 74.59 73.66 73.39 73.66 73.25 74.41 75.49 76.55 76.88 76.65 77.07 77.19 77.12 77.24 77.65 77.08 76.84 76.74 76.17 76.58 76.68 76.55 76.47 77.15 75.13 75.23 75.54 75.47 74.76 74.02 71.56 73.04 75.45 76.49 77.56 78.65 78.52 79.20 78.29 78.11 77.13
73.72 74.41 73.39 74.05 73.47 72.95 72.95 73.68 74.71 75.29 76.76 76.93 77.02 76.84 76.99 77.10 77.52 77.14 76.48 75.86 75.96 75.94 75.96 76.11 75.81 75.67 76.69 76.83 75.64 76.39 75.64 76.03 73.72 73.51 75.57 75.23 76.76 78.34 78.26 78.52 77.65 77.23 78.61
72.59 72.45 73.38 73.33 72.92 72.83 73.22 73.66 73.97 75.09 75.79 76.26 77.01 76.65 76.61 76.63 76.96 77.29 77.18 76.71 76.18 75.81 76.11 76.10 75.99 76.29 75.88 75.69 76.13 75.41 75.24 76.09 75.90 74.34 74.00 75.67 76.15 76.45 76.88 78.25 77.80 78.49 77.51
72.21 72.17 72.89 73.52 74.10 73.03 74.05 73.90 73.41 74.16 74.87 75.68 76.17 76.21 76.66 76.96 76.77 76.68 76.68 76.76 76.68 76.36 76.63 76.67 76.39 76.32 76.40 77.03 76.48 76.80 76.76 75.63 75.95 74.90 74.41 74.35 74.72 76.73 76.56 74.80 74.21 75.85 75.99
71.96 71.83 72.26 73.83 73.99 74.10 74.64 74.67 73.63 73.68 74.24 75.32 75.13 75.05 75.59 75.81 76.24 76.63 76.71 76.55 76.41 76.31 76.60 76.81 76.73 75.60 72.27 73.22 75.47 76.43 77.04 76.06 74.75 74.26 73.37 73.18 73.08 73.03 74.01 74.62 74.31 74.30 76.74
71.84 71.61 72.75 72.78 72.95 73.38 73.70 74.10 74.28 73.90 73.65 74.32 74.06 74.80 74.91 74.31 68.48 67.72 73.94 76.44 76.63 76.56 76.17 76.63 77.10 73.29 72.66 68.11 67.80 68.42 72.64 76.16 75.53 73.84 72.71 72.57 74.97 74.95 74.85 74.61 73.56 72.79 71.30
71.63 72.09 72.37 72.74 72.27 72.85 72.48 73.14 73.56 73.88 74.15 73.51 74.11 74.04 74.76 75.74 64.86 65.48 68.12 76.26 76.60 76.77 76.81 76.66 76.25 76.06 74.01 76.88 70.00 66.70 67.17 66.23 68.58 75.75 74.58 74.88 75.01 75.74 76.40 75.68 75.51 74.57 73.60
70.92 71.32 71.84 72.42 72.20 72.54 72.81 72.10 73.13 72.96 73.54 73.95 73.59 74.25 74.62 74.45 64.30 63.53 66.08 75.48 76.91 77.07 77.19 77.10 76.91 77.15 76.81 76.38 76.54 76.31 76.39 76.65 75.92 74.32 75.17 75.87 76.51 77.38 77.40 77.10 76.17 75.83 75.82
66.49 68.28 68.10 70.94 72.07 72.54 72.05 72.46 72.39 72.01 72.60 72.90 73.49 74.23 74.11 74.41 62.50 62.18 65.70 73.89 74.61 76.70 76.71 77.10 77.16 77.33 71.41 65.56 75.62 75.56 75.85 76.02 70.81 66.45 66.56 66.45 66.45 65.45 68.86 74.84 73.49 72.86 71.72
62.20 63.42 64.50 65.77 66.54 70.29 72.93 73.31 73.51 72.74 71.93 72.15 72.34 73.75 70.25 74.53 64.35 60.27 64.55 72.46 73.16 73.18 76.48 77.82 66.76 73.58 65.77 62.16 74.37 75.31 74.45 74.93 75.37 75.82 76.21 71.80 67.37 72.22 64.07 72.96 74.66 72.68 72.43
61.89 63.25 64.17 64.66 65.41 66.37 69.28 70.88 72.33 72.85 72.59 72.25 72.44 73.44 73.71 72.91 73.39 59.55 58.51 73.08 72.71 72.57 72.55 73.08 73.97 62.76 60.99 58.59 62.00 76.35 74.54 75.05 73.21 75.63 75.29 75.32 76.01 76.43 76.27 76.00 76.16 75.00 73.28
59.07 62.89 65.31 65.01 66.91 68.54 69.32 70.44 71.38 71.72 71.42 71.68 71.80 72.21 73.09 74.43 64.77 61.87 57.13 59.42 68.37 73.53 73.45 73.61 73.59 59.59 57.74 57.28 59.74 63.73 61.60 64.06 74.65 74.02 73.79 73.43 73.70 74.42 75.32 76.39 77.69 77.21 76.52
56.74 58.16 61.16 64.63 65.60 66.91 67.25 68.86 69.93 69.95 70.76 70.55 70.77 70.54 72.23 74.49 74.49 59.40 56.73 56.73 58.91 70.57 74.26 71.09 63.74 57.05 54.99 58.31 57.26 59.26 58.61 71.20 72.81 72.89 72.74 72.65 73.73 75.17 76.66 76.48 76.96 77.69 77.69
54.74 55.28 57.25 59.75 62.20 64.29 65.32 67.27 67.96 69.03 69.86 70.24 70.26 70.81 71.60 73.29 74.59 74.97 70.81 66.15 59.54 63.34 67.40 71.90 69.12 66.64 64.81 68.64 69.13 64.58 70.12 73.44 73.25 73.05 73.05 73.75 74.83 75.12 74.63 75.53 75.20 75.29 74.70
54.72 53.23 55.16 56.99 58.58 60.85 62.99 64.04 66.93 69.32 66.02 70.26 71.41 72.00 72.12 73.27 74.88 69.89 70.65 73.89 72.70 68.98 69.78 73.17 73.42 73.06 72.82 73.20 73.38 73.88 74.39 74.32 73.10 73.63 73.88 73.82 73.95 74.39 74.53 75.38 75.13 74.67 73.58
54.27 54.15 52.61 53.45 56.51 58.62 60.66 61.91 55.68 54.31 54.20 50.96 49.51 60.87 74.02 65.62 58.00 54.04 54.58 53.86 53.50 55.13 69.39 72.54 72.20 71.50 71.58 71.73 72.32 72.25 72.44 70.81 74.06 74.62 74.10 74.10 73.51 73.84 74.20 74.77 74.74 74.01 73.82
53.46 53.82 53.84 53.27 55.39 56.87 59.35 59.23 60.08 61.00 53.68 51.86 49.33 48.24 51.86 60.70 51.50 50.78 50.05 51.32 51.86 55.99 70.44 71.96 71.96 71.96 72.02 72.20 72.05 72.37 71.80 72.90 73.89 74.43 73.97 73.99 74.46 74.61 73.69 74.00 73.89 72.59 71.78
52.42 49.53 52.11 54.43 56.03 56.90 58.16 59.04 60.08 60.36 61.87 63.37 60.64 53.13 51.32 51.50 52.23 48.60 50.05 52.75 60.61 57.22 71.32 72.23 71.61 72.96 73.31 73.11 72.99 72.37 72.72 72.72 73.44 73.76 74.11 75.21 75.49 75.10 73.87 72.61 72.47 72.33 71.35
51.15 51.50 52.81 53.91 55.23 55.20 57.10 58.04 59.70 59.66 60.51 62.81 65.89 64.01 56.38 50.41 48.06 50.05 46.79 68.71 72.09 70.45 68.43 71.74 73.41 74.43 74.50 75.40 75.22 73.80 73.29 73.10 73.05 73.44 73.98 74.15 74.13 73.95 72.74 72.85 72.84 63.96 66.36
50.64 49.85 49.95 52.12 54.09 54.99 56.01 56.47 57.80 58.46 58.99 60.46 62.15 67.98 65.11 59.01 63.66 64.00 61.64 65.88 72.34 74.23 74.87 71.87 72.36 72.74 74.03 73.87 74.45 75.17 73.75 72.68 73.47 74.04 74.43 74.56 74.85 74.61 73.02 73.34 73.60 72.64 72.57
48.39 48.73 48.94 49.78 51.69 53.62 54.48 54.17 55.52 55.30 56.06 57.48 59.71 56.72 46.95 55.57 66.51 68.38 67.87 66.24 66.89 67.87 64.87 66.80 64.01 61.21 58.71 59.21 59.53 61.28 63.89 65.11 64.39 66.06 68.63 69.56 68.97 69.40 70.03 70.55 70.91 72.07 72.46
47.39 46.45 47.85 48.42 50.29 51.38 51.78 51.89 52.29 52.73 53.42 54.40 55.32 54.29 46.23 58.35 57.86 56.30 57.28 58.09 58.65 59.83 59.05 58.13 55.87 55.65 57.58 58.61 59.05 59.63 59.75 58.37 57.12 58.12 61.22 63.28 64.95 65.76 66.43 66.74 67.06 67.96 68.73
46.17 45.91 46.42 47.67 48.82 48.25 48.11 49.36 49.07 48.73 49.72 49.28 48.68 48.54 48.65 49.75 49.52 48.87 48.05 48.15 46.72 48.11 48.54 50.48 51.58 51.17 49.83 49.32 51.10 52.08 53.53 53.01 53.57 55.76 58.36 60.75 61.24 62.00 63.53 64.08 63.69 64.37 66.96
43.42 43.72 44.42 45.55 45.71 45.58 44.97 45.52 45.04 44.19 45.70 45.12 44.53 44.06 43.94 43.96 44.54 43.21 43.65 43.04 43.24 43.91 43.55 44.40 46.24 47.30 47.87 47.22 46.28 45.44 46.24 48.43 53.51 55.36 57.91 58.87 56.38 56.69 57.46 56.95 55.76 55.09 55.28
41.02 41.58 41.90 42.27 42.66 42.66 42.63 42.68 42.09 42.19 42.56 42.87 42.04 41.82 41.57 41.62 41.40 42.29 42.29 43.81 41.80 41.49 41.29 41.47 41.70 41.34 43.04 44.19 44.73 44.21 36.95 36.89 45.84 45.03 53.19 53.28 52.57 52.63 53.68 53.85 52.48 52.31 52.24
40.33 40.02 40.29 40.60 40.38 40.39 40.09 40.34 40.16 40.42 40.31 40.31 40.18 40.37 40.32 39.90 39.91 39.68 39.65 39.08 39.04 38.77 39.16 39.21 39.03 38.65 38.43 38.18 36.30 33.89 32.52 35.46 41.32 37.15 49.77 49.39 49.66 49.61 49.01 49.20 48.76 48.96 48.53

GFSGL_sfc_wetblb_093.txt.gz
Wetbulb
77.52 78.45 78.64 77.82 77.72 78.28 77.56 77.75 77.85 78.04 79.00 77.59 75.40 78.68 77.77 77.65 78.42 78.69 78.94 78.20 77.27 78.23 77.96 77.56 77.82 79.88 76.07 74.95 74.59 74.03 73.47 73.36 70.96 72.31 74.48 77.52 79.39 80.31 80.11 80.77 79.03 79.81 77.05
77.30 77.97 77.63 77.78 78.13 77.41 77.49 77.65 78.17 78.33 79.10 78.39 78.45 78.33 78.26 78.15 79.61 77.76 76.84 76.12 76.89 76.25 76.50 77.66 76.85 75.68 79.68 79.64 75.71 78.95 76.36 77.56 74.00 75.55 75.56 74.46 78.26 81.26 81.50 81.64 78.50 77.19 78.00
76.58 76.81 77.07 77.34 77.34 77.56 78.10 78.57 78.55 79.20 78.84 77.43 78.99 78.99 78.60 77.94 77.88 78.86 78.45 77.24 76.43 76.28 76.86 76.96 76.26 77.20 78.41 76.79 78.47 75.92 75.04 75.84 75.99 73.68 73.71 74.94 75.60 76.38 77.47 80.29 80.88 79.47 77.93
75.38 76.14 77.38 77.27 77.88 77.51 78.61 79.43 78.79 79.54 79.15 78.82 79.22 79.37 78.94 78.64 78.58 77.64 78.41 78.80 78.39 77.15 77.40 77.65 77.08 77.10 78.16 79.04 77.73 78.92 77.95 76.56 76.01 73.94 73.29 73.50 74.53 78.46 76.64 75.12 74.60 75.05 75.01
72.81 74.74 76.37 78.26 78.48 78.58 79.17 79.29 78.55 79.12 78.86 79.46 79.10 78.64 78.51 77.96 76.96 78.84 78.32 78.58 79.30 78.63 78.66 78.43 78.08 76.86 73.13 74.77 75.35 78.38 79.42 76.40 74.09 73.35 72.74 73.00 73.23 74.23 75.31 74.33 73.68 74.27 77.03
71.41 71.86 75.13 75.32 78.14 78.03 78.20 78.26 79.15 78.86 79.41 79.38 78.99 78.21 77.68 75.07 69.42 68.09 75.28 77.95 78.93 79.38 78.87 79.53 80.02 75.68 73.87 69.76 68.98 69.19 72.73 76.64 78.27 73.21 71.32 71.23 76.82 74.73 73.45 72.62 73.05 71.85 70.46
68.66 67.44 68.46 75.10 74.79 75.89 77.24 77.32 78.24 78.59 78.45 79.05 78.70 78.56 78.26 78.12 66.06 65.31 68.54 77.17 78.28 79.09 79.76 79.81 78.36 76.58 75.52 78.84 70.75 68.42 68.95 67.31 68.18 76.17 76.42 76.20 76.27 77.86 78.36 78.13 76.21 75.82 73.54
64.61 65.24 66.44 67.88 70.82 73.84 75.28 75.65 76.50 76.86 77.67 78.39 78.16 78.60 78.73 78.11 65.98 63.17 66.24 77.49 77.70 78.56 79.24 79.47 79.61 79.39 79.71 78.64 78.94 78.16 77.57 77.43 77.07 74.87 75.75 76.65 78.00 78.95 79.17 78.26 78.35 78.87 77.82
63.53 63.51 64.36 67.04 68.17 68.95 72.00 73.86 74.39 75.46 76.11 76.28 77.00 77.42 78.53 78.61 64.18 62.67 65.64 74.03 74.87 77.31 78.73 79.49 79.70 80.22 73.51 67.61 77.85 78.81 78.84 78.85 72.14 68.65 69.99 69.74 69.51 67.72 70.38 75.53 73.33 71.72 70.49
63.69 64.15 64.12 64.48 66.13 68.65 69.74 70.38 73.90 76.59 75.89 75.24 75.13 76.66 72.93 77.89 67.44 60.99 64.26 74.30 74.11 73.85 75.59 77.52 69.24 74.62 67.78 64.10 77.66 78.15 77.44 77.81 78.26 77.07 77.20 72.70 69.51 73.46 66.22 74.05 74.80 72.58 71.81
63.50 63.73 65.13 65.69 65.11 65.44 68.82 71.50 72.67 73.97 75.58 75.69 75.95 77.20 77.36 76.18 77.16 60.63 59.09 75.20 74.71 74.49 74.31 74.44 75.11 64.69 62.65 61.29 61.94 78.55 76.96 77.87 76.27 77.29 76.79 76.14 75.71 76.69 78.00 78.16 78.27 75.72 73.48
63.75 63.37 63.61 64.83 64.73 64.53 67.17 69.31 71.05 72.39 72.70 73.52 75.38 74.45 76.07 77.48 67.40 64.88 58.31 60.01 70.38 74.98 75.18 75.27 75.37 59.73 58.99 59.81 62.43 66.14 64.32 66.49 76.74 75.39 74.37 73.52 73.04 73.37 74.77 76.97 80.06 79.88 78.83
61.71 63.33 63.17 63.70 63.85 64.33 64.11 65.28 66.57 70.78 70.22 70.87 72.46 73.70 73.95 74.69 74.27 63.17 59.66 57.53 59.29 70.28 75.66 72.40 59.76 56.75 53.31 57.73 58.14 61.03 61.10 72.98 74.64 74.02 73.67 73.84 74.49 74.31 76.20 77.83 80.34 82.68 81.77
60.14 61.86 63.30 62.18 62.04 62.51 62.82 63.17 63.34 65.21 67.24 67.97 68.37 69.38 73.12 73.98 74.56 74.41 76.45 70.87 61.08 66.05 67.74 72.09 69.99 65.50 59.92 65.54 69.76 64.98 70.28 74.26 74.07 74.20 74.27 75.30 75.72 74.64 74.36 75.35 74.70 74.65 74.97
59.87 60.11 61.78 61.94 61.08 61.39 62.10 61.68 61.97 64.18 61.73 63.10 64.85 65.31 65.73 68.07 70.72 58.97 58.79 65.57 67.68 68.42 66.34 73.79 74.08 73.58 73.39 74.58 75.66 76.18 76.48 75.37 74.01 74.49 75.05 75.17 75.00 74.56 74.19 75.33 75.08 74.52 73.54
58.36 59.25 59.95 60.61 60.53 59.94 59.49 59.84 54.19 51.82 49.62 48.24 48.05 55.24 64.54 57.42 52.92 49.93 48.12 49.39 49.75 49.75 67.23 71.08 72.48 74.13 74.55 74.90 75.25 75.65 77.03 74.36 76.56 76.20 75.46 75.25 74.95 74.81 74.86 75.35 75.57 74.76 73.63
56.66 57.02 58.81 57.72 59.53 59.42 58.61 57.77 57.52 58.34 50.28 48.73 46.93 47.21 46.67 50.21 47.03 45.58 45.94 45.94 46.12 49.39 66.98 72.62 73.25 72.77 74.57 75.43 76.12 76.38 76.29 76.81 77.30 76.24 76.52 76.62 76.23 75.99 74.34 74.88 75.05 75.07 74.07
53.80 51.44 54.85 56.75 57.72 58.38 58.60 58.94 58.97 58.22 58.54 60.34 53.03 52.22 47.57 46.12 44.86 45.40 45.58 45.66 62.25 58.17 67.25 72.23 74.47 73.53 73.98 75.22 75.48 75.91 77.29 76.74 76.64 76.11 75.40 76.11 76.21 75.02 74.31 74.22 74.40 73.96 73.67
51.07 51.15 53.80 55.68 57.46 57.41 58.51 58.69 58.78 58.86 58.42 59.10 61.08 56.68 56.01 46.49 47.56 46.67 45.74 62.36 66.89 68.59 68.27 69.39 72.43 73.26 73.34 75.00 75.77 76.94 77.19 77.31 75.98 74.61 74.63 75.05 75.55 75.86 75.02 74.42 73.98 64.39 67.94
49.09 51.08 52.34 53.27 54.96 55.87 56.68 56.90 57.52 58.72 59.63 59.31 59.87 60.35 62.24 61.68 62.06 62.19 63.90 66.14 65.26 66.08 68.27 70.79 69.94 71.74 72.85 74.46 75.44 76.45 76.38 76.32 75.74 75.06 74.00 75.11 75.19 75.62 74.85 74.62 75.40 74.64 75.77
47.30 48.21 50.04 51.27 52.66 54.91 55.92 55.92 56.69 57.38 57.89 59.15 59.52 58.92 44.77 61.01 60.24 59.93 60.84 61.67 61.00 60.72 63.13 66.08 66.66 65.37 70.82 73.33 73.36 73.80 74.75 74.05 72.92 73.23 74.36 74.95 75.09 73.04 74.06 74.35 74.20 73.85 74.14
46.02 46.19 46.85 47.06 48.55 49.62 52.05 54.71 55.89 56.74 56.98 57.84 59.19 58.81 47.86 58.54 58.03 57.91 57.02 56.74 55.54 55.02 53.61 55.56 59.67 58.53 57.22 58.97 61.81 63.80 65.17 67.09 65.69 65.56 65.51 66.43 67.29 67.61 68.45 68.40 68.24 68.58 69.28
44.57 44.26 45.17 45.62 46.23 47.29 48.84 50.05 51.19 53.08 54.60 56.67 55.92 55.39 55.90 55.74 54.62 53.44 52.69 51.11 49.98 48.73 50.67 52.05 53.05 53.54 53.69 54.31 55.44 55.29 59.27 62.68 62.37 62.42 62.55 64.13 64.85 66.19 66.53 66.61 66.81 66.56 66.49
42.77 42.22 42.38 43.11 44.16 44.21 44.84 45.73 47.59 47.00 49.68 51.47 51.12 51.71 52.37 52.59 51.02 49.08 47.36 46.80 46.10 46.01 46.55 46.89 47.95 48.85 50.29 51.26 51.18 50.53 50.54 52.75 57.02 60.48 61.91 62.92 63.61 60.56 64.59 63.24 61.63 61.10 61.24
40.28 39.98 40.37 41.09 41.37 41.55 42.25 43.44 45.25 46.87 47.68 48.94 49.02 48.67 47.93 47.44 45.77 44.82 44.37 43.64 42.93 42.28 41.51 43.35 43.83 42.69 42.84 42.69 43.97 45.25 40.67 38.08 51.92 49.39 60.17 60.57 60.38 59.90 58.28 58.37 57.54 57.47 58.21
39.43 38.46 38.63 39.29 39.57 40.22 40.75 41.30 42.24 43.99 44.44 44.71 44.58 44.22 43.86 43.22 42.35 41.49 40.76 40.19 39.37 38.69 38.95 39.84 39.78 39.88 40.34 39.39 38.63 37.64 35.84 38.17 46.64 42.68 54.81 55.31 55.76 55.36 56.02 56.25 56.65 55.89 55.94

GFSGL_sfc_wetblb_096.txt.gz
Wetbulb
77.25 77.42 77.05 77.58 78.20 78.47 78.28 78.53 78.93 78.12 76.69 73.68 73.20 74.34 77.28 77.31 77.88 78.52 77.46 76.04 75.59 76.40 77.46 76.76 77.04 78.07 76.36 76.37 74.98 75.36 74.34 74.03 72.45 73.53 74.78 76.80 76.95 78.03 77.77 78.90 79.12 78.11 77.14
77.23 77.96 77.58 77.81 77.89 77.95 77.80 78.36 78.51 78.46 77.93 75.86 73.96 75.33 76.50 77.93 77.98 77.69 77.15 76.49 75.60 75.74 76.53 76.00 76.06 75.86 77.55 77.64 76.15 75.51 75.31 75.83 73.87 71.91 73.52 72.90 73.25 74.59 78.95 78.46 78.79 77.53 76.53
75.85 77.29 76.97 77.35 77.41 77.39 78.02 78.31 78.78 78.38 78.40 77.92 78.31 77.90 77.58 77.59 77.73 78.27 77.80 77.61 76.87 76.28 76.98 76.91 76.51 77.34 77.04 75.84 77.16 75.96 75.40 76.47 75.85 74.18 72.97 75.51 74.81 75.60 74.82 76.76 78.34 77.97 78.53
71.95 72.59 75.81 76.70 77.33 77.51 78.14 78.33 78.56 78.92 78.08 78.03 77.25 77.69 78.60 77.94 77.58 77.54 76.82 77.20 77.25 76.77 76.49 76.96 77.23 76.54 76.76 77.10 76.71 76.56 76.26 75.60 75.02 74.46 72.81 72.60 73.07 74.25 75.81 75.10 73.78 73.31 73.04
70.71 70.82 72.24 71.58 76.52 77.33 78.23 78.77 78.42 78.59 78.50 78.34 77.96 77.90 77.91 77.77 76.97 77.44 77.36 76.90 76.61 77.00 77.64 77.83 77.41 76.88 74.62 75.36 75.91 76.28 76.06 75.46 73.90 72.96 72.97 73.33 72.52 72.66 72.53 73.52 72.06 73.72 72.84
68.25 67.49 70.08 72.25 72.80 76.51 77.59 78.22 78.72 78.92 78.37 78.32 77.76 77.36 76.89 76.81 69.95 68.24 74.88 76.52 77.35 76.64 76.75 77.78 78.13 75.98 73.65 69.69 69.33 69.20 72.55 75.59 74.30 74.79 73.32 70.51 71.80 73.87 73.64 73.37 72.45 70.26 69.01
65.29 65.78 66.50 70.01 71.15 71.61 74.85 76.38 77.70 77.72 78.02 77.60 77.75 77.46 77.00 77.01 67.94 64.76 68.01 76.39 76.63 76.87 76.94 77.07 77.67 76.55 73.78 77.05 69.39 67.85 68.24 67.11 69.03 72.45 72.00 72.81 73.25 74.34 75.24 75.03 74.23 73.93 72.68
65.03 64.68 64.45 65.61 68.23 69.65 70.41 72.47 74.62 75.86 75.84 76.14 76.66 76.84 77.13 77.25 67.43 65.27 65.39 73.78 75.82 76.20 77.45 77.29 76.86 76.39 76.81 77.22 77.36 76.22 74.77 75.10 73.55 71.46 71.86 72.18 72.93 74.22 75.46 75.25 74.79 75.01 75.30
64.45 64.25 64.28 64.83 64.16 67.19 69.31 70.06 71.20 72.87 74.17 75.53 75.57 76.06 76.43 76.79 65.33 63.98 65.05 72.93 73.56 75.23 76.16 76.54 76.92 77.59 72.28 68.39 75.52 75.86 76.81 77.12 72.61 68.86 69.30 68.84 68.66 67.99 70.83 75.22 73.05 71.27 69.81
63.39 64.37 65.55 65.65 64.88 64.11 66.20 67.89 70.86 72.41 73.56 74.20 74.30 76.33 72.85 76.47 67.34 62.09 63.66 73.18 73.14 72.62 73.53 75.33 68.26 72.74 67.59 63.87 74.11 75.09 74.00 74.60 76.21 76.74 74.14 70.03 68.18 70.91 66.33 72.54 74.26 71.49 70.75
63.06 64.78 65.11 65.61 66.06 67.40 67.70 68.42 69.72 69.28 71.12 73.74 73.56 74.85 75.62 75.07 75.56 61.24 60.10 74.38 74.38 73.78 73.67 73.37 73.73 64.48 61.86 60.91 61.34 75.89 74.59 74.96 74.04 75.52 75.85 75.52 74.96 75.46 75.55 73.77 73.51 72.73 71.33
62.96 62.16 64.62 65.39 64.35 63.64 66.18 66.27 67.08 68.37 69.22 71.48 72.59 72.43 73.80 74.68 67.78 65.83 58.27 59.58 68.87 74.12 74.38 74.69 74.51 60.32 56.27 57.95 61.23 64.30 63.65 66.04 75.35 75.05 74.39 73.61 73.11 73.18 73.59 73.53 75.50 75.90 75.46
60.29 62.08 62.29 64.59 65.13 64.96 64.52 63.69 64.78 66.82 68.26 67.87 68.87 71.23 73.10 74.27 74.49 62.36 60.96 59.41 59.82 65.49 73.24 70.31 62.17 60.00 56.90 57.53 56.19 58.17 58.57 69.30 72.19 72.32 72.70 73.03 73.58 73.84 73.63 73.25 73.55 78.45 77.37
59.03 60.22 61.75 61.80 63.43 64.38 63.00 62.71 61.58 62.05 63.36 65.39 64.58 65.03 68.54 67.77 70.54 66.37 68.06 69.38 63.82 64.57 64.96 69.53 67.58 65.49 62.30 65.16 65.83 68.37 65.04 69.33 70.70 71.22 71.79 72.87 73.28 73.16 72.94 73.55 71.90 71.06 74.46
56.75 58.45 59.78 60.57 61.26 62.99 63.63 62.31 62.09 64.19 60.10 60.41 60.88 62.47 62.64 63.53 67.09 57.44 56.37 63.04 62.64 60.50 58.28 66.91 69.70 71.32 72.47 72.88 73.06 72.89 73.80 71.04 70.28 71.84 72.04 72.08 72.54 73.15 72.90 73.65 72.67 71.51 71.15
52.80 55.43 56.68 57.36 59.18 60.39 61.22 61.40 56.19 51.02 49.89 47.68 47.45 53.33 62.16 55.87 52.35 48.41 45.92 46.64 49.72 51.17 58.30 64.69 67.83 70.04 71.35 72.36 73.25 73.05 73.14 72.00 73.64 73.03 72.80 72.56 72.16 72.51 72.80 73.39 72.70 71.40 70.51
51.61 52.32 53.95 54.08 55.41 56.23 57.65 59.01 59.39 58.91 52.03 47.53 45.98 46.22 46.24 51.20 48.00 45.19 44.83 45.19 45.74 48.82 58.70 63.42 67.67 70.27 70.74 71.64 72.55 74.22 73.74 74.44 74.98 74.58 73.89 73.94 73.77 73.13 71.92 72.28 72.13 72.24 71.61
49.37 49.51 51.45 53.32 54.40 55.60 56.77 57.69 58.60 58.01 58.30 59.42 54.61 49.09 47.04 44.09 44.10 43.74 44.47 47.37 62.28 55.38 61.67 64.40 66.48 70.06 71.49 72.70 73.52 73.45 73.34 74.15 74.39 72.11 70.91 72.44 71.97 73.35 73.05 72.25 72.48 71.88 71.58
49.14 49.58 49.72 50.14 51.49 52.77 53.96 55.42 56.72 57.63 57.95 58.46 59.77 56.17 55.07 43.92 44.09 45.19 44.83 62.49 62.92 63.73 65.37 67.84 68.64 69.77 71.60 72.72 72.98 72.99 73.21 73.44 72.69 73.58 73.63 73.67 73.83 73.19 72.15 72.24 71.80 62.77 65.57
48.43 49.07 49.55 48.66 49.34 49.92 51.55 53.51 54.40 55.65 56.52 57.20 58.00 59.26 60.30 56.96 61.25 63.33 63.39 63.12 63.09 62.45 62.77 63.56 65.42 67.01 68.66 71.28 72.50 73.07 72.64 71.47 71.94 71.83 72.31 73.40 73.47 72.57 71.99 71.74 71.99 71.34 71.20
46.63 47.15 47.90 47.93 48.03 48.10 48.35 48.82 50.74 51.59 50.97 55.30 56.81 57.84 45.47 60.56 60.78 60.99 61.12 60.86 61.02 59.40 58.33 58.31 57.60 59.30 61.37 62.60 63.84 69.03 70.41 69.60 68.58 67.85 68.60 67.92 67.72 65.03 64.78 63.52 65.06 67.07 70.77
45.51 44.96 45.06 45.04 45.37 45.88 46.92 47.43 47.99 47.94 49.89 51.57 53.50 56.59 46.03 56.91 59.75 59.42 58.54 56.68 56.06 55.76 54.66 53.93 53.69 55.69 56.27 55.83 56.67 58.88 61.81 64.47 67.24 67.09 66.07 66.20 66.54 66.64 65.50 65.09 65.07 65.80 66.37
43.96 42.70 42.26 42.57 42.74 43.91 44.54 45.33 46.09 46.13 46.88 48.58 50.92 52.34 52.50 53.80 54.97 55.15 54.57 54.06 52.50 50.92 50.47 50.05 50.04 51.22 53.77 53.71 53.36 53.42 53.96 56.35 58.08 59.73 61.70 64.46 65.80 66.04 65.78 65.26 65.47 66.01 66.45
42.36 40.63 40.06 40.00 39.96 40.29 41.06 42.05 43.00 42.67 44.10 45.20 47.06 48.90 50.89 50.89 52.49 52.70 51.40 50.74 48.55 47.46 46.76 46.04 46.68 46.31 46.38 46.83 48.68 49.65 50.16 49.10 50.62 56.13 59.60 61.18 63.49 60.68 64.67 64.95 62.71 61.95 61.30
41.62 40.43 39.03 38.78 38.22 38.29 39.24 39.69 40.61 41.38 42.29 43.24 44.85 47.12 47.96 48.96 48.57 48.67 47.57 45.88 44.54 43.17 42.52 41.76 42.60 42.37 42.01 41.64 42.33 43.25 40.43 36.33 46.81 45.56 58.06 59.75 60.71 60.38 59.84 59.09 58.27 58.20 58.36
41.42 41.02 39.46 38.36 37.67 37.78 37.03 37.73 38.18 39.93 40.57 41.80 43.47 45.01 45.58 45.40 45.16 44.17 43.11 41.88 41.26 39.93 39.67 39.88 39.74 39.40 39.82 39.51 38.26 35.10 31.94 34.11 44.00 39.21 54.38 55.78 55.28 55.18 55.54 55.55 55.51 54.98 55.02

GFSGL_sfc_wetblb_102.txt.gz
Wetbulb
70.76 71.92 72.32 73.01 73.30 72.59 72.32 72.17 71.50 71.37 71.79 71.72 71.44 71.05 72.17 72.43 72.16 71.81 70.52 71.00 71.19 70.29 70.38 70.77 70.34 70.69 70.19 71.80 71.56 69.43 69.06 68.41 64.91 66.42 70.24 70.40 70.47 69.68 70.88 70.80 71.70 73.29 74.87
70.83 71.35 70.71 71.21 73.32 72.56 72.29 73.13 72.77 70.86 70.52 70.40 70.16 70.64 71.50 72.04 72.14 71.59 70.54 72.10 71.33 70.35 70.48 70.07 70.22 71.56 69.87 71.01 70.51 69.51 70.28 69.48 68.54 67.05 68.05 69.18 69.11 70.33 70.21 69.93 72.35 74.83 74.00
70.05 69.35 68.85 69.06 71.13 71.39 72.42 72.83 73.09 71.52 70.26 69.98 68.78 69.78 70.38 71.78 72.55 72.31 72.04 71.61 71.14 70.90 70.36 69.91 70.30 70.08 69.26 69.68 70.11 69.35 69.90 70.49 70.53 69.19 68.31 69.61 69.15 69.47 69.76 70.21 70.40 70.17 71.62
70.10 69.49 68.22 68.36 70.26 69.80 71.07 71.37 72.18 72.79 71.28 71.00 70.58 69.85 69.33 69.46 72.06 72.96 72.71 72.23 72.49 72.08 70.98 70.56 70.83 71.07 70.19 69.79 70.21 69.89 69.75 69.06 68.69 68.54 68.00 68.07 68.71 69.96 69.68 68.89 69.16 68.61 69.47
68.38 68.74 68.95 69.75 70.48 68.65 69.03 70.03 72.15 72.57 73.40 71.96 71.97 72.14 72.28 72.30 73.37 72.46 72.79 72.18 71.36 71.46 72.53 72.48 72.53 72.57 71.05 70.18 71.21 70.64 70.37 69.69 69.12 68.58 68.34 68.25 68.65 67.88 67.82 69.19 68.18 68.31 68.38
65.91 67.21 70.28 70.07 69.06 68.50 68.68 68.92 70.50 71.75 72.76 73.22 72.51 73.12 72.71 74.16 70.22 68.32 71.89 72.39 71.67 71.08 70.96 71.81 72.83 72.43 71.66 69.47 68.80 69.05 70.72 70.17 69.29 68.77 68.00 67.37 67.37 67.42 67.98 68.00 66.81 66.02 65.02
62.61 63.83 65.89 68.25 68.81 69.76 69.42 69.71 69.98 69.51 69.83 70.25 72.44 72.15 71.95 72.90 67.24 66.18 67.21 72.07 72.55 72.70 72.17 71.95 71.73 73.75 71.53 73.18 69.98 66.79 66.90 66.92 68.32 69.32 67.29 66.80 66.25 66.81 66.45 65.43 65.69 66.61 66.59
60.88 61.84 63.15 63.33 64.36 66.61 66.97 67.62 68.74 69.92 70.21 70.60 70.93 70.77 71.65 73.23 66.77 64.67 65.99 68.21 68.68 70.95 72.26 72.46 72.04 72.26 71.58 72.10 72.17 72.11 72.41 71.23 68.68 68.45 69.12 70.20 68.87 70.05 66.88 67.69 66.55 67.83 69.57
57.06 57.75 60.07 60.75 61.60 63.79 64.26 64.17 66.54 68.11 68.43 69.60 71.36 70.98 70.12 70.48 64.78 62.70 64.74 68.50 68.89 68.91 70.28 72.06 72.92 72.66 68.72 65.03 70.48 70.54 70.69 71.50 70.13 65.05 65.55 65.37 65.43 65.34 67.17 68.60 68.42 67.61 68.57
54.61 55.99 57.33 58.12 59.43 59.02 60.44 62.41 63.50 63.72 66.27 68.52 68.40 70.69 69.08 71.11 64.48 61.20 62.70 69.22 68.88 69.93 69.98 70.27 65.58 69.97 65.05 63.41 70.35 71.25 70.72 71.46 71.49 71.81 71.58 66.94 65.45 67.57 64.61 67.96 70.42 68.18 68.34
54.70 55.31 55.91 56.93 56.96 58.67 58.30 58.74 58.03 58.43 61.07 62.59 65.33 69.21 68.96 67.54 68.90 60.15 59.79 68.09 70.32 70.46 70.31 70.92 70.47 62.06 57.75 57.41 58.90 70.25 70.23 68.93 68.78 70.05 71.16 72.01 71.64 71.41 71.20 70.01 69.66 70.38 69.41
52.29 52.94 54.31 55.25 56.76 58.16 57.68 58.28 56.57 56.52 55.72 58.18 63.30 61.85 65.98 67.01 58.86 57.23 56.53 58.16 61.38 68.24 69.42 70.32 67.98 56.53 54.35 55.44 58.46 58.59 57.70 59.27 65.03 66.77 67.88 68.89 70.34 71.39 72.57 72.94 72.31 71.15 72.21
49.30 49.81 51.26 53.33 53.33 53.94 54.94 56.12 56.53 55.71 53.94 54.99 54.93 55.25 56.48 62.12 65.89 58.78 57.80 57.98 58.34 64.21 67.05 64.14 60.15 55.98 56.71 61.12 60.20 57.39 57.27 62.89 64.01 64.48 66.40 67.80 69.41 70.77 71.45 71.68 71.32 71.81 72.24
47.26 47.90 49.05 49.17 49.88 50.86 52.55 53.19 52.76 52.93 53.38 53.80 52.77 51.60 52.19 54.67 56.95 60.09 63.94 62.74 60.56 62.69 62.55 62.88 60.63 58.74 57.33 60.03 62.47 65.10 65.89 67.07 66.70 67.18 68.44 69.20 69.36 68.70 69.63 70.42 70.28 70.97 70.15
45.08 45.62 45.58 46.45 46.80 48.75 49.81 49.92 51.38 51.67 48.99 49.17 51.47 51.33 52.06 53.04 53.67 53.27 54.99 57.82 59.21 56.79 55.76 58.98 61.08 63.20 63.68 64.35 64.53 66.25 68.77 70.18 69.64 68.24 68.65 69.24 69.38 69.42 69.04 69.52 69.44 69.50 68.73
43.06 43.75 43.86 44.41 45.51 46.61 46.93 48.06 48.74 47.94 47.65 45.50 44.99 45.44 51.58 48.86 46.78 44.98 44.02 42.92 44.91 47.10 56.95 58.58 57.45 58.66 59.93 60.92 63.12 64.83 66.48 67.10 69.66 70.89 69.51 69.24 68.91 68.53 68.82 69.02 68.65 67.95 67.91
41.07 41.76 42.27 43.79 43.80 43.48 44.02 44.79 45.09 47.60 47.45 47.16 45.62 45.25 45.64 43.77 43.91 43.58 41.79 41.63 44.62 46.74 55.53 54.84 55.39 56.99 58.88 60.26 61.80 64.04 66.15 68.00 69.96 70.32 70.51 70.93 70.41 69.47 68.38 68.79 69.31 69.65 69.26
40.65 45.06 40.48 40.77 41.30 42.14 42.75 43.67 44.55 43.97 44.91 47.32 47.55 46.27 45.67 43.99 43.58 44.11 41.40 43.85 49.69 48.61 54.49 55.51 56.49 58.98 62.08 61.67 60.25 59.70 59.87 62.03 63.94 65.23 66.97 70.10 70.32 70.03 69.80 69.89 70.10 69.33 68.36
40.39 40.65 40.80 40.13 40.33 42.14 41.36 41.98 42.79 43.13 43.36 43.77 45.55 46.38 46.64 44.55 44.28 44.73 42.39 48.77 52.04 54.82 56.39 56.55 58.06 57.27 55.07 56.27 55.61 55.30 57.41 58.29 58.25 59.57 63.35 66.92 68.65 69.17 69.06 69.33 68.65 59.61 61.88
40.27 44.97 43.56 38.83 38.90 38.87 39.39 39.76 40.22 40.76 41.32 42.00 42.54 43.20 44.53 45.05 45.86 47.39 50.29 54.13 55.12 56.53 55.21 54.25 52.62 51.77 51.91 51.98 52.23 52.98 54.35 54.60 55.75 56.59 58.23 60.71 64.90 67.28 67.77 67.66 66.49 65.78 65.20
38.99 38.06 42.25 37.64 37.31 37.55 37.94 37.68 38.00 38.08 38.56 39.59 40.67 42.59 42.50 43.02 43.52 45.01 48.34 50.94 53.36 53.57 52.58 51.32 48.89 48.40 48.96 50.83 51.14 50.54 51.13 52.09 53.82 54.85 55.79 57.43 60.53 62.82 66.40 67.86 68.11 67.27 65.89
36.65 36.12 36.17 35.41 36.43 36.37 36.33 36.71 36.45 36.47 36.72 37.52 38.52 39.85 40.55 40.78 41.35 41.84 43.43 45.83 50.29 52.66 52.00 50.66 49.27 49.21 47.12 48.15 48.85 49.10 48.40 49.04 50.54 52.15 53.16 54.57 55.15 57.07 60.66 65.31 65.26 64.56 64.64
36.34 35.99 35.71 35.03 35.35 37.33 35.61 35.63 36.63 36.48 36.82 36.85 36.33 36.96 38.86 39.57 39.89 40.41 41.81 44.11 47.28 50.21 48.67 48.58 47.77 46.58 45.30 45.86 47.93 47.70 46.46 46.35 48.11 49.34 49.34 50.20 51.14 53.07 57.05 60.88 64.41 64.72 63.96
36.34 36.06 35.64 35.34 35.59 35.47 36.29 35.41 35.01 35.28 35.14 35.42 35.71 36.35 37.48 38.16 39.25 40.36 41.26 43.14 44.29 46.55 47.18 45.95 44.96 44.67 44.09 44.30 44.72 45.13 45.22 45.02 45.54 45.88 46.06 45.88 46.56 48.60 53.19 57.45 60.86 63.72 64.82
36.49 35.85 35.35 34.82 34.33 34.68 33.97 33.88 34.34 34.67 34.41 34.73 34.79 35.08 35.38 36.01 37.29 39.53 41.11 42.66 44.64 45.65 44.59 44.17 42.68 41.70 41.17 41.42 39.70 39.64 38.99 37.04 37.22 36.97 38.48 40.26 43.45 47.36 51.30 55.39 58.29 61.40 63.67
36.91 36.45 35.42 34.44 33.29 32.65 34.78 34.62 33.19 33.37 34.08 34.78 34.53 34.20 34.04 35.15 36.14 37.19 38.70 40.01 41.88 42.23 42.19 42.12 41.71 41.14 40.48 39.39 38.86 36.95 32.95 31.87 34.29 33.00 36.09 39.26 44.06 48.73 53.41 55.99 57.97 59.88 60.50

GFSGL_sfc_wetblb_105.txt.gz
Wetbulb
69.88 70.65 70.86 71.18 71.49 70.25 69.75 69.24 69.23 70.30 70.59 71.03 71.06 69.77 70.88 71.63 71.74 70.99 70.09 69.94 69.59 69.37 69.21 69.35 69.51 69.32 69.17 70.80 70.72 68.61 68.91 67.31 65.40 66.82 68.40 69.52 69.51 69.27 70.49 70.46 71.62 72.02 72.16
69.82 69.63 69.72 69.84 70.20 70.54 70.52 70.84 72.39 70.59 70.71 71.18 70.85 69.81 70.22 71.45 71.48 71.08 70.57 70.70 69.93 69.91 69.71 69.08 69.27 70.65 69.11 69.04 70.04 68.22 69.27 68.64 67.63 65.65 67.46 68.26 68.86 69.29 69.82 69.46 70.77 71.93 69.73
69.21 67.95 67.66 68.76 68.99 69.24 70.31 70.97 71.43 71.01 69.80 69.88 69.47 69.50 69.50 70.71 71.26 71.44 71.37 70.53 70.47 70.51 70.29 69.46 69.37 69.18 68.41 68.37 68.54 68.57 68.60 69.69 69.05 68.20 67.44 68.42 68.64 68.70 68.82 69.49 69.86 69.07 70.36
68.61 67.46 67.57 67.84 68.09 67.55 68.29 69.66 71.40 71.53 70.13 69.31 69.23 68.58 68.80 69.79 70.95 71.74 71.82 71.40 71.23 71.21 70.97 70.50 69.54 69.24 69.38 69.08 68.60 68.65 68.63 68.28 67.73 67.23 67.12 67.10 67.66 69.19 68.46 67.67 68.48 68.44 68.33
67.82 67.01 67.77 67.97 68.76 68.94 68.38 67.79 69.19 70.65 71.89 70.91 70.45 70.24 69.40 69.48 70.07 69.88 71.62 71.94 71.33 71.28 71.74 72.13 71.56 71.52 70.28 69.42 70.33 69.58 69.31 68.71 68.15 67.46 67.12 66.83 67.23 66.78 66.16 67.50 66.98 66.51 66.61
67.81 68.02 69.01 69.64 68.74 68.13 67.93 67.70 68.02 69.21 69.80 71.06 71.96 71.36 71.15 72.02 68.50 67.05 70.59 71.71 71.62 70.81 70.50 70.58 71.50 71.26 71.07 68.28 67.55 68.12 69.88 69.38 68.47 67.73 67.64 66.89 66.67 66.65 66.67 66.76 65.35 63.92 63.18
62.89 63.29 64.23 68.45 68.40 68.63 68.90 67.68 67.61 69.33 69.60 69.73 70.05 70.61 71.87 71.95 66.43 65.62 67.70 71.93 71.95 71.59 71.08 70.96 71.16 73.06 70.10 72.05 69.53 67.03 66.49 65.89 67.69 70.01 68.29 67.86 66.94 67.21 66.54 64.89 64.42 64.70 64.58
59.37 60.51 61.87 62.85 64.33 65.65 66.11 66.85 67.93 68.81 68.09 69.78 69.96 69.78 70.72 71.63 64.53 62.21 65.04 68.93 69.85 71.00 71.75 71.87 71.73 71.85 71.18 70.84 71.31 70.90 71.17 71.36 69.40 68.09 69.32 70.36 69.11 69.86 67.57 67.72 66.48 65.69 66.85
55.47 56.61 58.51 59.90 61.29 61.61 61.30 62.43 62.81 63.88 66.00 67.14 68.06 68.29 69.87 70.66 63.82 61.10 62.51 68.36 68.92 69.26 69.30 70.12 71.50 71.71 68.16 64.93 69.14 70.32 70.76 71.08 68.88 64.55 65.23 65.18 64.89 64.52 66.22 67.41 67.72 65.78 68.33
53.29 54.43 56.04 57.24 58.11 58.67 59.40 60.56 61.38 61.56 62.22 64.58 66.16 68.11 66.41 68.47 62.92 59.29 61.10 68.08 68.02 69.26 69.71 69.12 64.66 68.73 64.44 61.53 68.60 70.23 69.76 70.59 70.59 70.60 70.79 68.56 65.03 66.94 64.01 67.14 69.33 67.81 69.05
51.57 52.78 53.98 54.77 56.05 56.21 56.63 57.99 56.80 57.68 57.18 61.97 62.56 64.54 66.74 64.11 65.46 58.02 58.00 66.79 68.45 68.79 68.79 70.21 70.12 59.63 57.46 58.08 57.82 67.30 69.16 66.36 66.36 67.19 68.23 69.55 70.63 70.79 70.66 68.81 68.66 69.47 69.35
49.33 49.81 51.01 51.37 52.95 53.60 54.43 54.16 55.47 54.70 54.58 54.76 55.10 55.60 57.23 60.46 59.09 58.74 55.85 57.66 61.08 65.87 67.07 68.88 68.56 59.29 55.85 55.85 58.93 61.10 59.79 59.62 63.61 65.27 66.04 67.31 68.17 69.12 70.29 71.91 71.50 70.47 71.72
47.00 46.72 47.26 48.47 49.46 50.44 50.53 50.94 52.00 52.05 51.83 51.62 51.91 51.54 52.50 55.15 56.31 54.84 55.85 57.27 58.92 62.67 64.04 60.74 56.39 56.39 56.57 60.13 58.96 59.63 59.65 64.76 64.61 64.40 66.13 67.64 69.03 70.27 70.35 69.26 69.98 72.13 71.69
43.92 44.10 44.87 45.18 46.66 47.62 49.04 50.04 49.61 48.63 48.40 49.41 49.94 49.59 50.20 51.32 52.41 51.31 51.89 54.23 57.10 58.41 60.21 60.33 58.73 57.34 56.93 59.13 62.14 64.18 65.63 65.24 65.35 65.49 66.37 68.28 69.20 68.79 68.63 69.39 69.02 69.00 67.89
42.54 42.66 42.64 43.83 43.53 43.84 44.71 46.61 47.84 47.16 46.47 46.58 47.84 47.75 48.23 48.85 48.74 45.48 44.49 46.84 46.97 48.90 50.33 57.08 57.69 57.57 58.19 58.79 60.14 62.48 64.61 66.21 66.48 67.68 67.84 68.20 68.80 69.24 69.27 69.41 68.13 67.71 66.69
40.65 41.28 41.65 41.59 41.57 42.13 42.25 43.43 46.13 46.35 45.49 43.94 43.30 44.64 47.65 47.03 43.60 43.06 42.48 42.85 41.41 45.17 53.66 55.09 55.45 55.75 55.97 56.93 58.62 60.41 61.86 63.89 65.31 66.10 67.70 69.17 69.13 69.57 69.27 69.39 67.82 67.34 66.87
39.52 39.81 39.36 40.32 40.17 40.27 41.14 41.48 41.20 43.32 44.97 44.27 42.48 42.72 42.37 42.34 42.49 41.82 41.31 42.26 42.60 45.13 50.72 51.66 53.15 54.38 55.53 57.90 62.02 61.62 59.35 58.72 60.16 61.66 61.49 62.98 65.07 66.96 68.58 68.81 69.03 68.51 67.88
38.83 44.21 38.63 38.62 38.54 38.97 39.25 39.68 40.51 40.24 40.08 41.16 43.01 43.00 42.96 41.62 40.94 41.04 40.86 44.19 51.79 50.90 50.17 51.61 53.57 54.99 58.81 59.13 57.23 55.33 54.78 54.85 56.11 55.69 57.05 59.46 61.29 62.85 65.16 66.67 67.55 68.11 68.69
39.20 38.91 38.21 37.52 37.60 38.89 37.72 38.23 38.86 38.96 38.46 38.83 40.38 41.23 42.02 41.27 40.86 41.51 42.90 46.31 49.79 51.19 53.32 55.26 56.03 54.90 54.19 53.34 51.21 51.19 51.64 52.32 52.80 53.45 53.99 55.33 57.51 58.70 59.47 62.76 65.46 59.77 62.35
38.37 44.11 40.54 36.02 36.07 36.20 36.50 36.69 36.58 36.53 36.38 36.75 37.23 37.82 39.58 39.55 38.88 39.60 41.54 43.04 44.59 47.58 51.48 53.25 52.62 52.32 51.35 50.89 50.24 50.46 51.32 51.32 51.78 51.52 52.20 52.96 54.07 55.71 57.25 59.15 60.07 62.26 64.45
36.61 36.64 40.85 35.75 35.31 35.46 35.56 35.37 35.41 35.51 35.21 35.44 35.94 37.76 39.22 36.87 37.13 38.21 39.07 40.10 40.94 42.42 44.82 48.14 52.02 51.01 50.54 50.36 49.81 49.55 48.28 48.65 50.32 50.19 50.60 50.92 51.94 52.30 54.33 55.38 56.39 57.68 62.45
35.67 35.14 35.31 34.59 35.10 34.91 35.09 34.65 34.32 34.30 34.77 35.31 35.98 36.78 37.72 35.88 36.53 37.49 38.03 39.15 41.13 41.80 43.67 45.42 48.20 50.24 49.69 48.85 48.58 48.04 47.54 47.22 47.31 48.56 48.24 49.52 49.84 50.01 50.83 51.86 53.84 55.89 58.70
35.34 35.31 35.00 34.54 34.70 36.81 34.04 33.89 33.34 33.61 33.71 33.91 34.34 34.63 35.22 34.46 35.43 36.31 36.19 37.00 38.95 41.25 42.97 43.93 44.51 46.10 47.76 47.15 45.76 46.57 45.93 46.04 46.75 47.43 46.63 46.72 47.02 48.05 48.86 48.83 50.70 52.06 54.09
35.73 35.62 35.38 34.65 34.46 34.15 32.93 32.24 32.51 34.00 33.68 33.54 34.49 34.60 34.36 34.56 34.57 35.04 36.14 36.27 37.75 40.50 41.93 43.06 43.62 45.25 45.68 44.61 44.30 43.98 44.77 45.20 45.88 45.46 45.42 44.95 44.26 43.87 45.29 46.50 48.41 50.61 52.72
35.65 35.55 34.91 34.18 33.37 32.44 32.21 31.46 31.80 31.90 34.22 34.52 34.51 34.70 34.62 34.25 33.87 34.73 35.25 35.92 36.65 37.59 38.71 40.31 43.16 43.47 43.25 42.74 42.62 42.80 41.21 37.55 39.25 39.34 40.81 39.52 39.21 40.36 41.68 43.66 45.91 48.23 50.54
35.87 35.95 35.12 34.06 32.90 32.03 30.79 30.54 30.80 34.35 34.88 35.55 35.78 35.34 34.84 34.48 34.56 34.65 35.32 35.77 36.32 37.24 38.23 39.00 39.50 40.29 41.00 41.31 40.91 38.90 34.97 33.71 35.49 33.80 35.77 36.46 37.71 39.48 41.73 43.89 46.16 48.93 51.57

GFSGL_sfc_wetblb_108.txt.gz
Wetbulb
70.34 71.07 71.70 72.03 70.95 69.97 70.42 70.35 70.58 70.63 71.63 71.42 72.43 72.28 72.52 72.02 72.82 72.74 72.59 72.35 71.80 71.85 71.96 71.98 72.12 72.48 72.20 72.67 73.46 71.85 72.00 70.60 69.47 71.05 71.08 73.43 74.05 74.07 74.93 74.89 74.59 75.59 73.54
68.96 70.43 70.93 71.32 71.83 72.04 72.04 71.71 71.72 71.45 71.79 71.18 71.98 71.99 71.16 72.27 73.19 72.77 72.55 73.02 71.97 71.73 71.90 71.74 71.69 72.02 72.44 72.36 72.39 72.52 72.34 72.41 71.06 70.40 71.47 71.94 72.86 73.76 73.75 73.92 74.29 74.34 74.12
68.64 68.19 68.91 69.32 69.70 70.47 71.05 71.92 72.29 72.66 72.40 71.75 71.70 71.53 71.25 71.41 72.57 73.10 73.01 72.76 72.22 72.40 72.45 72.17 72.11 71.78 71.76 71.40 71.50 71.17 71.13 71.73 71.74 71.31 70.83 71.85 72.27 72.55 73.37 74.21 74.03 74.56 72.86
69.08 67.67 68.17 68.89 68.84 68.84 69.06 69.67 70.30 72.30 72.44 71.66 71.36 70.99 71.45 71.46 72.24 72.66 72.90 72.92 72.73 72.71 72.78 72.70 72.65 71.75 71.83 72.20 71.66 71.68 71.54 71.36 71.40 70.80 70.58 70.65 71.25 73.19 72.22 70.89 71.75 72.28 71.60
68.10 67.38 67.76 68.91 69.53 69.41 68.76 68.84 69.48 70.44 71.59 72.89 72.03 71.75 71.05 70.72 70.60 71.39 72.64 73.29 73.25 73.05 73.24 73.68 73.93 72.78 70.02 70.92 73.19 73.45 72.75 72.33 71.26 70.99 70.59 70.67 71.13 71.26 71.14 71.70 70.51 70.67 71.61
67.40 66.09 67.63 69.92 69.09 68.88 68.58 68.57 68.63 69.28 70.78 71.16 71.85 72.65 72.02 71.85 67.40 65.93 69.83 71.72 72.67 72.90 72.83 73.35 73.45 71.55 71.47 67.90 66.96 67.54 70.93 73.28 72.85 71.40 71.75 71.09 72.16 71.26 71.26 71.13 70.54 69.89 69.42
61.57 62.49 63.34 65.79 68.24 69.41 69.47 68.41 68.34 69.81 70.50 71.20 71.38 71.88 71.71 72.76 64.94 63.87 66.26 71.51 72.95 73.13 73.16 73.01 72.92 73.52 71.72 74.05 69.70 66.91 67.05 65.72 67.99 74.09 72.64 72.72 72.51 73.24 72.26 71.22 70.52 69.71 69.90
58.95 59.65 60.77 62.27 62.45 62.98 63.71 63.76 65.21 67.58 68.35 68.80 69.00 69.61 71.01 71.61 61.91 61.33 63.91 69.66 71.14 72.66 72.96 73.78 73.71 74.10 74.05 73.67 73.98 73.44 73.91 74.30 73.08 70.56 72.13 73.58 74.08 74.78 73.01 73.60 72.56 71.28 70.96
55.62 56.81 57.93 59.90 60.26 60.87 61.10 61.20 60.95 62.76 64.43 65.52 67.61 68.73 69.43 68.42 58.79 60.34 63.34 70.28 70.51 70.88 71.71 71.63 72.08 72.82 67.74 62.99 71.50 72.17 72.80 73.31 69.82 64.31 65.68 65.44 64.95 64.30 66.79 71.06 70.84 70.32 70.81
53.26 54.60 55.65 57.08 57.37 57.68 59.24 60.18 60.50 61.87 62.22 65.62 66.42 67.00 63.74 66.62 59.90 57.50 63.28 69.25 68.96 69.82 71.33 71.89 65.38 64.72 57.52 57.50 66.62 71.08 71.18 72.37 73.19 73.87 74.00 70.57 66.17 69.77 63.87 69.59 72.12 70.58 71.01
52.30 52.93 52.93 53.44 54.59 55.28 55.98 57.13 56.74 57.02 58.11 57.93 58.38 59.25 59.77 58.79 58.19 53.72 55.75 65.67 64.67 66.10 66.55 67.72 69.66 60.82 59.37 58.65 58.65 65.11 67.81 65.70 68.05 69.41 69.94 70.69 71.65 72.57 73.24 73.29 72.39 71.85 71.21
49.79 49.91 50.40 50.99 52.06 52.67 53.57 53.90 53.82 54.34 53.93 54.49 54.99 54.87 55.86 56.99 52.93 51.75 51.85 53.27 58.84 63.05 63.77 66.32 65.98 56.29 56.65 56.84 59.51 59.90 59.56 60.96 66.14 67.49 68.30 69.36 70.44 70.96 72.23 73.09 74.66 73.60 73.72
47.22 47.09 47.90 48.99 49.17 50.17 51.07 51.83 50.73 50.60 51.24 51.68 52.12 51.75 52.51 53.56 52.44 50.36 50.71 51.94 54.30 57.22 61.36 59.02 55.29 53.21 53.94 58.65 59.56 59.56 58.45 64.91 66.48 66.25 66.46 68.55 70.31 70.92 72.12 72.89 73.71 74.23 74.44
45.46 45.50 46.00 46.15 46.15 46.64 48.24 49.50 48.36 47.89 48.49 49.42 49.91 49.35 50.47 50.46 49.55 48.63 49.25 51.75 52.29 53.42 53.15 55.39 57.20 56.42 54.54 56.88 60.86 64.02 66.51 67.79 68.01 68.17 68.67 70.02 71.33 70.90 70.70 71.61 70.93 71.38 70.89
43.49 43.79 43.64 43.80 43.86 44.22 45.32 46.05 47.96 47.92 46.72 47.68 46.21 47.33 47.32 47.19 45.73 44.09 43.48 46.34 47.30 47.74 48.53 56.90 58.73 59.36 59.51 60.88 62.05 64.11 65.91 66.73 66.85 65.66 65.51 66.04 67.27 67.97 69.03 70.83 70.55 70.56 68.69
42.25 42.18 42.52 42.03 42.32 42.73 42.76 43.13 44.44 44.54 43.74 42.12 41.96 43.83 47.33 44.20 42.23 41.38 40.40 40.44 41.98 43.65 53.69 55.28 56.08 56.95 56.77 57.71 59.21 62.69 64.46 61.66 60.81 61.49 62.33 61.33 60.58 63.27 65.51 67.61 69.75 68.64 67.83
41.46 41.17 40.93 41.13 40.95 40.88 41.06 40.81 40.07 42.23 43.14 41.74 41.01 41.74 41.43 40.50 40.40 39.97 40.29 40.37 43.52 48.46 52.78 53.27 53.98 55.73 56.96 58.06 60.59 60.76 58.83 57.58 58.17 58.34 57.23 57.96 59.40 60.11 59.81 62.41 65.24 67.11 67.09
42.67 42.38 40.11 39.83 39.98 39.38 39.66 39.90 40.08 39.04 38.41 39.20 40.89 40.89 39.92 39.33 39.00 39.20 39.90 42.78 45.70 48.75 50.52 52.05 52.36 54.17 56.48 56.11 55.48 54.09 54.16 55.28 55.54 55.42 55.16 55.42 57.11 57.16 57.34 58.21 59.65 61.48 63.53
41.45 40.41 39.18 38.96 39.50 39.13 38.96 38.67 38.63 38.30 37.88 37.78 38.87 39.43 40.02 38.39 38.26 38.72 39.60 42.30 41.97 42.78 44.40 46.59 50.13 53.53 53.59 53.26 52.83 52.60 52.59 52.01 51.77 51.95 52.12 53.01 53.36 54.73 55.39 56.41 57.51 54.26 54.93
42.92 42.71 39.53 38.50 38.32 38.16 38.10 37.70 37.23 37.18 37.07 36.96 36.94 37.21 38.42 38.26 37.38 38.49 40.25 40.68 40.78 41.41 42.27 42.90 44.53 45.93 47.18 51.83 52.49 52.42 51.71 50.86 50.80 50.82 51.41 51.55 51.93 52.41 51.83 53.02 55.22 55.41 56.09
40.29 41.41 40.83 38.50 38.13 37.93 37.59 36.71 36.49 36.46 35.94 36.15 36.35 37.55 37.83 36.50 36.22 36.98 37.79 38.19 38.66 39.23 40.50 42.30 43.01 45.67 47.64 47.38 49.68 50.82 50.69 49.94 50.33 49.98 50.14 49.87 49.49 49.58 51.48 52.99 52.46 52.35 53.32
38.72 38.49 38.48 38.20 37.98 37.87 37.34 37.00 36.40 35.81 35.65 35.45 35.74 36.55 36.52 36.55 36.22 36.07 36.38 36.91 37.66 37.83 38.95 40.78 42.38 43.81 44.58 44.72 44.96 47.44 47.68 47.01 47.71 47.97 48.43 48.26 48.76 48.38 47.72 48.29 50.86 51.73 51.97
38.40 38.37 38.33 38.16 38.39 38.30 37.11 36.45 35.80 35.56 35.37 35.30 35.97 36.08 36.15 35.83 35.69 35.58 35.70 36.16 36.69 37.30 38.55 39.73 40.16 41.86 42.85 44.49 46.16 46.73 45.64 44.80 45.30 46.27 45.81 45.58 45.90 45.44 45.33 46.11 46.64 47.82 48.66
38.75 38.70 38.38 38.32 38.14 37.95 37.12 36.05 35.54 34.99 35.22 35.79 35.93 36.39 36.30 35.85 35.53 35.36 35.58 35.72 35.81 36.06 37.54 37.49 38.01 39.17 41.06 41.88 42.57 42.66 44.01 44.48 44.53 44.44 44.42 43.56 43.16 42.99 43.39 43.29 43.42 44.55 45.93
38.58 38.64 38.65 38.57 38.20 37.69 37.17 36.04 35.50 35.50 36.14 36.52 36.49 37.04 36.82 36.24 35.70 35.68 35.59 35.69 36.24 36.60 37.31 37.84 38.56 38.94 39.14 39.39 39.63 40.01 39.43 37.07 39.36 39.36 41.51 41.53 40.81 40.18 39.65 39.76 40.37 41.64 43.05
38.79 38.76 39.01 38.59 37.97 37.53 37.22 36.73 36.15 36.14 36.59 37.50 37.59 37.31 37.57 37.43 36.89 36.47 36.08 35.44 35.90 35.69 36.38 37.69 37.74 38.36 38.56 38.53 38.94 37.38 34.67 34.02 36.10 34.36 36.90 37.31 37.21 37.89 38.79 39.41 40.33 41.64 42.78

GFSGL_sfc_wetblb_111.txt.gz
Wetbulb
73.41 74.12 74.54 75.01 75.40 75.27 74.83 75.03 74.67 75.10 75.51 75.71 76.07 76.06 76.21 76.59 76.48 76.69 76.73 76.30 75.60 76.02 76.12 75.83 75.76 76.70 74.80 75.37 76.25 76.31 75.02 74.60 71.18 72.45 75.06 75.99 76.99 77.10 77.37 78.39 77.70 77.96 76.29
74.19 74.49 74.48 75.45 75.53 75.02 75.02 75.37 75.54 74.34 75.48 76.08 75.39 75.53 75.85 76.04 76.66 76.32 75.52 75.60 75.49 75.37 75.40 75.46 75.18 75.07 76.26 76.59 75.15 76.04 75.40 75.90 73.48 72.76 74.84 74.70 76.27 77.66 77.81 77.87 76.31 75.66 76.42
73.49 73.96 74.31 74.64 75.10 75.31 75.64 75.74 76.16 76.37 76.40 75.89 76.40 75.89 75.79 75.68 75.49 75.69 75.91 76.10 76.06 75.74 75.90 75.51 75.65 75.79 75.60 75.39 75.57 74.49 74.20 74.40 74.81 73.76 73.57 75.36 75.87 76.79 76.89 77.61 77.56 78.08 77.03
70.73 71.22 72.41 72.74 73.12 73.62 74.70 75.22 75.71 76.54 76.54 76.23 76.20 76.21 75.94 75.28 75.37 75.40 75.51 75.74 76.38 75.85 76.27 76.10 75.88 75.85 75.94 76.58 75.97 76.41 75.99 74.74 75.09 74.35 73.98 74.38 75.17 76.94 76.38 74.94 74.83 75.93 75.57
70.33 70.40 70.92 72.60 72.57 72.48 72.48 73.17 73.21 74.47 75.44 76.53 76.39 76.19 76.14 75.38 74.86 74.99 75.26 75.42 75.79 75.66 75.78 76.70 76.43 75.19 71.57 72.67 75.05 77.76 76.26 75.80 74.98 72.71 72.18 73.17 73.42 73.37 73.96 75.09 74.47 74.94 76.34
69.22 68.62 69.24 71.34 70.79 71.56 71.34 71.66 71.78 72.66 74.10 75.33 75.51 75.95 75.90 75.21 66.57 66.02 70.41 74.55 75.29 75.39 74.91 75.71 76.70 72.38 72.72 68.23 67.43 67.94 72.44 75.83 75.06 72.68 71.98 72.88 74.55 75.03 75.02 74.84 74.21 72.94 71.00
65.09 67.70 67.74 66.69 70.42 71.61 71.83 71.73 71.05 72.08 73.12 73.47 73.94 74.76 75.05 74.93 61.97 63.50 65.77 74.01 75.27 75.94 76.27 76.29 76.12 75.54 73.75 76.71 70.45 66.38 66.80 65.93 68.19 76.49 75.31 75.59 75.28 76.76 77.16 75.67 75.68 74.74 73.45
61.50 64.40 64.08 63.28 63.63 65.45 67.40 68.28 69.39 71.00 71.36 71.57 71.88 73.34 70.54 64.91 59.37 59.91 63.63 75.38 75.70 76.03 76.47 76.56 76.39 76.50 76.23 74.64 75.95 76.04 76.43 76.75 76.37 75.02 75.77 76.99 78.14 78.27 77.93 77.15 76.08 75.44 75.46
58.96 61.56 62.42 63.06 63.08 63.26 63.28 63.20 64.17 66.05 67.02 70.16 70.92 70.18 68.78 62.61 56.42 57.54 67.50 73.23 74.21 74.53 75.00 75.42 74.92 74.65 60.17 60.07 72.30 73.69 74.91 75.59 72.06 65.84 66.11 65.93 65.93 65.73 68.68 74.84 73.42 73.00 72.40
58.98 59.36 60.10 60.45 61.88 61.41 61.90 62.80 64.42 65.92 65.98 65.43 65.08 63.02 58.62 59.21 53.20 53.53 63.48 67.82 67.61 69.07 69.87 70.20 62.49 64.26 58.89 57.82 66.67 67.28 69.11 73.07 73.31 74.98 75.81 73.03 68.84 73.05 64.31 72.87 74.62 72.94 73.00
57.84 57.85 58.32 59.37 59.02 59.53 58.82 60.10 60.85 61.31 61.92 61.52 60.96 60.60 59.18 55.40 54.33 51.70 52.82 63.04 62.87 64.50 66.24 68.15 68.50 58.07 55.91 55.73 56.45 66.29 64.90 64.86 66.00 70.25 72.19 73.11 74.68 75.95 76.31 78.79 76.78 75.84 73.70
56.53 56.72 56.62 57.23 57.28 57.75 58.72 57.66 58.08 58.42 58.70 59.60 59.84 59.09 58.74 58.39 50.78 50.73 50.59 52.27 54.51 61.66 61.85 63.17 63.88 54.24 51.72 53.19 58.04 59.15 56.82 59.25 66.17 65.77 67.51 70.12 70.49 71.54 72.65 72.79 74.77 75.46 75.60
54.55 53.98 53.99 54.53 55.30 56.06 56.05 55.36 55.53 55.64 55.92 55.30 56.44 56.84 56.70 56.18 54.76 49.66 49.71 51.03 53.46 58.33 59.09 56.46 53.07 52.97 53.55 58.15 57.00 56.25 55.89 66.66 66.74 67.23 67.36 68.66 70.87 71.65 72.29 72.61 74.24 76.31 76.64
52.14 51.65 52.14 52.06 52.66 53.82 53.98 53.49 53.08 53.13 53.90 52.30 51.55 50.60 52.20 52.04 50.31 50.08 50.80 53.03 52.96 57.08 56.37 59.77 58.16 56.74 55.24 57.51 61.42 63.62 67.62 68.38 68.26 68.51 67.85 68.31 69.59 69.58 69.25 70.97 70.54 70.70 71.83
49.97 49.73 49.82 50.16 50.51 50.68 50.76 51.08 51.51 49.27 48.78 50.11 49.27 50.55 50.02 46.88 43.70 43.12 43.44 46.22 48.77 51.26 48.95 59.51 59.70 60.12 60.31 61.25 62.29 63.54 65.91 66.69 65.56 65.12 65.04 65.12 64.67 63.95 64.21 67.33 68.26 69.11 69.54
48.70 48.30 47.98 48.41 48.30 48.64 48.88 47.53 43.57 43.84 42.19 40.96 41.37 44.34 47.93 41.81 40.78 40.11 39.47 40.09 41.60 44.84 54.41 55.54 56.53 57.76 58.27 59.22 59.95 61.88 63.80 62.66 62.24 61.85 61.48 60.66 60.24 60.87 61.13 61.66 62.89 63.64 65.36
47.99 47.56 46.04 46.92 47.01 46.86 47.13 47.35 46.07 44.20 42.07 40.61 40.11 39.85 39.52 38.58 38.86 38.54 38.53 39.36 43.63 46.35 51.70 53.22 53.88 54.39 55.24 56.92 57.04 56.73 57.46 58.44 59.23 60.21 60.25 60.12 60.16 60.38 60.13 60.42 61.10 60.88 60.67
47.40 44.19 46.25 45.96 45.70 45.86 46.21 46.07 46.36 45.99 45.56 45.45 41.03 40.60 38.89 38.11 37.99 38.23 38.97 42.49 47.67 47.72 48.09 48.25 49.12 50.82 52.09 53.04 55.52 55.82 56.15 56.15 55.35 55.80 57.59 57.55 55.91 56.74 57.74 58.56 59.53 59.73 60.06
46.66 45.65 45.68 45.60 45.42 44.54 45.40 45.34 45.40 45.34 44.67 44.31 45.10 42.74 41.76 38.70 38.30 38.93 40.27 45.88 45.48 45.60 46.25 46.56 47.33 47.86 48.31 49.31 50.39 51.28 52.77 53.33 54.49 54.99 54.93 55.79 56.55 55.40 54.65 56.37 57.01 52.53 53.93
45.86 43.93 44.31 45.07 44.88 44.94 45.04 44.72 44.41 43.92 43.66 43.44 43.23 42.17 42.73 43.52 43.56 43.58 44.07 44.03 43.84 43.82 44.10 44.35 45.49 46.57 47.15 47.68 47.68 47.54 48.50 49.73 50.66 51.60 51.80 52.89 54.21 55.06 54.07 53.08 53.55 54.70 55.75
46.53 45.18 43.99 45.14 44.86 44.40 44.21 43.52 43.45 43.46 43.08 42.80 42.48 40.36 36.51 42.11 41.96 42.06 42.09 42.21 42.33 42.38 42.38 42.43 42.99 43.85 44.70 46.06 46.75 46.94 47.09 47.35 49.03 48.59 48.29 48.49 49.36 48.71 49.31 49.25 49.02 49.94 51.98
46.53 45.99 45.49 45.10 44.72 44.16 43.56 43.53 43.25 43.11 42.73 42.51 42.74 41.89 37.38 42.85 42.26 41.68 41.48 41.54 41.74 41.47 41.63 40.80 39.61 40.98 42.50 42.98 43.66 43.52 43.73 45.50 47.18 47.19 46.72 46.47 46.71 47.26 47.32 46.97 47.12 47.00 47.61
45.80 45.37 44.95 45.05 45.12 41.53 43.26 43.34 43.21 43.25 42.93 43.07 42.92 42.69 42.48 41.73 41.05 40.93 40.63 40.82 39.68 39.23 39.53 38.82 38.35 38.65 39.60 39.80 40.87 42.29 43.16 42.40 41.59 42.74 43.56 44.02 44.42 44.91 45.49 44.62 44.31 44.10 44.56
45.83 45.57 45.28 45.03 44.76 44.43 43.99 43.23 42.89 39.47 42.72 43.76 43.69 43.02 42.68 42.12 41.22 38.91 38.76 39.39 39.37 38.90 38.76 38.27 38.79 39.52 40.03 40.72 41.07 40.73 40.72 41.00 41.34 41.46 41.17 41.44 41.81 42.84 43.97 42.68 41.76 41.33 41.52
45.82 45.54 45.64 45.37 44.69 44.62 43.28 43.75 43.76 44.28 44.24 44.16 43.35 43.43 43.17 43.26 42.66 41.75 40.77 38.27 38.32 38.06 37.91 37.88 38.76 39.02 38.57 38.92 39.08 39.46 38.33 34.64 37.53 36.39 38.43 38.52 38.67 39.42 39.84 40.16 40.72 41.01 40.55
45.97 45.79 45.91 45.99 45.48 44.91 44.61 44.15 44.10 44.37 44.81 44.77 44.54 44.27 43.59 42.27 41.61 41.26 40.04 38.38 37.14 37.16 37.07 37.45 37.52 37.52 37.83 37.98 38.12 36.73 33.93 32.98 34.82 33.63 35.34 35.66 35.80 36.72 37.68 38.03 38.65 39.52 40.13

GFSGL_sfc_wetblb_114.txt.gz
Wetbulb
75.33 75.84 75.44 75.66 75.98 76.90 76.59 77.30 77.73 78.00 78.06 77.66 77.99 77.23 77.08 76.81 77.41 77.33 77.21 76.90 77.05 76.75 77.17 76.89 76.66 77.54 74.96 74.52 74.86 74.94 74.36 73.89 71.63 72.95 74.57 76.19 77.90 77.75 77.93 78.88 77.50 76.68 75.27
75.88 76.21 76.38 76.10 76.46 75.82 76.16 76.93 77.52 77.37 77.86 78.10 77.93 77.89 76.86 76.75 77.51 76.63 76.07 75.92 76.33 75.82 76.16 76.60 76.19 75.24 76.93 77.11 74.88 76.36 76.15 76.41 73.72 74.23 76.54 74.83 77.01 78.17 78.16 78.78 77.37 76.55 76.89
75.82 75.37 75.71 75.49 75.68 75.74 76.31 76.23 76.83 77.27 77.49 77.84 78.19 77.50 77.60 77.76 77.62 77.07 76.99 76.35 76.42 76.36 76.42 76.32 76.23 76.07 76.69 75.74 76.30 75.68 74.96 74.47 74.93 73.12 72.99 74.35 75.15 76.33 77.10 78.64 77.53 78.05 75.98
75.01 75.36 75.52 75.99 76.03 75.90 76.49 76.89 77.25 77.81 77.09 76.99 77.19 77.60 77.48 77.12 77.79 77.46 77.22 77.03 76.59 76.46 76.30 76.23 76.30 76.33 76.40 76.78 75.91 76.26 76.16 75.59 75.95 74.28 73.44 73.68 73.98 77.46 76.33 73.91 72.78 74.62 74.96
72.03 72.89 73.83 74.92 75.52 76.38 76.69 76.72 76.74 77.03 76.79 77.31 77.22 77.20 77.44 77.30 76.91 77.44 77.37 76.83 76.56 76.05 76.33 76.23 76.54 75.38 72.06 73.00 75.40 76.86 76.96 74.95 73.49 72.58 72.04 72.38 72.49 73.75 73.95 73.61 72.97 73.80 76.02
70.20 70.37 71.86 73.44 73.52 74.15 74.70 75.12 75.63 76.13 76.56 76.94 76.79 76.92 76.81 76.21 66.40 67.24 72.29 76.87 76.84 76.69 76.30 76.68 76.98 73.98 73.24 68.99 68.13 68.04 71.84 76.01 75.08 74.08 72.46 72.62 76.65 75.88 75.07 74.47 74.10 73.18 71.80
69.59 70.13 70.85 71.95 71.26 72.72 73.00 73.76 73.79 74.27 74.80 75.43 75.99 76.34 75.92 73.81 59.88 62.24 66.89 76.10 77.01 77.38 77.80 77.34 76.61 75.72 74.68 77.11 70.24 67.38 67.96 66.29 67.81 76.35 74.67 74.99 75.97 76.57 77.25 76.52 77.20 75.40 74.46
68.07 68.95 70.45 70.47 66.87 66.67 70.44 72.08 73.23 73.56 74.18 74.55 74.60 73.89 71.33 65.17 56.36 58.27 63.62 76.26 77.11 77.32 77.42 77.50 77.32 77.35 71.68 73.77 77.41 76.83 76.83 77.28 76.84 76.09 77.02 77.06 77.52 78.58 78.52 78.11 77.45 77.39 77.21
63.00 65.59 68.03 67.46 64.14 64.42 65.70 67.49 69.50 71.73 71.96 71.56 70.29 69.28 68.11 62.30 53.90 55.73 65.12 76.00 75.83 74.31 73.00 70.57 73.44 71.30 61.70 60.90 73.46 75.52 76.30 76.62 72.96 66.59 66.05 65.37 65.06 65.69 68.94 75.09 73.77 73.26 72.57
62.79 65.28 66.75 67.25 67.01 66.88 66.44 67.33 68.85 69.39 68.89 66.87 64.13 62.15 58.75 60.70 52.46 53.70 60.20 72.12 72.27 71.85 70.71 69.36 62.84 64.64 57.43 56.85 69.32 72.44 72.74 74.16 74.52 74.63 75.45 74.15 70.23 74.10 66.28 74.51 75.63 73.47 73.60
60.94 62.30 63.56 64.89 65.34 65.63 66.32 67.80 67.87 67.12 67.06 66.22 64.18 62.66 60.06 59.46 54.84 52.44 53.67 63.82 65.97 67.55 69.01 69.51 68.87 56.05 53.26 53.07 54.68 67.84 67.12 64.80 67.34 70.41 71.86 73.09 73.71 75.27 76.83 77.65 77.50 76.83 74.98
60.21 60.56 61.20 62.69 63.46 63.80 63.95 63.88 65.03 65.08 64.21 64.12 63.77 62.82 62.28 61.12 51.27 50.90 51.14 52.31 55.22 64.88 63.73 64.02 63.98 52.60 51.55 52.22 57.48 56.55 55.48 58.31 67.36 66.85 66.95 68.07 68.78 69.65 72.37 73.44 74.52 74.90 74.94
59.88 59.88 60.27 61.40 61.77 62.69 62.23 61.99 61.83 62.61 62.09 62.33 60.48 61.09 61.15 60.29 59.26 51.23 50.80 51.77 53.76 60.82 61.01 57.98 53.45 52.28 52.41 56.98 55.14 56.09 55.83 68.83 68.80 68.10 68.13 68.24 68.93 70.12 72.31 72.89 74.42 74.91 75.39
57.84 57.89 58.36 58.63 59.12 60.40 60.44 60.76 61.17 61.87 60.70 60.94 58.56 56.84 56.88 54.07 51.06 51.39 52.33 55.14 54.73 58.03 57.74 60.06 59.29 56.95 55.67 59.20 61.58 63.53 66.55 67.47 67.32 67.36 66.57 67.16 68.40 67.91 67.04 67.64 67.43 68.69 68.66
55.77 55.95 56.31 56.35 57.17 56.34 54.87 53.49 54.64 49.80 48.91 57.97 56.90 57.00 55.52 53.19 46.86 42.74 41.79 46.71 50.64 51.85 51.25 59.49 59.90 60.29 60.65 61.57 62.43 63.47 64.55 66.55 66.13 65.36 64.55 64.58 64.48 64.38 64.54 65.45 64.51 63.93 63.52
54.50 54.23 54.08 54.26 54.68 54.84 53.30 50.60 42.75 43.07 41.62 40.34 39.75 45.07 48.96 41.10 40.29 39.81 38.90 39.51 40.73 43.15 54.72 55.79 56.94 57.79 57.92 59.09 59.88 61.08 62.20 61.57 62.06 62.11 62.28 62.75 62.48 62.79 63.38 63.83 64.46 63.93 63.34
54.46 53.04 51.60 52.16 53.17 52.78 52.79 51.96 48.64 43.45 41.90 40.29 39.45 39.45 39.23 38.05 39.00 38.78 38.73 39.37 41.51 45.91 53.32 52.76 53.03 53.10 53.78 54.99 56.00 56.36 57.35 59.07 60.56 59.77 59.68 60.03 60.71 60.60 60.02 61.03 61.94 62.39 62.04
52.52 45.35 52.03 51.75 51.70 52.12 52.69 52.60 53.64 52.04 51.05 48.90 40.73 41.73 39.41 38.75 38.76 38.65 39.39 42.46 52.24 51.97 51.70 51.54 51.43 51.93 52.50 52.37 52.93 54.13 53.78 53.91 55.43 56.05 56.09 57.59 58.36 57.92 58.22 58.24 58.61 59.34 60.07
50.85 50.59 51.77 51.43 51.55 50.17 51.46 51.37 51.56 51.41 51.35 50.56 50.03 43.08 43.68 39.61 39.40 39.69 40.67 50.57 49.92 49.65 49.67 49.67 50.07 50.19 50.94 51.40 51.80 52.07 52.31 51.77 50.70 52.99 53.44 53.20 54.80 55.23 55.84 57.01 57.45 51.98 53.11
50.74 46.72 50.02 50.07 49.14 50.08 50.26 50.14 49.78 50.00 50.16 50.28 49.00 47.11 48.21 50.28 49.46 49.05 49.31 48.83 48.58 48.36 48.29 48.14 48.34 48.72 48.94 49.20 49.58 50.28 50.45 50.87 51.31 51.60 51.62 50.39 50.37 50.44 50.21 50.67 50.64 50.89 52.35
49.69 48.44 47.88 50.21 50.06 50.38 50.39 49.94 49.90 50.06 49.50 49.25 47.88 42.46 36.06 47.07 48.68 48.41 47.75 47.63 47.11 46.78 46.63 46.69 46.51 46.49 46.89 46.94 47.17 46.97 47.58 48.22 48.25 48.56 48.92 48.99 49.86 48.05 48.24 47.95 48.05 48.71 48.57
50.29 49.41 48.81 49.35 49.30 48.94 49.30 49.70 49.34 48.93 48.96 48.60 48.35 44.87 40.03 48.29 48.80 47.98 47.14 46.97 46.72 46.31 46.31 45.50 45.05 44.73 44.86 44.52 43.93 44.11 43.92 43.45 42.83 43.54 44.34 43.74 43.37 44.45 45.82 46.91 47.24 47.50 47.59
50.13 49.73 49.41 49.32 49.52 44.87 47.33 48.63 48.74 49.06 48.49 48.68 49.79 49.79 49.55 49.13 48.74 47.15 46.17 46.42 46.63 46.26 46.19 45.19 43.45 42.42 43.07 42.31 42.54 42.04 41.60 41.37 42.60 42.75 41.58 41.38 41.32 42.84 44.47 44.62 44.94 45.59 45.55
49.62 49.10 48.99 49.14 48.88 48.44 48.41 48.07 47.79 43.10 48.93 48.44 49.08 49.90 50.18 50.06 49.78 48.07 48.58 46.63 44.96 45.50 45.57 44.67 43.36 41.36 41.67 41.67 41.70 41.92 42.08 41.83 41.03 40.17 40.53 39.84 39.93 40.60 42.08 42.33 43.23 43.97 43.68
50.03 49.10 48.95 48.87 48.66 48.16 48.07 48.26 48.20 48.33 48.24 48.43 49.16 49.96 50.46 50.29 48.76 48.42 47.33 46.29 44.31 42.38 41.56 41.31 41.13 40.90 40.23 40.15 40.54 40.03 38.32 34.16 36.90 36.21 36.70 36.73 36.87 37.33 38.02 38.72 39.43 40.23 40.72
49.74 49.41 49.12 49.47 49.28 49.18 48.76 48.35 48.10 48.17 47.99 48.55 49.00 50.36 50.41 50.19 49.86 49.16 47.83 46.34 44.30 43.15 42.46 41.70 40.44 39.93 39.73 39.31 39.56 36.65 33.36 32.92 35.50 33.36 34.39 34.79 34.54 35.08 36.16 36.53 37.32 38.05 38.41

GFSGL_sfc_wetblb_117.txt.gz
Wetbulb
75.50 75.96 75.89 75.58 75.88 76.45 75.90 76.25 77.05 77.91 78.69 78.07 77.98 77.65 77.02 77.05 77.43 77.80 78.16 77.90 77.04 77.21 77.23 77.70 76.95 79.16 75.77 74.79 75.28 74.54 73.51 73.09 71.08 72.44 74.19 76.16 78.77 79.87 78.18 79.41 77.37 78.88 75.54
75.54 76.32 75.82 76.06 75.96 75.50 75.35 76.74 77.18 77.32 79.94 78.17 77.93 77.69 77.36 77.21 78.10 77.26 76.20 75.77 75.94 75.84 75.94 77.04 76.10 75.25 78.67 79.54 75.14 78.47 75.92 76.31 72.29 74.13 74.43 73.87 77.57 80.32 80.75 80.60 76.66 75.77 76.83
76.61 76.04 76.13 75.78 75.65 75.49 75.77 76.46 77.42 77.33 77.54 78.61 78.94 77.95 77.89 77.38 77.73 77.62 77.38 76.66 76.43 76.06 75.96 75.97 75.47 76.44 77.16 76.05 77.02 76.26 74.76 74.69 75.84 72.93 72.44 74.13 75.18 75.88 78.09 79.85 79.86 78.84 76.66
74.20 76.17 76.27 76.33 76.34 75.80 75.96 76.79 76.58 77.53 77.43 78.30 78.04 78.08 77.45 77.36 77.30 76.89 77.33 77.16 76.80 76.25 76.52 76.47 76.14 75.84 77.01 76.62 77.08 77.85 77.32 75.87 75.63 73.49 72.51 72.87 73.25 76.81 77.45 74.12 72.97 74.42 74.51
71.19 73.78 75.25 76.17 77.12 76.73 76.62 77.13 76.92 77.08 76.89 78.23 77.18 77.18 77.24 76.76 75.29 77.15 77.81 77.08 77.31 76.47 76.47 76.27 76.45 75.56 72.60 73.04 75.17 78.69 78.44 76.18 73.32 72.13 71.15 71.06 71.20 73.61 73.26 74.31 73.63 73.93 75.65
69.10 70.64 73.86 74.75 75.29 75.64 76.25 76.36 76.73 77.04 76.93 77.90 77.32 76.67 76.67 74.22 61.80 64.46 71.13 76.47 76.82 76.74 76.20 76.73 77.15 74.71 73.66 70.14 69.24 69.09 72.22 75.60 76.12 73.88 72.83 72.50 76.16 75.21 74.57 73.71 73.57 71.95 70.80
70.17 70.80 72.33 72.58 73.42 74.49 74.54 74.97 74.66 75.16 76.22 76.08 75.81 76.34 73.88 69.31 59.07 61.61 66.24 75.87 77.05 76.99 77.53 77.85 76.54 74.97 74.56 76.88 70.68 68.05 68.43 66.95 68.70 76.53 75.72 75.81 76.08 77.68 78.02 77.57 76.24 75.73 74.11
70.60 70.59 71.03 71.50 71.16 71.73 72.86 73.14 73.66 75.19 74.58 75.08 75.10 75.27 70.72 64.26 56.75 57.89 63.09 75.29 77.05 76.76 76.45 76.85 77.74 77.07 68.97 70.14 76.13 76.79 76.80 77.06 75.13 75.72 76.93 77.88 78.13 78.45 78.40 78.13 77.72 77.38 77.10
67.98 69.54 70.35 70.79 70.69 69.48 65.85 66.13 67.89 71.28 70.47 69.86 69.22 69.79 68.03 62.28 54.42 56.65 62.89 76.69 75.71 72.43 72.43 70.28 74.18 72.51 61.58 61.20 71.68 74.38 75.40 76.34 72.64 66.27 66.64 66.25 66.26 66.93 68.64 74.21 73.66 72.89 72.35
65.07 67.51 68.95 68.51 67.69 66.21 64.81 67.04 69.67 69.88 68.58 67.84 66.73 65.52 60.44 61.16 52.38 53.25 60.45 73.96 73.57 73.32 73.99 72.25 60.97 62.06 56.34 56.44 67.35 69.86 71.60 71.70 70.11 70.51 72.51 72.78 71.98 74.40 67.17 73.76 75.27 73.34 73.25
62.62 64.66 67.65 68.66 68.32 68.68 69.03 68.75 68.47 67.85 67.72 65.52 64.90 64.27 62.73 60.31 55.59 52.00 52.45 64.55 64.23 67.94 69.12 69.42 66.27 56.24 54.54 53.67 54.33 68.40 66.00 64.22 66.34 68.15 68.93 69.10 71.43 73.14 76.58 78.15 77.49 76.89 72.89
61.10 62.57 63.98 64.75 64.98 65.76 67.59 68.08 69.17 68.23 66.88 66.39 65.78 64.29 62.95 60.09 53.21 51.74 51.67 52.62 56.00 65.33 64.61 64.99 64.06 53.29 52.10 52.49 56.59 57.26 56.45 58.20 68.67 69.46 69.65 69.62 69.83 70.56 71.18 72.64 75.59 76.15 76.40
59.46 59.69 62.79 63.45 65.01 65.10 64.92 65.66 65.12 66.42 65.79 65.67 64.84 63.82 63.00 62.09 60.44 52.52 51.65 52.62 54.44 59.19 62.19 57.82 54.15 52.66 52.52 56.97 56.35 56.71 56.08 67.21 67.66 67.16 66.75 67.42 67.85 68.82 73.27 71.52 72.63 73.61 76.20
60.44 60.34 60.08 61.68 62.15 63.00 63.45 63.68 64.04 63.05 63.04 63.40 63.19 63.29 61.65 59.49 56.01 52.56 51.23 54.16 54.60 58.02 57.55 58.05 58.26 57.26 54.86 57.76 58.74 63.48 65.72 65.76 65.95 66.57 66.57 66.22 66.62 66.27 65.73 66.88 65.64 65.86 65.76
58.88 59.22 59.00 58.34 59.80 58.90 53.37 49.60 56.55 48.56 46.29 57.85 58.13 60.26 57.43 58.60 49.60 42.73 42.75 48.34 50.86 48.72 47.42 59.34 59.79 60.49 60.44 61.38 62.15 63.08 64.22 64.38 63.92 63.66 62.50 62.01 62.66 63.06 63.04 64.76 64.39 64.54 64.21
57.36 56.89 56.82 57.37 58.10 56.89 55.42 51.21 43.05 42.60 41.12 39.99 40.04 46.91 48.14 42.14 40.98 40.23 39.32 39.68 40.60 42.35 54.33 56.45 56.82 57.16 56.80 56.67 57.28 58.57 59.69 60.01 60.20 60.21 60.37 60.14 59.58 59.94 60.47 60.82 61.35 61.33 61.60
56.52 56.19 55.10 53.11 55.56 55.73 55.54 53.44 49.31 43.45 41.91 40.21 39.69 39.86 40.00 39.03 39.72 39.22 38.84 39.68 41.61 44.17 54.80 54.53 54.16 53.98 53.87 54.14 53.96 53.97 54.93 55.79 57.92 56.14 56.64 56.81 56.78 57.99 58.18 58.21 58.97 59.63 59.03
56.35 48.65 54.36 54.88 54.56 54.59 54.83 55.11 54.80 52.89 51.93 49.73 40.96 42.74 40.13 39.69 39.40 39.18 39.49 42.37 52.98 51.75 53.37 53.09 52.76 53.10 53.48 53.38 53.45 53.27 53.33 53.25 53.81 53.48 53.16 54.89 55.09 54.33 54.35 54.94 55.58 56.50 56.16
54.03 52.46 53.34 54.36 54.35 52.64 53.87 53.50 53.64 53.78 53.90 52.40 49.87 43.00 43.39 40.97 41.53 40.93 41.46 52.81 52.00 51.60 51.55 51.57 51.56 51.53 51.59 51.74 51.82 52.03 52.28 52.01 51.32 52.15 52.71 53.28 53.05 51.68 50.89 51.17 51.35 48.84 49.45
52.50 48.82 50.64 53.04 51.38 51.99 52.56 52.10 52.35 52.59 52.17 52.19 51.32 49.87 52.11 48.50 51.09 51.61 51.68 51.45 50.92 50.47 50.35 50.20 50.16 49.96 49.84 49.90 49.62 49.51 49.37 49.74 50.15 49.92 50.10 50.45 50.24 48.90 47.89 49.83 50.27 49.12 48.98
51.45 49.58 51.09 50.33 51.41 52.03 52.01 51.62 52.21 51.71 51.50 51.51 49.78 44.78 37.92 49.25 50.90 50.68 50.57 50.18 49.64 49.45 49.01 48.87 48.53 48.53 48.44 48.08 47.78 47.41 47.15 47.23 47.39 46.96 46.91 46.31 46.35 45.58 46.43 46.63 46.94 47.76 48.18
51.08 50.64 49.26 50.72 50.67 50.64 50.56 51.22 50.70 50.60 51.08 50.32 49.90 46.24 42.03 48.99 50.96 50.78 49.95 49.73 49.45 49.40 49.28 48.40 47.74 47.21 47.04 46.52 46.13 45.72 45.26 45.05 45.36 45.49 44.87 43.86 42.54 42.72 43.30 44.09 45.07 46.10 46.83
51.32 51.02 50.54 50.19 50.23 48.75 49.76 50.21 50.00 50.03 50.22 50.66 51.15 50.15 49.72 50.84 50.44 49.79 49.54 49.18 49.16 49.38 49.11 48.44 47.58 46.81 46.74 45.97 45.85 45.27 44.02 43.76 43.25 42.95 41.50 40.90 40.52 40.30 40.66 40.63 42.52 43.90 45.04
51.22 50.45 50.03 50.06 50.32 49.94 49.36 49.74 50.30 45.75 49.74 49.81 49.94 50.32 50.97 50.69 50.60 49.74 50.45 49.85 49.31 48.31 48.20 47.72 46.90 45.53 45.30 44.85 44.99 44.57 43.67 42.75 41.62 40.55 40.22 38.90 37.22 37.09 37.51 37.47 38.16 39.41 41.84
51.87 50.90 50.09 49.61 49.56 48.86 49.94 50.15 49.99 49.38 49.02 49.53 49.68 49.87 50.52 51.04 51.35 50.69 50.91 50.24 49.43 48.54 47.12 46.59 46.16 45.28 44.22 43.60 42.45 42.01 38.13 33.59 37.49 35.78 37.77 38.18 36.84 36.56 36.25 35.97 36.18 36.75 37.23
51.42 49.32 50.52 50.56 50.31 50.33 49.80 49.43 49.78 49.92 49.57 49.43 49.68 50.15 50.33 50.08 50.12 50.52 50.98 49.97 48.73 47.97 47.11 46.83 45.89 43.89 42.78 42.04 42.12 36.93 33.22 32.68 35.82 32.83 36.02 36.28 35.91 36.39 36.47 36.23 36.46 36.22 36.51

GFSGL_sfc_wetblb_123.txt.gz
Wetbulb
72.44 72.34 72.29 72.76 72.52 72.88 72.88 72.59 72.81 73.21 73.94 73.47 73.71 72.92 73.31 73.61 73.53 72.83 71.79 72.57 71.70 71.62 72.11 71.92 71.28 72.59 71.50 71.72 71.72 71.47 70.47 69.34 65.47 67.98 70.05 70.92 70.27 70.64 72.28 74.49 75.42 74.07 72.59
72.49 72.31 72.21 72.58 73.11 72.02 72.42 72.74 73.36 72.99 73.43 73.90 73.23 73.48 73.28 73.49 73.11 72.93 72.68 72.33 72.02 70.74 71.01 71.73 71.68 73.83 71.35 71.75 71.89 71.61 70.95 71.39 69.49 67.62 69.76 70.33 69.58 72.09 72.04 73.03 75.37 75.48 73.46
71.44 72.60 72.15 72.33 72.48 72.04 71.65 72.73 73.38 72.92 72.93 74.15 73.94 73.36 72.81 73.13 73.11 73.31 72.49 72.69 72.81 72.52 73.30 72.10 72.22 72.12 71.46 71.45 71.55 71.09 71.19 72.45 70.66 69.73 69.49 70.08 70.47 72.04 71.40 71.09 71.22 72.00 74.03
70.45 70.93 70.23 69.66 70.63 71.26 72.32 72.17 72.56 72.76 72.78 72.84 72.64 73.18 73.61 73.60 73.38 73.08 73.46 72.80 73.14 73.03 73.06 73.37 73.62 73.23 71.83 71.70 71.53 70.91 71.15 69.48 70.52 69.78 69.42 69.08 69.10 71.76 71.28 70.43 71.58 71.74 71.79
70.19 70.09 69.08 68.91 69.33 71.29 71.43 72.03 72.53 72.88 72.77 72.62 72.75 72.84 73.05 69.07 65.98 65.79 68.95 73.22 72.44 72.43 72.39 73.82 74.05 72.66 71.42 71.06 71.50 71.03 70.60 69.71 69.53 68.93 68.91 68.55 68.03 68.81 69.48 70.82 70.19 71.28 72.08
68.88 69.65 69.47 69.25 67.87 70.58 71.17 70.85 71.25 71.87 72.23 72.33 72.11 71.17 67.31 65.78 62.30 63.16 65.66 70.30 72.35 71.70 71.49 72.51 71.91 69.08 69.54 69.38 68.29 67.51 68.77 68.44 67.28 68.91 68.91 68.62 67.58 70.10 70.95 70.69 70.72 69.97 68.68
68.48 69.74 69.87 68.05 67.22 69.67 71.42 71.44 71.89 70.26 70.22 71.00 70.32 66.37 62.07 59.09 58.31 59.08 63.00 68.59 71.63 71.65 72.02 72.27 72.60 68.54 66.24 67.69 68.73 69.88 68.50 66.50 67.47 68.50 68.01 68.89 69.63 70.54 71.54 70.28 69.38 69.81 70.01
67.69 68.18 68.47 68.37 67.96 69.52 69.95 69.77 68.78 69.59 68.99 69.59 67.62 64.28 59.83 56.69 56.01 57.02 60.58 66.91 71.13 70.42 70.42 68.84 66.66 63.10 60.86 62.20 68.37 70.23 70.88 67.22 66.55 69.73 66.56 67.85 69.05 69.93 70.80 70.92 71.05 70.92 71.41
67.27 67.90 68.63 68.62 67.04 67.31 66.88 67.87 68.50 67.42 66.92 66.81 64.97 61.88 57.10 52.65 54.46 57.21 65.60 70.52 70.11 66.41 63.37 65.97 62.88 59.87 58.61 59.50 64.48 65.41 66.99 64.97 65.52 63.35 62.99 63.01 63.32 64.05 65.42 69.20 68.62 67.71 67.13
66.86 67.65 68.45 68.41 67.56 66.52 67.06 67.42 67.06 65.57 64.09 62.17 59.95 57.34 55.81 52.25 53.05 54.59 59.68 64.29 65.46 63.39 60.18 57.50 57.94 56.70 55.37 55.26 59.59 64.43 57.47 58.29 58.95 61.13 63.47 64.92 66.17 67.05 67.25 69.84 69.10 66.50 65.98
64.36 66.17 66.75 66.77 65.93 66.06 66.79 65.57 63.54 63.62 62.22 60.20 57.50 57.59 56.07 53.16 51.56 51.96 53.54 56.54 58.48 64.97 62.67 59.12 56.51 54.81 53.36 53.16 53.28 60.85 57.38 56.53 58.80 59.97 63.65 65.21 63.75 63.80 65.10 65.23 65.28 66.46 64.86
61.70 62.46 63.45 64.99 66.05 67.02 66.16 65.34 64.31 62.83 60.48 58.67 57.23 56.15 54.15 52.24 52.08 51.28 51.73 52.84 55.54 58.94 57.35 55.66 54.75 52.02 51.07 51.73 54.06 56.26 55.15 57.08 61.25 62.68 60.19 58.77 59.14 60.11 61.96 61.74 61.52 60.29 60.55
59.67 59.54 60.56 61.27 58.75 60.63 62.78 65.28 64.91 63.98 61.48 58.20 56.81 55.79 54.56 56.26 52.86 50.61 50.38 52.67 53.99 50.85 50.42 52.24 53.15 52.82 52.80 55.40 56.67 57.24 57.95 59.42 58.09 56.93 55.88 56.02 57.11 58.09 58.62 58.72 59.00 58.24 57.91
57.23 58.41 59.24 55.26 50.60 48.53 50.53 49.25 47.74 46.92 51.27 54.13 60.57 58.27 55.69 48.52 45.51 43.69 43.87 46.40 48.76 47.28 46.68 49.63 55.56 55.38 54.97 55.55 55.71 56.30 55.60 54.84 53.75 53.16 53.31 53.92 53.96 53.57 53.57 54.58 55.09 56.05 55.33
57.49 57.66 58.03 56.43 49.79 44.97 42.94 45.00 42.21 39.99 41.16 47.39 47.32 46.45 51.44 45.78 40.36 40.98 40.17 40.01 40.03 41.57 43.37 52.55 52.05 50.94 49.91 49.91 50.42 52.36 51.96 51.11 51.43 50.59 50.06 50.21 50.16 51.04 51.70 52.91 52.40 51.68 51.34
55.19 56.91 55.53 56.77 53.80 51.98 47.31 43.36 42.87 42.00 41.40 40.52 41.22 42.42 40.55 41.65 41.15 40.53 39.73 39.78 40.42 42.23 45.96 49.73 48.82 48.70 48.45 48.61 48.50 48.49 49.44 50.33 49.90 48.69 47.94 48.08 49.36 50.05 49.00 48.92 48.92 47.43 46.85
51.76 50.57 52.80 54.75 56.25 54.54 52.65 49.78 44.28 41.98 42.71 40.99 40.67 40.59 40.74 40.48 40.15 39.64 39.32 39.73 42.77 44.16 47.38 48.57 48.42 47.70 46.91 47.15 46.93 46.97 46.63 46.60 46.84 47.46 47.78 47.52 47.59 47.56 46.06 45.68 45.45 45.44 44.93
47.48 49.65 47.57 49.75 51.47 53.48 51.76 50.11 46.67 43.85 42.03 41.28 41.80 41.30 40.80 40.26 39.99 39.79 39.73 41.74 46.79 45.19 46.95 46.90 46.55 46.78 46.74 45.74 45.98 45.25 45.32 45.21 45.20 44.64 44.32 44.26 43.69 43.51 43.41 42.77 42.67 41.63 41.66
50.70 48.09 47.18 48.89 46.19 46.54 48.99 49.50 48.30 46.89 47.08 43.24 41.75 42.56 42.20 41.47 40.99 40.77 41.20 46.02 44.80 44.85 44.89 44.97 45.07 44.99 44.66 44.73 43.89 43.28 43.13 42.83 42.90 42.41 42.29 42.37 41.81 41.21 40.23 40.57 40.75 42.14 42.03
46.74 50.50 49.31 46.07 46.41 46.97 46.34 46.53 46.42 49.39 46.75 44.55 43.02 44.50 42.66 42.33 43.88 44.82 45.49 45.28 44.38 44.10 44.00 43.68 43.61 43.36 43.11 42.79 42.32 42.08 41.37 41.23 40.57 40.61 40.17 39.67 39.21 39.28 38.88 39.09 39.54 38.87 39.18
48.12 45.41 50.61 46.32 46.17 45.99 46.61 47.32 46.59 46.77 47.51 46.53 44.43 43.84 43.12 44.59 44.53 45.31 44.71 44.41 43.95 43.55 43.01 43.18 42.45 41.99 41.74 41.22 41.05 40.56 40.12 40.32 39.81 38.96 38.31 37.75 37.61 36.99 37.69 38.12 38.18 38.31 39.12
47.64 45.42 44.03 44.05 45.56 46.40 46.34 46.84 45.88 45.28 45.20 42.89 41.80 41.08 42.55 43.54 46.22 46.44 45.78 44.46 43.89 43.93 43.86 42.93 41.91 41.43 41.16 40.38 40.07 39.56 38.74 38.36 37.68 36.78 36.29 36.18 35.95 36.10 36.54 36.41 36.65 37.54 37.53
47.94 45.53 43.22 42.58 43.47 46.90 44.12 45.74 45.29 45.65 45.80 43.95 42.95 42.34 42.95 44.17 45.14 45.43 45.17 45.52 45.46 44.43 43.44 43.27 42.53 41.33 40.81 40.02 39.75 39.05 37.47 35.97 35.61 35.35 34.52 34.61 34.58 34.97 35.69 35.76 35.86 36.58 37.05
47.86 46.11 44.51 43.48 43.41 43.64 43.45 43.55 43.76 43.79 45.96 45.30 44.46 44.34 43.55 45.31 45.11 45.37 44.86 44.20 43.99 43.87 43.46 42.12 41.29 41.30 41.08 39.86 39.13 37.47 35.90 34.61 34.96 34.83 37.06 36.18 35.84 35.66 35.02 34.66 34.98 35.83 36.44
50.88 49.02 45.53 44.24 43.71 44.25 43.99 43.65 42.88 43.96 44.03 45.83 45.37 45.29 45.35 45.67 45.17 45.15 44.82 43.52 43.11 42.75 42.34 41.53 40.68 40.49 39.92 39.19 38.39 36.08 33.98 34.30 35.20 35.52 37.08 36.90 35.98 35.85 34.78 35.13 35.62 36.51 37.32
49.81 47.67 46.25 44.43 44.02 44.29 44.17 43.63 43.69 44.29 43.25 43.91 44.64 45.05 45.44 44.99 45.10 45.13 44.46 43.61 42.31 42.10 42.34 41.77 41.44 40.79 40.18 39.15 37.16 35.81 32.84 33.48 34.73 32.83 34.90 35.18 35.40 35.73 35.77 36.29 36.83 37.21 38.14

GFSGL_sfc_wetblb_129.txt.gz
Wetbulb
69.69 69.46 69.63 69.56 70.13 70.22 70.19 70.38 70.75 70.40 70.91 71.11 70.89 71.50 71.68 71.87 71.61 71.57 70.31 70.84 69.89 69.80 70.25 69.87 69.02 70.11 69.48 69.82 69.36 69.32 68.43 66.56 64.08 66.62 67.16 69.13 68.96 70.03 70.94 71.41 72.40 72.42 72.42
70.52 69.95 69.99 69.79 70.37 70.36 70.81 70.72 71.14 71.47 71.42 71.68 71.80 71.50 71.40 71.41 71.54 70.89 70.60 71.32 70.30 69.28 69.58 68.87 69.81 70.94 69.28 69.72 69.34 68.98 68.64 68.54 67.14 64.85 66.74 68.35 68.63 70.06 70.33 70.91 72.10 73.43 72.40
70.52 70.08 69.61 69.78 69.87 69.52 70.59 71.27 71.30 71.11 71.41 71.12 71.67 71.40 70.86 71.41 71.84 71.29 70.85 70.54 71.23 71.12 70.07 70.20 70.08 69.86 68.85 69.26 68.98 69.04 69.25 69.77 68.31 67.35 67.17 68.20 68.44 69.37 69.64 70.01 70.92 70.80 73.01
70.71 70.06 69.81 69.77 70.24 70.39 70.32 69.97 70.60 70.95 71.00 71.10 71.18 70.62 71.48 71.21 71.72 71.56 71.75 70.88 70.71 71.39 71.34 71.65 72.17 70.72 69.90 69.41 69.25 68.70 69.06 67.86 67.68 66.47 65.73 66.29 66.94 68.31 69.06 68.36 69.44 69.75 70.37
70.28 70.04 69.90 70.39 70.49 70.27 70.06 70.02 70.58 70.88 70.95 70.99 71.48 70.79 71.50 71.32 69.38 68.93 69.43 69.64 70.14 70.39 71.21 71.21 71.29 71.20 70.07 69.71 70.34 69.27 68.98 67.66 67.41 66.07 65.64 66.13 66.60 66.98 67.28 68.76 67.90 68.67 69.24
68.61 68.56 68.45 67.98 68.02 68.25 68.63 68.47 68.81 69.08 70.55 70.08 69.99 69.88 68.07 68.45 64.01 64.97 66.53 67.05 68.38 69.82 69.98 70.08 68.62 69.01 68.39 67.30 67.50 67.62 69.21 67.97 66.47 65.88 65.72 65.36 65.98 67.05 68.33 68.09 67.14 66.30 66.25
68.42 68.36 68.29 67.88 66.83 67.57 69.08 69.52 68.74 68.43 68.27 67.66 66.51 66.20 65.18 64.66 61.69 62.52 63.22 66.27 68.63 69.53 69.33 70.50 69.94 68.10 66.45 68.04 66.95 65.78 65.33 65.33 66.35 67.46 66.72 66.53 66.42 67.77 67.10 66.18 66.11 65.88 65.20
67.66 68.09 68.47 68.16 67.36 67.43 68.45 68.72 68.81 68.56 68.56 66.73 64.07 61.82 60.62 60.87 56.57 58.14 60.67 63.82 68.04 69.55 69.62 68.79 66.40 62.54 61.28 65.07 68.54 65.69 62.82 62.02 62.03 65.49 64.05 62.39 62.76 63.90 64.64 66.88 66.89 66.82 65.19
66.91 67.43 67.80 67.66 67.05 67.30 67.90 68.04 67.66 67.38 67.09 65.42 62.79 59.58 58.01 55.68 54.43 56.15 60.50 64.80 67.25 65.17 64.21 63.09 61.67 61.13 59.54 62.04 66.51 65.24 57.30 58.71 60.42 61.08 60.72 60.56 61.16 61.71 63.04 64.36 63.23 61.85 60.73
66.40 66.78 67.73 67.16 66.89 67.12 66.80 66.82 66.55 66.36 64.35 60.14 56.38 54.70 54.26 51.59 52.93 56.03 64.48 64.87 61.24 58.79 58.36 57.37 57.71 56.07 54.54 58.43 56.65 55.43 55.70 56.05 59.31 58.38 57.45 58.27 58.35 58.67 59.56 57.68 58.23 56.54 58.43
67.09 66.82 66.98 66.62 66.08 66.14 66.21 65.21 63.56 60.83 58.72 55.97 54.29 53.84 53.12 51.92 51.54 53.18 58.62 61.84 60.19 60.11 59.32 56.05 54.52 54.54 53.00 54.11 57.19 57.30 55.79 57.32 58.00 55.84 55.24 55.06 54.68 54.38 54.80 54.93 54.88 55.91 54.32
65.64 65.84 65.14 65.10 66.68 65.94 63.88 62.89 61.05 58.50 56.47 55.10 53.17 52.61 52.12 50.40 51.48 51.75 51.92 54.66 58.69 57.70 55.45 55.26 55.46 52.93 50.95 52.31 54.78 53.91 54.88 55.67 54.28 52.77 51.55 50.72 50.46 50.69 51.22 51.93 52.21 53.98 52.30
59.23 57.55 56.55 55.49 55.94 59.88 62.82 61.75 60.53 58.55 54.86 52.45 52.91 54.02 53.41 52.37 50.69 49.65 50.02 51.10 52.21 53.93 55.51 55.20 53.31 51.22 51.11 51.83 52.75 52.85 53.26 53.96 51.17 49.58 48.72 47.94 48.15 48.49 48.09 48.16 48.20 51.11 48.19
56.41 55.39 54.55 52.02 50.50 49.84 48.44 49.59 53.44 57.15 56.54 54.90 54.22 53.20 50.47 47.21 44.78 43.90 45.21 46.44 50.80 53.04 55.22 54.01 53.06 52.23 51.75 51.48 50.68 50.36 50.67 49.18 48.42 47.95 46.85 46.73 46.44 46.24 44.94 45.41 43.90 44.51 43.36
57.09 54.24 52.29 51.19 51.65 47.53 44.86 44.62 45.32 43.00 43.48 48.83 55.89 55.17 48.08 45.08 43.27 42.40 42.83 44.56 45.79 45.56 50.35 50.50 49.71 49.25 47.95 47.43 47.56 47.71 47.57 47.39 46.52 46.11 45.32 44.10 43.79 43.08 42.83 42.89 42.07 40.39 38.98
56.88 55.32 52.70 51.00 48.47 47.59 46.44 44.84 43.89 44.21 44.74 43.23 41.80 48.18 43.27 43.31 41.33 40.41 39.76 40.09 42.73 43.45 48.62 47.98 46.87 46.44 45.42 44.72 44.80 44.56 45.01 45.50 44.55 43.67 42.72 42.21 41.54 41.36 40.06 40.29 40.06 39.35 38.52
52.88 52.59 52.40 50.26 49.76 47.82 46.80 46.62 45.15 44.07 42.81 41.73 42.22 43.11 41.46 41.34 40.12 39.23 39.21 41.55 42.34 46.71 46.12 45.52 44.87 44.43 43.46 43.35 43.29 43.13 42.37 42.61 43.32 42.45 41.64 41.26 41.31 41.33 40.39 39.95 39.40 39.18 39.23
45.16 49.83 50.00 52.00 50.96 48.97 48.41 46.79 42.42 41.20 42.95 43.41 41.27 40.76 39.90 39.39 39.24 38.76 39.46 43.41 46.62 46.38 45.58 43.81 42.34 42.09 41.72 41.26 41.01 40.91 41.00 40.93 40.12 39.70 39.51 39.61 39.34 39.20 38.61 38.07 38.69 38.02 38.18
46.03 44.91 44.87 45.83 47.62 50.66 48.18 45.40 42.16 41.10 40.47 38.93 38.29 40.97 40.05 40.14 40.36 40.07 41.86 45.74 45.43 44.43 44.00 42.44 41.41 40.76 40.59 40.48 40.24 39.75 39.32 38.74 37.53 36.71 36.24 36.20 36.32 36.64 36.47 37.12 36.66 38.19 37.93
43.72 48.92 45.80 43.83 42.98 44.68 47.06 46.84 43.33 42.31 40.27 38.12 37.92 38.97 40.74 42.92 43.15 43.78 43.98 44.10 43.33 42.25 42.71 42.58 41.93 41.71 41.38 40.08 39.08 38.60 37.48 36.82 35.65 35.21 34.78 34.50 34.61 34.76 34.75 34.70 34.67 34.84 37.41
44.94 43.36 47.11 41.31 41.94 41.07 42.20 42.68 44.80 44.46 43.38 40.14 39.45 40.48 41.62 42.99 42.24 42.46 42.44 41.89 43.02 43.20 42.13 41.84 41.43 40.89 40.89 40.08 38.91 38.53 37.81 36.07 34.46 34.31 34.01 33.44 33.68 33.26 33.77 33.49 34.10 36.75 37.31
44.80 44.04 42.27 40.98 40.61 41.18 41.91 41.81 41.73 44.02 43.56 41.33 40.40 40.97 41.83 43.27 42.65 42.33 42.16 42.48 42.25 42.17 42.16 42.09 41.20 40.15 39.88 39.91 39.69 38.20 36.82 36.00 35.60 35.20 34.57 33.77 33.42 33.91 34.41 34.70 35.61 35.66 36.29
45.47 44.78 43.59 41.58 40.70 42.30 41.10 40.52 39.83 41.75 43.02 42.67 40.66 40.03 39.94 42.06 42.10 41.94 42.33 42.09 42.61 42.39 41.91 42.01 40.98 39.73 39.20 39.30 39.40 38.48 36.39 35.47 35.40 35.60 35.00 34.61 34.55 35.19 35.66 34.80 34.91 35.13 35.88
46.16 45.37 44.34 43.26 41.40 39.52 39.41 39.86 39.79 40.72 41.35 41.40 39.89 39.04 39.42 41.84 42.18 42.01 41.67 41.14 41.37 41.74 41.62 41.27 40.76 39.24 38.81 38.65 37.60 37.17 36.79 36.31 36.08 35.58 35.66 34.80 35.82 36.42 35.83 35.21 35.48 35.96 35.99
47.67 47.03 44.85 44.09 42.46 40.57 40.23 40.23 40.09 40.38 41.58 41.13 39.74 38.50 39.80 41.46 41.33 41.72 41.29 40.76 40.47 40.06 39.43 39.22 38.57 38.22 37.74 37.19 36.14 35.41 34.74 34.80 35.33 35.19 35.14 35.07 35.42 35.44 34.62 35.36 35.68 36.24 36.90
51.16 49.59 49.24 48.02 45.27 42.61 41.14 40.18 40.30 39.84 40.30 41.85 40.70 38.86 40.50 42.07 41.70 41.19 41.06 40.43 39.48 38.86 38.58 38.31 38.25 38.02 37.70 36.80 36.26 35.11 31.55 32.12 34.51 33.30 34.53 34.10 34.15 34.57 35.54 36.33 36.93 37.27 38.06

GFSGL_sfc_wetblb_132.txt.gz
Wetbulb
69.30 69.41 69.96 69.66 70.22 70.64 70.03 70.64 70.99 71.83 72.25 72.21 72.33 72.44 72.71 72.70 73.52 73.22 72.90 72.81 72.53 72.26 73.06 72.89 72.20 73.11 72.95 72.68 72.06 72.53 71.22 69.87 68.01 70.42 70.73 72.76 73.34 73.46 74.15 75.12 75.22 75.53 74.85
69.84 69.54 69.94 70.38 70.73 70.52 71.02 71.12 71.69 71.69 72.68 72.63 72.90 72.46 72.65 73.08 73.41 72.81 72.62 73.12 72.36 71.81 71.97 72.24 72.41 72.24 72.56 72.70 71.89 72.27 71.84 71.59 70.41 69.55 70.73 71.97 72.68 73.30 74.05 74.34 73.92 74.19 74.59
70.32 70.00 69.97 70.43 70.43 70.73 71.42 72.32 72.27 72.37 72.56 72.61 72.87 72.78 72.68 72.96 73.01 72.89 72.89 72.59 72.72 72.79 72.61 71.55 71.86 72.09 71.85 71.51 71.89 71.48 71.56 71.84 71.94 70.54 70.50 71.41 71.45 72.31 72.88 73.53 73.80 73.95 74.53
70.52 70.48 70.05 70.08 70.59 70.83 71.12 71.47 72.09 72.33 72.45 72.89 72.83 72.60 71.93 72.17 72.98 73.48 73.13 72.77 72.67 72.97 73.24 73.03 73.46 72.83 72.25 72.39 71.70 72.20 71.94 71.61 70.69 70.19 69.21 69.40 70.72 72.21 72.27 71.74 71.23 72.53 72.73
70.44 70.17 70.25 70.77 71.20 71.44 71.51 71.65 71.93 72.27 72.07 72.46 72.64 72.97 72.78 72.89 72.06 72.82 72.84 73.23 72.87 72.59 72.46 72.90 73.31 72.64 70.70 71.03 72.95 72.15 72.18 71.49 70.93 69.84 69.10 69.83 70.06 70.69 71.08 71.62 70.89 70.89 72.38
70.21 70.03 70.27 70.33 70.58 71.10 70.90 70.61 70.99 71.69 71.62 71.76 72.04 72.32 71.32 69.68 64.31 65.04 67.44 69.57 70.43 70.87 71.40 72.41 72.09 69.59 69.10 67.50 67.50 67.48 70.52 71.74 70.88 69.43 69.81 69.59 70.20 70.64 71.51 70.89 70.24 68.70 67.51
68.97 68.95 69.15 69.10 69.19 69.19 69.42 69.71 68.81 69.41 69.82 68.88 69.30 69.01 67.44 66.04 60.86 60.42 62.89 66.29 69.23 70.41 71.11 71.77 71.21 71.80 67.86 69.67 66.32 65.18 64.90 64.57 66.58 70.61 70.22 69.82 69.96 70.88 68.68 69.40 69.98 69.15 68.78
67.73 67.93 68.65 67.95 67.10 67.55 68.79 69.13 69.15 69.12 69.21 67.89 66.54 65.76 64.55 61.22 57.28 57.07 59.92 63.29 66.06 69.23 69.55 70.58 70.94 67.84 64.39 66.11 70.20 66.32 63.96 64.16 64.65 67.03 66.88 65.80 65.71 66.89 67.67 70.10 70.58 69.58 69.34
67.21 67.36 68.00 68.29 67.20 67.00 66.89 68.02 68.27 67.84 67.52 65.30 63.32 62.10 61.12 57.45 54.91 56.72 60.19 64.33 67.77 64.86 64.25 63.87 64.00 63.37 60.13 63.08 68.85 63.01 62.56 63.22 60.13 59.30 59.14 58.92 58.61 59.14 60.99 66.12 63.62 65.80 64.57
66.43 66.68 67.93 67.72 67.23 67.00 67.61 67.84 67.57 67.34 64.47 60.09 56.68 55.56 54.38 54.30 54.58 55.84 60.24 67.50 63.16 61.37 59.85 58.69 56.64 57.53 56.11 57.44 64.52 62.42 62.39 61.41 61.11 60.02 58.89 58.25 58.38 58.26 58.61 59.65 61.95 62.11 62.57
67.00 66.77 66.96 66.84 66.62 66.96 66.96 66.09 64.10 62.29 59.13 56.94 54.52 54.71 53.32 54.60 55.15 55.24 58.19 64.21 61.27 60.95 60.38 59.04 58.46 54.79 52.72 53.49 56.71 62.98 62.04 60.53 58.09 57.11 56.19 55.61 55.33 55.57 55.95 56.75 55.89 58.37 56.52
66.62 66.07 65.91 66.25 67.11 66.01 64.13 62.45 60.98 58.87 56.72 55.27 53.38 52.80 52.68 52.90 51.80 52.35 55.22 56.88 58.70 57.12 56.28 57.16 53.36 50.67 50.82 52.63 54.50 53.69 54.40 56.36 55.96 54.19 53.14 52.03 51.67 51.61 52.54 53.48 52.99 52.53 52.48
60.66 59.27 58.87 59.85 61.38 64.15 62.89 60.90 58.81 58.04 55.65 53.83 53.34 53.03 53.36 53.29 51.79 50.09 51.83 53.79 55.09 56.44 57.04 54.52 52.13 50.15 50.28 51.63 52.06 52.32 54.09 54.95 53.72 50.52 50.26 49.91 49.66 49.45 50.67 50.77 52.10 51.52 49.96
56.10 55.32 54.92 53.99 52.99 52.82 52.30 54.45 58.69 57.90 55.91 54.50 55.03 55.21 52.30 49.86 47.97 48.14 48.92 53.11 54.81 56.54 55.92 55.13 53.39 52.14 51.28 51.09 51.08 51.36 52.61 51.66 51.35 50.20 48.73 48.39 48.39 47.12 46.22 47.19 45.75 48.17 45.91
54.86 54.32 53.85 53.61 50.62 48.80 45.08 45.24 46.59 44.17 44.82 52.18 55.24 55.39 49.91 47.87 45.59 44.11 45.42 48.43 51.50 50.32 52.47 52.18 51.21 49.83 48.51 48.35 48.84 49.49 49.21 49.01 47.81 47.60 47.11 46.02 45.18 44.76 44.50 45.61 44.91 44.65 43.33
55.43 54.27 52.21 51.37 50.60 50.19 49.48 47.25 44.22 44.35 43.88 43.11 42.93 47.36 43.81 42.39 41.37 40.37 39.31 40.18 43.24 44.91 50.00 49.17 48.52 47.82 47.82 48.05 47.16 46.13 46.77 46.42 46.01 45.76 44.93 44.58 43.66 43.40 43.35 43.53 43.84 43.19 42.40
54.89 52.23 51.00 50.19 49.08 48.20 48.59 49.48 49.24 45.18 42.53 41.04 41.35 42.56 42.13 41.26 40.55 39.14 38.81 40.58 42.10 45.95 50.05 47.86 47.09 47.23 46.79 46.45 45.78 44.91 43.80 44.28 44.73 43.66 43.10 42.95 42.62 42.37 42.15 41.33 41.50 41.74 41.41
51.92 51.53 53.75 52.11 50.29 50.03 49.58 48.67 45.74 45.57 45.78 44.51 41.20 41.21 40.03 39.89 39.82 39.65 39.77 41.86 48.06 46.98 47.47 46.67 45.52 45.47 46.30 45.39 44.89 43.91 43.16 42.53 42.02 41.87 41.27 41.37 41.67 41.52 40.78 40.47 40.78 40.58 40.86
47.93 48.21 48.34 48.69 51.01 51.22 50.24 47.82 45.33 44.47 44.27 42.61 43.33 42.68 41.24 40.26 39.96 39.32 39.94 48.34 47.41 45.75 45.33 44.86 45.60 45.32 44.80 44.33 43.78 42.84 42.11 41.27 40.56 39.87 39.37 39.34 40.09 40.67 39.43 39.40 40.29 39.60 40.43
47.86 49.37 47.57 46.95 47.68 51.21 50.48 48.19 45.47 45.29 44.46 43.19 42.69 43.22 44.47 45.35 46.44 46.52 47.39 47.32 47.00 46.30 45.72 44.82 44.34 43.97 43.58 43.24 42.55 41.83 40.37 39.53 39.02 38.70 38.47 38.61 38.72 38.82 38.37 38.55 39.15 39.39 40.09
47.24 46.60 47.89 45.66 45.89 45.84 46.87 48.65 49.13 47.02 46.60 44.35 43.61 43.45 42.11 47.13 46.19 46.44 46.15 46.12 45.91 45.66 44.99 44.70 44.12 43.90 43.48 42.78 42.09 41.02 39.49 38.41 37.86 37.45 37.11 37.10 37.47 36.94 37.81 38.52 38.76 39.29 39.56
48.12 48.12 46.82 45.94 45.02 45.29 46.04 46.16 46.40 46.85 47.78 46.89 44.16 44.22 41.46 46.89 45.99 45.77 46.05 46.18 46.19 46.03 45.57 44.93 44.07 43.45 43.53 43.03 42.25 41.23 39.66 38.34 38.14 38.31 37.85 37.76 37.77 37.48 37.94 37.74 37.77 38.27 39.20
48.91 48.46 47.18 46.25 45.38 44.93 44.95 45.32 44.94 45.99 47.21 47.40 45.38 45.01 45.49 46.51 45.89 45.86 46.06 46.30 45.81 45.53 45.04 44.75 43.84 43.07 43.09 43.16 42.75 41.57 39.53 38.25 38.72 39.00 38.14 37.89 37.77 37.53 37.52 37.29 37.76 38.47 39.26
50.28 48.95 48.16 47.34 46.57 45.47 44.60 44.52 44.81 42.43 45.50 46.76 46.42 45.08 45.39 46.37 46.62 46.10 46.06 45.81 45.55 45.34 45.06 44.53 44.04 43.34 42.77 42.42 41.95 41.02 40.08 39.37 39.48 39.34 39.11 39.05 38.70 37.89 38.20 37.99 38.38 38.12 38.24
51.24 49.42 48.65 48.15 47.66 47.06 46.04 44.63 44.17 44.76 45.23 45.57 45.12 44.85 44.56 45.57 46.01 46.12 46.10 45.56 45.58 45.16 44.35 44.22 43.66 43.31 42.76 41.73 40.98 40.43 37.11 35.07 38.82 36.91 39.31 39.08 38.81 38.35 38.30 38.69 38.21 38.23 38.62
52.43 51.67 50.92 49.93 48.74 47.44 46.17 45.53 43.47 44.76 44.40 45.29 45.65 44.16 43.98 44.78 45.72 45.87 45.26 44.86 44.76 44.68 44.43 43.81 43.40 43.03 42.46 41.81 41.15 37.50 31.84 32.58 37.06 34.23 39.60 39.83 39.85 39.91 40.23 39.44 38.87 39.61 39.60

GFSGL_sfc_wetblb_135.txt.gz
Wetbulb
72.94 73.40 73.08 72.69 73.54 74.12 74.04 74.55 75.39 75.81 75.75 75.71 76.25 76.27 76.34 76.06 76.77 76.92 76.75 76.47 76.14 76.30 76.56 76.69 76.64 77.02 75.82 75.85 75.64 75.66 74.66 74.31 71.00 72.42 74.87 76.01 77.09 76.36 76.72 77.92 77.11 76.79 76.49
73.46 73.61 73.52 73.75 73.45 73.21 73.63 74.55 75.31 75.43 76.22 76.23 76.66 76.01 76.17 76.22 76.45 76.43 75.96 75.57 75.66 75.49 75.73 75.80 75.78 75.55 76.25 77.13 75.76 75.97 74.97 75.82 73.23 72.73 74.65 74.99 75.66 76.03 77.17 76.95 75.95 76.23 77.01
73.37 73.23 73.41 73.47 73.91 73.96 74.13 75.27 75.70 75.17 75.42 75.92 76.55 76.22 76.66 76.41 76.28 76.51 76.35 76.09 76.23 75.95 75.92 75.37 75.09 75.59 75.62 75.49 75.88 75.25 75.76 75.02 75.03 73.53 73.06 75.00 74.47 76.04 75.49 77.07 75.74 77.02 75.34
73.38 73.43 73.15 73.48 73.86 74.23 74.60 75.07 75.51 76.37 75.93 75.81 76.41 76.62 76.59 76.60 76.16 75.99 75.92 76.08 76.03 75.84 76.00 75.77 75.89 76.00 75.58 75.78 75.37 76.04 75.56 74.95 75.03 73.82 72.85 72.93 73.59 75.85 75.70 73.86 73.08 74.66 71.52
73.26 73.62 73.69 74.45 74.64 74.89 74.70 75.00 75.63 75.44 76.24 75.64 75.87 76.29 76.44 76.10 75.16 76.02 76.41 76.08 76.29 75.72 75.87 76.25 76.17 74.97 70.51 72.02 76.82 77.43 76.71 76.69 76.15 74.88 72.18 72.67 72.61 72.65 73.29 74.23 72.90 73.42 72.44
72.48 73.48 74.44 74.52 74.65 74.63 75.10 74.77 75.49 75.61 75.91 75.74 74.23 75.22 75.28 75.53 64.58 65.65 69.84 75.16 75.15 75.38 75.52 75.60 76.05 72.00 71.27 67.89 67.91 67.57 70.86 75.63 75.29 74.34 74.82 73.89 74.16 73.46 74.50 72.82 72.50 71.03 69.97
71.46 72.84 73.72 74.29 74.19 74.54 75.13 74.86 74.62 74.67 75.14 75.02 74.96 74.83 73.16 73.22 61.96 61.97 63.90 72.74 73.71 74.31 74.31 74.37 75.05 75.21 71.72 73.25 67.11 65.82 65.30 64.77 67.13 74.58 73.83 73.30 73.33 74.62 72.93 72.27 72.99 71.70 69.61
72.76 72.50 72.93 72.56 72.69 72.78 73.75 73.99 73.88 73.62 73.42 73.19 72.22 71.59 70.97 64.99 57.15 57.32 61.18 70.54 71.02 71.98 73.19 73.57 73.42 74.26 70.28 69.35 71.30 70.79 68.99 68.48 69.31 71.92 72.62 71.52 70.51 70.93 71.23 73.77 73.54 72.02 67.86
70.14 69.89 69.83 69.90 69.04 68.90 68.93 70.64 69.74 70.05 69.83 69.37 70.32 68.76 68.14 65.63 55.91 56.08 60.66 70.36 70.73 70.42 65.88 64.66 65.61 66.14 60.60 61.85 69.86 65.61 66.91 64.31 58.97 58.40 58.60 58.52 58.60 59.70 64.51 71.76 68.40 67.83 68.25
67.08 68.09 68.75 68.86 68.25 67.89 67.96 68.43 69.22 68.88 66.35 62.31 59.10 58.19 55.52 60.92 56.70 55.53 60.07 69.75 68.09 65.36 61.50 62.22 57.43 60.98 57.33 59.20 71.24 67.79 66.35 65.53 64.34 63.82 63.86 62.58 62.97 61.56 59.66 64.72 66.22 66.35 65.57
68.80 69.04 68.66 68.64 68.09 67.80 68.61 67.30 66.55 64.42 61.62 59.03 57.04 55.86 56.41 54.49 59.63 54.47 58.35 66.83 64.53 61.79 61.15 61.59 60.54 54.85 53.30 53.74 58.10 67.99 66.54 65.76 61.59 63.07 62.22 61.39 61.24 61.43 60.55 60.19 60.28 61.07 62.24
67.33 68.05 68.45 68.32 68.23 66.80 64.66 62.75 62.53 61.44 58.81 57.02 55.77 54.43 55.69 55.98 51.96 53.71 54.67 57.84 59.47 59.08 57.91 56.24 53.01 50.64 50.24 52.10 55.42 53.75 54.72 58.28 60.02 59.61 59.29 57.95 57.76 57.19 58.40 57.34 57.33 56.86 55.96
64.21 61.61 61.62 62.05 62.08 65.02 63.03 60.74 59.35 59.05 57.76 55.82 56.49 55.60 55.30 54.52 54.72 51.32 52.48 54.21 55.96 60.31 58.58 54.21 51.98 50.00 50.58 52.58 52.57 53.24 55.47 56.40 54.85 53.62 50.51 50.36 51.27 52.38 55.78 56.96 55.84 54.99 54.53
58.64 57.71 55.64 55.47 54.45 55.07 56.01 59.79 60.13 59.77 58.59 59.80 58.45 56.55 54.73 54.66 52.70 52.41 53.19 56.52 56.06 56.98 55.98 55.17 52.53 52.28 51.84 52.27 52.69 53.10 53.36 53.98 53.69 52.73 50.87 52.49 52.89 51.67 51.32 52.36 51.86 55.26 53.30
56.85 55.75 54.93 54.19 52.31 50.20 48.28 49.65 49.33 46.59 48.89 57.05 57.09 54.50 50.59 48.27 43.92 43.05 43.47 47.64 52.70 54.73 53.88 54.09 53.30 52.28 50.64 51.18 50.68 51.36 51.36 51.58 51.15 50.79 49.85 49.11 49.35 49.42 49.82 51.17 50.74 50.96 49.60
54.90 54.75 53.75 54.10 54.37 53.40 51.45 48.95 46.53 45.01 43.80 42.14 42.96 46.23 44.14 43.80 41.79 40.61 40.44 41.06 43.12 46.19 55.74 53.36 50.80 50.66 50.63 50.96 52.53 53.06 53.04 51.50 51.98 52.18 50.75 49.54 49.06 48.54 48.52 49.09 49.83 48.33 47.79
58.64 55.65 54.28 54.42 55.40 54.64 55.36 55.37 52.46 45.66 42.91 42.35 41.95 42.14 43.23 44.86 41.14 39.75 40.10 41.74 42.33 46.32 55.16 53.22 54.64 52.24 49.68 49.22 50.79 50.39 51.13 50.33 51.35 50.35 49.94 49.13 48.81 48.07 48.94 47.68 47.60 47.57 47.29
58.98 52.78 57.29 56.21 55.71 55.33 53.85 51.98 51.54 52.19 51.27 49.46 42.57 43.64 41.65 40.73 40.35 39.95 40.52 44.53 49.80 50.02 52.17 50.97 49.69 49.33 47.70 49.17 48.16 50.39 47.59 49.63 48.79 48.50 48.05 48.56 48.77 49.53 48.40 47.79 48.22 47.88 48.88
55.50 54.13 54.11 55.79 57.44 55.12 55.26 53.94 51.91 50.97 49.83 47.05 46.32 43.74 42.69 39.50 39.09 39.03 40.01 52.43 53.17 52.14 51.84 52.89 51.83 49.93 48.01 46.86 47.02 47.14 46.43 46.98 46.76 47.18 47.92 47.52 47.77 48.09 47.61 47.92 45.49 42.82 44.41
53.70 50.56 52.45 53.21 55.79 56.89 56.94 56.25 52.08 52.52 51.52 50.71 49.96 50.19 49.81 49.07 52.05 52.02 51.23 51.97 53.13 53.65 52.57 51.83 51.26 50.79 49.76 49.32 48.13 45.86 44.22 43.50 44.53 43.76 44.63 44.64 44.01 44.45 45.28 45.08 45.35 45.99 46.56
54.33 53.33 50.00 52.94 53.50 53.55 54.29 55.38 55.16 54.90 54.14 52.83 51.81 50.35 44.13 52.63 54.25 53.53 52.90 53.09 53.22 53.28 52.13 51.74 51.24 50.01 49.34 48.45 47.40 46.94 46.33 44.63 43.85 42.78 42.56 41.90 42.13 42.72 43.06 43.36 43.45 43.41 45.32
56.65 56.12 55.50 55.55 54.50 53.35 53.57 53.75 53.16 52.73 53.28 53.44 53.31 50.05 41.16 51.61 53.59 53.41 53.55 53.22 53.15 52.93 52.87 51.98 50.71 50.05 49.45 48.61 47.76 46.60 45.51 44.05 43.82 44.03 42.52 41.77 42.19 42.32 43.16 43.00 42.52 43.59 44.88
57.57 57.08 56.04 55.13 54.43 50.93 51.78 52.39 52.10 52.26 52.40 53.14 53.31 52.04 50.24 52.16 52.65 52.92 52.74 53.02 52.58 52.05 51.81 51.12 50.45 49.57 49.56 49.16 48.78 48.12 46.31 45.22 45.26 45.24 44.23 43.28 42.37 42.97 43.00 44.03 44.75 44.88 45.99
58.02 57.89 56.45 55.16 53.97 53.13 52.80 52.62 52.70 47.29 50.88 52.49 53.37 52.67 52.45 52.64 52.91 53.08 53.20 53.07 52.42 51.93 51.15 50.54 50.06 49.07 48.64 48.37 48.00 47.43 46.84 46.13 46.07 45.59 45.66 45.61 44.59 41.76 44.65 44.70 45.45 44.40 46.15
59.28 58.33 57.34 56.22 55.42 54.72 53.86 52.63 52.70 52.69 51.73 51.65 51.98 52.34 52.96 52.95 52.78 52.83 52.70 52.63 51.94 51.32 50.54 50.11 49.72 49.11 48.57 48.14 47.40 46.54 39.37 36.54 43.99 40.35 46.15 44.81 44.10 43.46 44.99 46.43 46.51 46.97 45.41
57.72 57.44 56.95 56.77 56.00 55.30 55.49 55.12 54.47 52.31 51.37 48.61 49.54 51.13 51.90 52.08 52.24 52.38 51.92 51.08 50.46 49.74 50.12 49.57 49.33 48.88 48.56 48.02 46.85 38.99 32.15 33.85 39.89 34.77 46.38 46.37 45.76 45.79 46.23 45.94 44.85 47.29 45.76

GFSGL_sfc_wetblb_138.txt.gz
Wetbulb
75.22 74.93 75.20 75.18 75.59 76.13 75.53 76.20 76.67 77.01 76.55 77.15 77.37 76.94 76.69 76.95 77.60 77.81 77.16 77.27 76.79 76.90 76.86 76.75 76.95 77.91 75.79 75.28 75.49 74.88 74.11 73.34 71.03 72.10 73.78 76.67 77.18 77.53 77.41 78.21 77.62 77.14 75.86
75.42 75.34 75.19 75.58 75.77 75.09 75.08 75.81 76.57 76.92 78.18 78.00 77.68 76.77 76.59 76.57 77.34 76.97 76.13 75.94 76.43 76.24 76.40 76.50 76.20 75.72 77.18 77.39 75.22 76.25 75.60 76.22 73.49 72.92 75.07 74.32 76.73 77.15 77.59 78.00 76.75 76.64 77.10
75.51 75.10 75.27 75.42 75.45 74.92 75.18 76.19 76.50 76.91 77.40 77.47 77.71 76.96 77.11 76.71 76.97 76.99 76.71 76.41 76.45 76.38 76.58 76.38 76.24 76.47 76.30 76.07 76.70 75.18 75.06 74.83 75.65 73.65 73.03 75.09 75.73 76.23 75.94 77.87 77.26 78.29 76.09
75.42 75.43 75.12 75.43 75.81 75.66 76.13 76.46 76.87 77.43 77.28 76.85 77.34 77.54 77.16 76.90 77.09 77.18 76.84 76.62 76.53 76.44 76.67 76.48 76.22 75.94 76.10 76.37 75.88 76.00 75.65 75.22 75.59 74.31 73.41 73.21 74.24 76.74 75.68 74.15 74.99 75.02 72.84
75.42 75.49 75.71 76.35 76.48 76.40 76.38 76.59 76.70 76.92 77.60 77.07 77.15 76.43 76.56 76.23 75.87 76.32 77.54 76.90 76.58 76.52 76.56 76.41 76.45 75.22 71.37 72.16 75.23 77.47 76.29 74.57 73.58 74.54 72.35 72.82 72.89 73.38 74.36 74.46 73.91 74.10 73.08
75.60 75.39 76.21 76.68 76.68 76.26 76.40 76.34 76.48 76.66 77.29 77.25 76.42 75.77 75.51 76.51 64.77 65.85 70.00 76.81 76.64 76.00 75.33 76.39 76.67 73.60 72.79 69.48 68.32 67.96 71.06 75.86 75.68 72.89 72.35 72.58 73.77 73.99 76.48 74.45 73.42 71.95 70.97
74.56 74.93 75.21 76.40 76.53 76.80 76.57 76.46 76.51 76.62 77.00 76.51 76.47 76.20 75.52 69.20 60.27 61.07 63.67 74.29 76.42 76.59 76.00 75.90 75.79 75.07 73.63 76.32 68.23 66.79 65.97 66.30 68.14 75.38 74.62 74.52 74.91 75.89 76.33 74.14 74.66 73.01 71.52
73.48 73.18 74.30 75.37 76.03 76.60 76.21 76.01 76.47 77.14 76.43 76.26 75.73 75.79 75.23 67.79 57.57 58.11 60.28 72.32 75.07 75.68 75.59 75.87 75.12 75.16 74.82 73.67 74.79 74.96 73.92 71.10 67.77 72.44 75.18 74.42 72.97 73.35 73.79 74.81 75.00 73.76 71.64
72.94 73.58 74.74 74.73 74.43 74.93 74.11 74.76 73.80 74.57 74.14 75.02 74.76 74.07 74.03 71.94 57.09 58.02 63.36 72.57 73.38 73.96 74.69 71.57 69.16 71.80 61.87 61.54 72.43 73.73 71.79 65.95 59.61 58.73 58.78 58.92 59.24 60.31 64.47 73.71 72.34 69.19 68.92
72.22 71.79 72.01 72.73 69.83 71.54 69.46 70.19 70.04 70.58 68.66 66.26 63.06 63.32 58.79 64.24 55.92 55.36 63.32 71.25 72.33 71.56 71.27 71.25 56.87 63.41 57.71 59.03 67.88 69.83 67.79 68.06 65.18 65.28 65.20 64.06 65.43 63.47 62.22 67.18 68.18 66.98 66.36
71.31 71.63 71.26 70.24 70.11 71.15 71.18 70.38 69.94 66.58 64.27 61.47 58.89 58.16 57.62 55.27 59.13 54.07 57.29 69.14 68.59 66.59 66.67 66.38 61.75 54.38 53.18 53.92 56.76 71.83 69.42 70.15 65.77 67.81 66.42 65.69 66.33 65.47 64.06 63.89 63.61 62.42 62.84
71.10 70.98 71.38 71.07 70.04 67.78 65.40 64.20 62.51 61.83 58.57 56.94 55.96 56.30 58.08 58.39 52.45 53.47 54.05 56.74 59.90 62.46 59.07 56.78 53.52 50.32 50.01 52.00 56.18 53.85 55.40 60.88 64.35 63.14 62.86 56.97 58.78 57.82 60.22 58.95 59.68 59.90 58.07
69.11 68.04 65.92 65.52 65.13 67.29 64.68 62.72 60.81 59.54 57.57 56.80 56.62 56.40 56.24 56.95 57.24 53.10 53.26 55.17 56.78 61.77 60.06 52.72 51.88 50.79 52.04 53.02 52.98 54.30 56.25 58.46 56.85 54.46 52.26 51.03 52.29 53.71 56.94 58.35 57.07 58.30 58.44
64.22 61.82 62.52 60.20 57.43 57.84 60.75 63.04 62.38 61.44 59.81 58.65 58.97 57.89 57.16 58.21 58.96 60.32 61.17 60.15 56.36 57.03 56.32 54.70 53.61 53.38 52.97 53.42 54.24 53.82 54.10 53.59 53.51 53.66 51.86 53.64 53.76 54.91 53.32 55.03 55.03 55.74 56.89
60.92 58.59 55.94 55.16 53.60 49.93 50.23 53.40 56.27 53.19 54.15 60.22 59.09 56.36 53.46 52.98 51.49 49.81 52.84 59.48 60.85 56.71 56.60 57.95 55.68 56.70 55.86 55.10 54.99 54.21 54.01 53.62 52.04 51.90 50.64 51.46 51.53 53.81 51.96 54.66 53.71 54.32 53.42
56.90 56.29 56.30 56.84 55.35 53.55 53.16 52.74 45.71 45.43 44.24 42.71 42.92 49.13 48.63 44.69 41.99 41.06 40.94 41.99 46.55 49.76 58.62 61.42 57.97 55.16 54.05 55.29 57.36 57.86 57.15 56.34 57.70 57.33 56.66 56.63 55.55 54.92 54.05 53.66 54.52 53.88 53.13
57.56 58.04 58.13 60.18 61.64 62.15 60.99 59.81 57.92 50.27 43.47 42.84 42.52 42.65 44.46 44.30 41.32 40.16 40.61 41.45 43.61 47.78 55.79 55.48 54.69 55.41 52.21 53.76 53.43 53.36 52.20 54.04 55.50 55.23 55.78 55.49 55.19 52.75 52.92 53.65 53.35 53.60 53.44
60.47 54.21 59.79 59.17 59.35 58.57 58.08 57.87 58.50 57.86 56.85 58.12 44.04 44.96 43.21 41.48 40.81 40.43 42.25 46.07 52.29 51.78 53.87 54.09 52.87 51.04 53.23 53.17 51.37 52.39 49.95 50.81 51.70 52.76 51.59 52.18 51.97 53.40 53.29 53.23 53.01 51.65 51.82
59.35 58.05 59.47 60.14 60.29 57.77 58.68 57.34 56.87 56.00 54.54 54.02 53.39 45.18 43.52 40.28 39.63 39.79 40.61 54.48 56.34 56.75 56.51 57.07 57.41 57.26 56.16 54.92 54.26 53.61 54.11 52.71 50.96 51.39 49.83 50.00 51.48 52.09 50.50 49.71 49.06 42.27 44.97
56.95 53.96 55.76 58.26 58.01 59.12 59.90 58.45 57.44 58.29 57.91 57.15 56.29 56.19 54.01 51.58 54.50 54.86 53.70 53.85 54.35 54.93 56.22 55.87 56.09 55.97 54.95 54.06 53.34 53.59 50.18 49.27 48.57 48.41 48.18 47.85 47.42 48.10 46.94 47.52 47.81 46.99 47.32
57.42 56.27 51.82 58.42 58.62 59.10 59.84 59.02 59.13 57.75 56.80 56.37 56.10 55.15 45.55 55.19 56.27 56.76 56.03 55.58 56.03 56.48 56.77 56.46 55.15 54.36 54.29 53.30 53.20 51.58 50.58 50.09 50.07 49.71 48.85 48.34 49.09 48.66 48.20 47.27 47.24 47.53 46.77
59.82 58.52 58.62 59.25 58.40 56.85 57.59 57.42 56.73 56.30 56.53 56.41 57.01 54.53 42.62 51.95 55.77 56.43 56.85 57.03 57.62 58.24 58.05 57.25 56.19 55.31 54.98 53.49 52.67 52.17 50.47 49.67 49.61 49.02 49.13 49.32 49.30 49.01 48.86 48.73 49.05 48.76 48.44
62.84 62.45 61.30 60.88 59.50 52.71 55.55 56.44 56.08 55.73 55.39 55.69 55.96 55.51 54.37 53.87 55.53 55.95 56.09 56.79 56.81 56.89 56.94 56.24 55.60 54.73 54.65 53.67 52.98 52.24 50.81 50.15 50.57 51.32 50.67 50.16 49.16 48.91 48.93 48.76 49.08 48.46 48.97
61.82 62.04 60.96 60.93 60.24 58.62 58.06 56.89 56.44 50.63 53.67 55.20 55.82 55.97 55.50 55.41 55.35 56.03 56.39 56.32 56.09 55.89 55.75 55.01 54.53 53.52 53.10 52.70 52.64 52.18 51.62 51.37 50.94 50.31 49.77 50.82 50.91 45.82 49.54 50.09 50.16 48.61 50.42
60.43 60.65 60.23 59.81 59.11 58.81 58.80 58.33 57.78 57.37 56.63 55.90 55.43 55.63 56.16 56.10 55.76 56.14 56.53 56.67 56.22 55.72 54.92 54.33 53.91 52.92 52.27 51.66 51.15 50.09 40.02 38.61 47.30 43.18 50.95 49.69 48.70 47.22 50.14 50.71 50.26 49.17 47.39
58.88 58.28 57.03 57.16 56.94 57.15 57.46 57.63 57.62 57.94 57.85 56.35 53.94 53.87 54.49 54.41 53.46 55.68 56.03 56.24 55.55 55.12 54.69 53.67 52.99 52.10 51.11 49.92 49.10 38.51 32.43 35.54 42.33 36.08 48.03 50.18 49.26 49.36 49.95 49.17 46.99 48.71 47.93

GFSGL_sfc_wetblb_141.txt.gz
Wetbulb
75.45 75.78 76.16 75.73 75.82 75.93 75.63 76.06 76.37 77.36 77.61 77.14 77.54 77.29 77.23 77.01 77.45 78.58 78.09 77.76 77.18 77.39 77.39 77.34 77.31 79.94 75.58 74.72 75.47 74.65 73.22 72.59 70.73 72.34 73.63 77.74 77.26 76.80 77.27 77.94 77.47 74.96 72.40
75.71 75.85 75.35 75.92 76.18 75.40 75.74 76.00 76.74 77.24 78.01 77.67 78.00 77.50 76.68 76.85 77.54 77.19 76.38 76.07 76.22 75.86 76.06 77.75 76.34 75.16 79.50 79.70 75.25 77.57 75.23 76.79 72.60 75.18 74.42 74.56 76.68 77.54 77.57 77.61 76.57 75.76 72.31
75.89 75.31 75.43 75.68 75.64 75.62 75.86 76.57 76.55 77.56 77.54 77.43 77.67 77.29 77.20 77.06 77.25 77.23 77.28 76.75 76.44 75.89 76.53 76.50 76.63 76.28 76.95 76.36 77.31 76.43 75.52 74.26 76.63 74.81 72.31 75.42 73.98 75.44 76.28 77.54 78.22 74.63 70.40
75.88 76.78 77.22 76.29 76.68 75.95 76.31 77.20 76.81 77.96 78.51 78.38 78.07 78.20 77.57 77.24 76.76 77.33 77.04 76.84 76.78 76.22 76.93 76.09 76.61 75.25 76.67 77.20 76.16 77.54 77.06 75.66 75.64 73.10 73.13 73.34 73.34 77.22 74.10 73.20 72.79 74.65 70.90
76.38 76.06 77.24 78.41 78.05 78.37 77.83 78.18 77.32 78.08 78.41 78.43 77.36 77.21 76.95 76.41 75.51 77.01 77.87 77.23 76.87 76.31 76.90 76.45 76.35 75.67 72.47 73.51 75.08 77.90 77.55 74.43 74.95 77.14 72.22 72.20 72.21 72.70 74.21 74.23 73.42 77.38 74.32
77.04 75.78 77.60 77.55 77.59 77.70 77.40 77.50 77.93 77.38 77.26 77.79 77.03 77.59 76.34 76.60 66.20 67.36 70.51 75.87 76.16 76.60 75.99 77.31 77.03 74.80 73.89 71.17 71.29 70.03 71.45 76.21 76.05 72.94 71.94 71.34 75.06 74.44 74.91 76.27 73.87 71.35 71.89
76.97 76.84 77.06 78.09 77.65 78.22 77.62 77.73 77.12 77.29 78.07 78.35 77.27 76.76 76.62 74.11 60.62 61.96 64.39 74.32 76.43 75.34 75.88 75.22 74.29 74.91 73.88 75.81 69.07 68.21 67.89 67.97 69.50 74.27 74.16 74.99 75.33 76.52 76.08 75.97 75.62 74.81 74.14
76.39 76.42 76.53 77.12 76.67 76.99 76.59 76.81 78.45 78.33 78.25 78.17 76.89 76.62 76.17 66.25 59.20 59.56 61.73 72.98 74.97 75.83 76.06 75.67 75.56 75.11 73.30 73.31 75.03 75.53 75.55 72.72 71.36 71.16 76.14 74.53 72.97 73.26 74.96 76.00 75.53 75.25 74.54
74.48 74.92 75.01 73.65 74.76 75.08 74.48 77.83 78.07 77.71 77.22 75.91 74.88 71.15 72.97 66.16 58.26 58.71 63.28 73.17 74.41 74.76 74.75 73.95 70.75 73.44 61.82 61.06 70.42 72.85 74.17 70.01 60.30 59.58 59.60 59.84 60.53 61.70 65.68 72.94 74.33 72.91 72.41
74.22 74.72 75.56 74.94 75.19 73.51 73.01 74.76 73.34 75.30 71.81 71.45 65.25 65.68 60.96 64.75 56.21 56.33 62.15 71.40 72.52 73.79 74.36 70.96 57.51 59.06 56.54 59.22 67.71 72.75 72.72 71.33 65.77 65.54 63.46 63.79 65.14 64.66 63.88 68.07 67.26 67.04 68.20
71.67 73.20 72.44 73.09 73.01 73.04 72.99 73.12 73.07 71.08 69.20 64.73 61.50 60.59 60.43 56.35 58.71 54.88 57.75 68.59 68.95 69.44 67.57 62.71 58.94 53.65 53.13 54.37 58.78 66.60 68.07 70.27 66.29 69.03 67.45 68.38 67.56 65.92 63.00 61.91 62.27 60.57 61.67
71.65 71.55 71.90 71.85 71.22 69.98 69.19 68.25 62.97 60.75 59.44 58.44 58.20 57.69 58.88 56.73 54.74 54.64 55.25 57.51 60.99 62.31 58.90 57.79 53.68 50.97 50.51 51.89 55.63 54.63 56.73 62.56 63.14 61.25 57.36 57.52 56.48 60.05 58.11 57.72 59.18 57.44 56.57
70.52 69.36 67.81 67.17 67.99 68.55 67.20 64.68 62.41 59.92 58.48 57.61 57.27 56.37 56.35 57.63 57.39 53.94 53.76 55.63 56.39 62.12 60.68 54.15 52.76 51.66 52.06 54.97 53.85 55.20 57.14 58.67 56.67 54.60 52.53 52.69 53.62 55.02 57.80 58.03 57.24 57.31 57.78
66.76 65.28 63.39 61.93 63.62 64.61 64.99 64.35 62.50 61.48 60.39 59.92 59.42 58.40 58.11 58.47 59.82 60.78 60.58 59.78 57.09 58.03 57.13 57.21 55.70 54.76 54.64 55.71 56.30 55.55 55.15 55.57 55.34 53.33 53.66 53.51 53.29 53.92 53.39 54.79 58.03 57.17 55.42
61.59 61.21 61.30 60.30 56.66 54.83 54.41 54.34 60.97 55.77 55.61 61.96 61.49 59.45 55.59 55.18 52.83 46.37 46.55 59.09 62.17 58.97 60.49 61.16 58.64 58.16 60.38 60.44 58.77 56.93 54.74 54.52 53.62 52.80 52.38 52.94 52.82 53.85 53.71 55.88 54.97 55.31 54.83
61.73 61.61 59.93 60.49 61.32 59.80 59.14 56.36 45.66 45.83 43.92 42.87 43.27 51.16 48.41 44.76 42.49 42.27 42.02 43.44 48.90 50.15 59.10 60.44 59.41 57.33 56.69 57.41 56.98 57.89 58.90 58.72 58.45 57.31 56.83 57.35 57.39 56.84 54.71 54.78 55.40 54.60 54.24
62.01 62.50 62.81 62.69 62.27 61.77 62.44 62.62 60.50 52.04 45.13 43.52 43.26 44.22 43.85 43.71 42.64 41.55 41.57 42.97 45.85 48.19 58.20 59.49 58.89 57.59 57.02 55.13 54.94 55.52 55.49 56.64 57.87 55.59 55.55 56.18 54.99 53.47 51.34 56.62 53.70 53.84 53.84
62.77 56.10 61.42 60.89 60.88 60.65 60.34 59.95 59.83 59.05 59.14 59.13 44.83 49.08 43.41 41.76 41.74 42.09 43.15 45.20 55.70 53.93 57.43 58.62 57.83 57.32 56.18 56.10 55.93 55.39 54.96 54.79 54.63 53.98 53.57 53.60 53.45 52.46 53.12 53.08 53.09 52.32 52.16
61.66 61.35 61.35 60.82 60.06 58.66 58.83 58.17 58.13 57.78 57.57 57.57 57.16 47.10 45.26 42.51 41.69 41.39 41.22 54.35 57.33 56.97 57.69 56.59 57.61 57.63 57.33 56.60 56.23 55.88 55.27 54.64 53.45 53.51 53.53 52.84 52.61 52.10 51.78 50.92 49.66 44.76 46.30
58.88 56.39 58.29 60.15 59.32 60.38 60.49 59.72 59.88 59.59 59.11 58.16 57.24 57.32 54.39 50.55 54.15 56.26 55.25 55.36 55.03 55.65 57.36 58.07 58.70 58.63 57.05 56.50 55.87 55.91 52.93 50.77 51.46 50.69 50.61 49.45 49.55 50.13 48.21 47.63 47.74 47.42 48.09
58.13 57.38 53.15 59.33 60.26 60.54 61.15 60.72 60.22 59.86 58.34 57.99 58.21 54.71 43.37 55.96 56.46 57.37 57.81 57.37 57.06 56.71 58.24 58.13 58.12 58.31 57.48 56.42 55.43 54.19 52.76 52.23 51.30 50.19 50.07 49.62 48.83 48.41 49.68 49.35 48.96 48.76 48.96
60.09 59.35 59.60 60.01 59.01 58.57 59.14 59.32 58.34 57.63 57.44 57.53 58.13 54.43 45.19 54.92 54.90 56.70 57.36 57.30 57.86 58.70 58.60 58.94 57.90 57.49 57.00 56.23 54.98 54.34 53.37 52.18 51.76 50.89 50.65 50.12 49.97 49.68 49.51 49.73 49.61 49.63 49.24
62.46 61.72 60.58 60.78 60.82 54.19 58.02 57.97 58.04 57.91 57.65 57.65 57.72 57.53 56.12 56.14 55.60 56.73 57.51 57.88 58.55 58.21 58.68 58.47 57.53 56.88 57.11 56.08 55.46 54.68 53.09 52.08 51.92 52.06 50.81 50.60 49.70 49.81 50.45 49.73 49.92 49.13 49.65
61.67 61.15 60.72 60.58 59.61 60.00 59.21 59.24 58.86 53.44 56.80 57.10 57.01 57.27 57.42 57.69 57.50 57.42 57.57 57.84 58.01 57.82 57.50 57.01 56.39 55.60 55.60 54.91 54.98 54.26 53.35 53.77 53.05 51.65 51.29 51.37 51.08 48.46 50.03 51.07 50.92 49.84 49.95
61.59 61.08 59.66 59.75 59.45 58.74 58.73 58.53 58.70 58.91 58.05 57.51 57.50 57.40 57.28 57.55 57.63 57.68 57.61 57.54 58.57 57.07 56.91 56.79 55.94 55.19 54.72 54.05 52.73 50.82 40.57 38.63 48.82 41.80 51.51 50.52 50.14 49.28 49.87 50.19 50.02 49.79 48.62
60.32 59.27 57.03 55.95 55.29 55.42 55.42 55.37 55.81 56.35 56.56 57.57 56.99 58.34 57.68 57.15 56.65 57.04 57.36 57.31 57.27 57.50 57.14 56.59 55.69 54.72 54.19 53.55 52.10 39.19 32.95 36.83 43.58 36.48 47.21 49.99 49.67 49.74 50.13 49.56 48.48 49.04 47.96

GFSGL_sfc_wetblb_144.txt.gz
Wetbulb
75.34 74.93 75.51 75.43 75.68 77.02 77.13 76.13 78.18 79.26 79.71 79.03 77.75 78.16 77.97 78.64 78.87 79.17 78.13 77.10 76.95 77.90 77.00 77.31 76.88 78.05 76.42 75.84 75.39 74.73 73.39 73.42 71.17 73.35 74.29 77.46 77.04 75.26 76.32 76.96 76.07 71.53 66.86
75.05 76.18 75.73 75.88 75.88 75.45 75.77 76.73 77.13 77.78 79.92 79.73 79.04 79.00 78.15 78.56 78.13 77.79 76.38 75.95 77.00 76.42 75.74 76.77 76.78 75.54 76.37 77.37 75.84 75.76 75.18 71.62 72.09 70.57 72.96 72.80 75.62 77.45 76.31 76.08 75.36 72.21 67.42
75.90 75.72 75.48 75.75 76.00 76.31 76.16 76.68 77.83 78.14 78.50 78.97 79.28 78.01 77.73 77.89 77.73 77.37 77.18 76.38 76.49 76.26 76.39 75.37 75.02 75.99 75.10 75.16 75.51 75.57 74.46 74.57 72.50 70.23 71.08 73.37 75.38 73.77 74.99 76.48 72.53 70.67 66.56
75.14 75.59 75.32 75.76 76.67 76.12 77.02 77.06 77.29 78.59 77.80 78.35 78.25 78.09 78.02 77.78 77.37 76.90 76.80 76.59 76.38 75.93 75.80 76.02 75.32 75.42 75.29 73.18 75.02 75.25 74.35 74.56 73.29 72.59 72.19 71.60 73.21 73.88 72.86 72.08 70.59 71.70 64.36
75.67 76.18 76.27 76.67 77.24 77.14 77.47 77.68 77.94 77.90 77.72 78.10 77.64 77.64 77.56 76.85 75.57 73.11 76.79 76.88 76.38 75.66 76.20 76.55 76.32 73.13 72.54 72.88 75.12 75.38 75.35 73.89 73.23 72.42 70.67 71.49 71.99 70.75 70.30 72.22 71.10 71.68 71.71
76.11 76.01 77.48 76.94 77.07 77.02 76.93 77.04 77.34 77.31 77.61 77.71 76.48 76.75 76.45 76.28 66.72 67.87 70.51 76.29 76.07 75.31 75.13 75.97 75.68 74.78 73.51 70.80 71.23 70.57 70.66 73.51 72.22 72.00 71.06 70.03 71.43 70.82 71.57 71.77 71.45 70.78 68.33
76.52 76.74 77.14 77.45 76.84 77.41 77.69 77.77 77.45 77.20 77.16 77.19 77.44 76.71 76.20 64.32 61.07 62.81 65.71 73.24 75.63 75.58 75.21 75.05 75.20 73.91 74.06 74.55 69.33 68.54 68.63 68.38 69.73 71.00 71.79 71.71 72.58 73.67 72.34 71.01 71.19 70.80 70.32
75.94 76.18 76.68 76.91 77.11 77.30 77.19 77.04 75.56 77.32 77.36 76.84 76.81 75.86 72.74 64.04 61.61 61.82 63.20 69.52 73.91 74.58 75.39 75.23 75.53 75.33 65.06 67.93 71.70 72.48 71.84 70.31 67.53 65.98 68.77 68.38 66.79 66.69 69.02 71.48 72.35 72.42 72.18
74.79 75.87 76.26 76.84 76.41 75.60 76.68 77.05 77.84 76.91 75.62 75.28 73.19 72.84 67.58 64.31 61.09 60.15 64.17 72.55 75.09 74.34 72.89 65.21 68.71 68.50 59.07 59.84 68.94 71.17 72.43 65.94 60.84 60.05 60.39 60.68 61.61 62.57 64.55 68.20 66.03 67.60 66.02
74.56 75.11 75.45 74.86 75.20 74.46 74.48 74.25 74.92 72.80 69.97 68.61 67.73 66.79 64.12 65.40 56.40 57.36 61.71 68.80 70.15 72.11 68.29 62.24 58.15 56.72 56.49 58.07 66.55 69.09 69.19 68.54 65.70 63.34 63.84 63.59 64.16 60.63 60.48 58.94 59.24 62.35 63.80
71.43 72.92 73.36 71.49 74.01 73.93 73.37 72.61 72.96 70.21 66.13 65.16 63.49 63.57 61.38 61.29 59.07 55.59 58.25 67.19 67.51 66.54 63.82 59.44 55.68 54.35 54.55 54.49 57.31 60.12 61.50 63.45 66.35 64.86 61.95 57.87 59.62 57.30 56.55 56.97 56.07 56.15 57.06
69.31 69.62 69.60 70.04 69.56 69.34 68.34 66.36 64.68 62.16 59.73 58.89 58.69 58.61 58.23 57.66 55.39 55.05 55.21 56.58 61.24 60.92 57.76 55.59 53.40 51.07 50.84 52.28 55.75 54.95 56.51 59.69 59.07 56.82 54.58 53.12 53.12 54.17 57.00 56.22 56.38 55.33 55.75
68.84 67.19 67.69 68.62 68.36 68.38 65.97 63.99 62.66 62.37 60.50 59.39 57.87 56.68 56.68 57.95 57.32 54.29 54.11 55.80 57.84 59.24 57.08 54.29 53.69 52.40 52.19 55.57 53.71 55.25 58.54 60.07 57.55 54.91 53.99 53.32 53.52 54.04 55.85 57.00 56.93 55.91 56.63
64.78 64.49 65.19 65.97 65.14 65.40 65.23 64.06 62.75 61.99 60.47 60.00 58.55 57.72 58.31 59.80 61.20 60.05 58.22 58.02 56.77 57.35 57.32 58.02 55.78 55.68 54.58 56.45 58.32 57.50 57.22 57.44 56.88 54.99 53.87 53.44 52.58 53.67 52.78 53.44 55.36 56.23 54.08
64.55 63.59 61.91 60.83 60.09 57.11 54.84 53.80 60.10 54.32 54.38 61.58 62.00 60.66 59.07 56.23 51.00 45.43 48.22 60.81 62.22 59.69 60.48 61.03 60.23 59.06 59.42 59.38 58.44 58.73 56.29 55.35 55.24 55.12 54.53 54.37 53.44 53.46 52.07 53.21 52.35 54.21 54.36
61.26 60.58 60.99 60.78 59.14 59.31 58.12 54.79 45.97 45.65 43.95 43.21 44.30 52.57 47.69 45.79 43.24 43.11 42.58 46.90 50.11 50.63 59.86 61.89 59.26 58.58 58.19 58.66 58.45 58.31 58.08 57.68 56.60 54.95 54.13 54.44 55.08 54.94 55.47 55.63 54.68 54.35 53.92
63.65 62.80 63.01 61.82 60.85 59.86 60.78 59.43 55.89 49.06 45.79 44.53 43.81 43.70 44.74 44.08 43.54 42.39 42.10 45.72 47.72 49.97 57.58 60.88 60.17 59.09 58.83 57.84 57.81 56.46 56.11 56.27 57.74 54.90 55.00 54.30 53.66 53.00 51.35 52.50 52.90 52.92 52.57
65.19 59.50 64.98 64.76 64.59 63.91 63.96 62.70 60.50 59.02 57.77 54.26 46.63 48.67 43.18 42.81 44.44 43.36 43.56 46.24 55.88 53.14 57.24 59.29 58.97 58.13 57.62 57.70 57.33 56.26 55.78 55.31 54.73 53.88 53.55 53.40 53.28 53.58 52.57 52.69 49.94 48.43 49.08
62.63 62.43 62.68 61.57 62.50 59.35 61.12 60.63 58.80 60.48 60.37 59.46 56.34 48.43 45.77 43.42 42.97 42.40 41.90 52.50 56.20 57.04 58.03 58.13 58.63 58.00 57.22 57.56 56.67 55.14 54.71 51.72 52.78 52.40 51.96 50.64 49.77 49.83 49.88 48.67 45.26 45.65 46.21
59.87 57.43 60.33 60.89 60.25 62.25 60.83 59.48 60.06 60.89 60.72 58.33 57.28 55.41 51.08 46.79 49.10 50.96 50.37 53.99 56.18 56.37 57.83 59.25 59.93 60.18 58.57 58.22 57.41 57.01 54.56 52.57 53.45 52.70 51.27 50.81 50.32 49.86 48.41 47.56 47.93 47.32 47.55
58.48 58.94 55.52 60.70 60.95 61.01 62.08 61.89 61.57 61.24 59.89 59.14 60.21 55.23 50.76 57.60 56.51 56.32 58.68 59.75 59.39 59.51 60.44 60.00 59.74 59.58 59.37 58.33 57.93 55.41 53.70 53.88 51.70 50.65 49.73 49.41 48.97 48.58 48.51 48.01 47.53 47.88 48.09
59.12 58.00 58.86 58.66 59.26 60.10 59.69 59.92 59.44 58.29 58.15 58.38 59.26 53.28 46.47 58.13 57.94 57.07 57.39 59.40 59.93 60.06 59.51 61.30 59.58 58.73 58.50 57.72 56.41 55.79 54.78 53.53 53.21 52.01 51.62 50.73 50.55 50.17 49.26 48.80 49.00 48.92 48.51
60.33 59.48 59.67 60.46 59.80 56.77 59.53 58.93 58.45 59.65 58.82 59.87 58.45 56.18 54.84 56.70 58.06 57.59 57.64 59.87 59.97 59.31 59.43 59.71 59.71 59.18 58.95 58.08 57.37 56.56 54.55 53.50 53.13 52.73 51.79 50.91 50.20 49.82 50.12 49.41 49.35 48.82 47.60
60.51 60.07 60.06 61.01 61.01 59.31 60.23 59.68 59.73 54.77 57.44 58.22 58.45 58.06 57.69 58.05 58.40 59.42 59.54 60.24 59.60 58.24 58.66 58.42 58.29 57.63 57.81 56.78 56.68 55.53 55.02 53.97 52.59 52.11 52.46 51.23 51.02 48.04 48.89 49.91 49.92 49.11 48.47
60.61 60.15 59.82 59.77 59.38 59.65 59.90 59.04 58.54 58.40 57.82 58.55 58.61 58.90 58.49 58.09 58.11 58.00 56.62 57.69 59.79 59.65 58.52 58.68 58.09 57.76 56.85 56.24 50.67 47.74 38.07 38.65 47.03 44.00 51.86 51.91 51.05 50.50 49.77 49.14 49.55 48.46 47.79
59.76 58.90 57.20 55.71 54.74 55.33 55.06 54.79 54.68 54.96 54.51 54.60 55.16 56.19 57.48 56.35 58.35 58.20 58.80 59.04 54.87 55.00 59.45 56.12 54.61 56.72 56.19 54.70 48.98 37.77 33.24 39.57 42.96 37.52 48.37 51.32 50.21 49.70 49.81 50.19 49.61 48.51 48.29

GFSGL_sfc_wetblb_147.txt.gz
Wetbulb
71.36 71.66 70.85 72.12 72.36 72.02 71.83 72.36 71.87 72.75 71.86 70.37 71.55 72.66 73.25 73.48 73.60 73.09 72.53 72.67 72.25 71.78 71.65 71.94 71.69 72.14 71.99 72.16 71.22 71.44 70.45 70.19 66.57 68.00 70.00 72.46 72.95 70.97 72.72 70.93 69.27 65.91 65.17
72.19 71.72 70.91 71.62 71.96 71.76 72.45 72.93 72.21 72.78 73.20 73.10 73.22 72.96 72.83 73.08 73.15 72.61 71.87 72.15 72.45 72.36 72.25 71.90 71.89 73.94 71.64 71.44 72.07 70.57 69.62 69.62 68.36 66.91 67.26 68.44 69.13 72.61 72.39 72.17 71.84 67.97 64.14
72.40 72.18 71.89 72.04 72.14 71.31 71.97 71.94 73.22 72.39 73.29 73.59 73.45 72.96 73.31 73.36 73.11 72.92 73.05 72.37 72.15 72.59 72.47 71.64 71.46 72.59 72.86 70.93 69.66 70.84 70.70 71.65 69.32 67.69 66.55 70.23 70.90 70.26 70.65 71.48 68.77 65.28 64.21
72.46 72.46 71.82 72.19 72.62 72.86 73.22 72.93 73.04 73.94 73.75 73.83 73.70 73.63 74.20 74.15 73.93 73.37 73.29 72.58 71.88 72.38 72.75 72.58 72.52 71.35 72.78 70.85 71.05 70.21 70.67 69.98 69.09 68.97 68.36 68.08 69.04 70.33 70.41 68.57 67.00 65.36 60.27
71.84 71.97 71.99 72.57 73.18 72.70 72.91 72.96 73.06 73.33 73.29 73.42 73.68 74.14 74.03 74.31 73.82 69.13 70.79 72.54 72.13 72.38 72.44 73.07 71.78 71.88 71.10 69.82 70.44 70.19 70.36 69.35 69.04 68.03 67.07 67.38 67.87 67.11 66.79 70.29 69.72 69.86 65.80
71.72 72.14 72.64 72.76 72.75 72.33 72.82 72.73 73.05 73.10 73.47 73.90 73.36 73.06 73.03 73.58 66.45 67.16 68.35 71.48 72.26 71.37 71.06 71.58 72.36 72.31 71.60 70.60 69.17 69.18 68.57 68.09 67.60 67.63 67.58 66.51 66.69 68.19 68.53 69.05 68.17 67.54 66.99
71.97 72.60 72.98 72.78 72.73 72.86 72.50 72.11 71.93 72.06 73.38 72.98 73.03 72.74 71.66 62.99 61.62 62.99 65.59 68.99 71.31 71.19 71.00 72.09 72.27 72.64 69.43 70.95 68.03 67.90 68.21 68.33 68.16 68.05 68.01 67.74 66.61 65.02 67.11 68.46 68.81 68.37 66.97
71.91 71.44 72.33 73.13 72.59 73.00 73.12 72.47 71.91 72.69 72.39 71.34 71.40 71.58 65.62 62.65 63.31 62.70 63.92 66.48 68.70 70.70 68.98 68.17 67.56 62.92 60.81 62.78 67.56 69.51 69.56 66.08 65.03 66.60 65.01 63.06 61.97 62.30 64.06 66.15 66.24 67.92 65.42
71.34 71.93 72.65 72.99 71.94 70.60 68.90 70.53 71.42 71.89 70.52 68.75 69.00 67.49 64.75 63.39 61.48 61.24 64.28 68.50 70.01 63.84 60.41 60.64 61.32 58.71 58.24 59.34 65.57 67.07 67.94 61.22 60.38 60.41 60.58 59.83 59.68 59.20 59.55 61.01 60.27 62.58 63.76
70.07 71.14 71.29 70.31 69.54 70.80 69.90 70.13 69.54 68.23 66.99 65.75 64.46 64.78 62.46 60.94 57.50 58.79 61.90 68.09 67.26 62.78 62.04 59.05 57.54 56.71 56.81 58.11 63.59 63.81 65.31 63.80 61.07 61.29 61.53 58.18 57.37 57.05 57.82 55.44 56.28 59.31 59.69
69.11 70.12 70.52 70.69 70.31 69.07 67.89 69.02 67.15 65.23 64.37 62.45 60.96 59.71 58.89 58.33 57.10 55.63 58.25 64.08 65.38 62.56 59.76 57.10 54.74 54.10 53.38 54.25 57.23 60.09 61.00 63.02 62.27 58.33 56.85 56.20 56.30 55.50 55.10 54.52 54.12 54.84 55.97
68.37 68.62 67.92 68.01 68.03 66.70 65.09 63.96 62.72 61.11 59.69 58.87 58.31 57.64 57.66 57.56 55.61 54.93 55.26 57.22 60.86 59.58 56.06 54.55 53.30 51.47 50.99 52.28 55.60 55.42 56.38 58.78 57.60 56.34 55.38 53.44 53.41 54.83 56.09 55.08 54.83 55.06 54.85
67.08 67.21 66.58 66.25 65.48 64.72 63.51 62.37 61.01 60.34 59.07 58.15 57.64 57.12 57.36 57.89 57.38 54.38 54.14 56.24 56.99 57.12 56.68 55.14 53.79 53.09 52.25 54.10 53.99 55.68 57.56 56.66 55.83 56.35 55.03 53.75 54.00 54.12 53.66 54.84 55.50 55.24 54.75
65.09 65.14 64.96 64.10 63.76 63.20 63.05 61.91 60.94 59.62 58.83 57.80 57.10 57.34 57.91 59.11 58.91 58.44 57.34 56.77 56.36 55.92 56.62 55.52 54.89 54.59 55.07 54.83 55.62 55.03 54.20 54.46 54.30 53.30 52.49 51.70 51.76 51.93 50.07 50.39 50.73 53.29 52.09
62.14 61.42 60.84 59.24 57.27 53.62 49.28 49.86 55.08 48.12 52.92 59.05 58.61 57.64 56.50 53.88 47.80 45.49 49.23 56.30 56.84 56.94 56.06 56.04 56.32 55.90 56.28 56.23 55.12 55.00 53.34 53.05 52.03 51.32 50.99 50.66 48.71 48.72 48.36 48.93 48.02 48.82 48.82
60.51 60.05 59.07 57.33 56.78 55.97 53.50 50.32 45.85 45.06 44.50 43.69 47.01 50.76 43.77 45.36 43.58 42.53 45.06 48.00 48.71 49.65 55.84 56.56 54.74 54.51 53.92 54.14 53.04 54.02 54.00 55.02 52.72 52.05 51.46 51.23 50.56 49.68 50.09 49.98 48.69 48.55 48.02
60.61 60.27 59.71 59.39 59.61 57.75 56.72 55.62 52.62 48.33 46.93 44.46 42.87 43.81 44.49 42.98 42.94 42.18 43.26 46.27 48.25 48.72 52.19 54.14 54.41 53.65 53.43 52.49 51.90 51.76 50.77 49.74 51.49 49.68 48.62 47.60 48.08 47.55 46.08 48.17 47.69 48.38 48.27
62.06 58.43 60.91 60.18 59.55 59.13 58.43 57.17 54.95 52.18 49.35 47.77 47.25 44.90 43.04 44.03 43.69 43.49 43.15 45.16 51.26 49.76 49.61 52.63 53.13 53.34 52.28 51.97 50.66 50.08 49.93 48.39 47.78 47.45 47.66 47.88 47.71 47.50 47.57 44.73 43.60 43.32 44.41
60.40 59.07 58.64 58.06 57.98 57.83 58.84 58.04 57.15 56.90 54.97 52.24 49.28 47.31 43.07 42.37 42.30 40.80 40.84 48.21 51.13 50.07 51.97 52.24 52.20 52.10 52.04 51.51 49.68 49.07 46.38 46.11 47.56 46.87 45.24 44.30 43.99 44.67 43.60 42.90 42.44 43.34 43.72
53.50 56.07 56.22 53.65 53.07 52.86 53.05 52.89 52.31 54.31 55.58 54.22 52.08 51.38 48.01 44.19 42.75 43.33 42.95 45.25 47.54 49.16 49.36 52.55 52.30 53.71 52.72 51.42 49.88 48.85 46.77 45.48 45.67 44.66 43.80 43.15 42.21 42.35 41.54 41.21 41.35 40.97 41.48
53.12 53.10 54.28 54.71 54.48 53.53 53.92 53.73 53.19 53.17 52.07 52.31 52.55 50.37 46.33 45.39 48.09 50.37 48.47 47.78 49.86 51.34 52.39 52.65 52.60 52.66 51.60 50.82 49.82 48.27 46.73 46.83 45.21 43.35 42.99 42.26 41.95 41.60 42.27 41.81 41.42 42.02 41.58
52.87 51.68 52.13 53.11 52.76 52.59 52.08 51.93 51.93 51.79 51.72 51.89 51.07 48.29 44.88 48.71 49.88 49.42 49.01 52.27 52.66 51.88 53.50 53.28 51.95 51.44 51.61 50.97 50.11 49.83 48.63 47.27 45.77 45.00 44.09 43.70 43.33 42.53 42.19 41.66 41.86 41.80 41.77
56.19 54.00 54.17 54.29 53.51 52.52 51.17 52.13 51.71 51.69 51.74 52.09 51.63 48.61 47.63 49.40 50.24 50.44 50.06 50.48 52.87 51.96 52.57 53.65 52.41 52.10 51.64 50.49 50.41 48.95 46.53 45.60 45.82 45.01 43.84 43.03 42.65 42.31 43.06 42.41 42.62 41.46 40.26
56.09 56.66 54.90 56.57 54.91 53.63 53.95 53.50 53.45 52.78 52.79 53.25 52.87 51.50 50.13 50.32 51.40 52.52 51.71 52.30 53.01 53.99 54.07 53.17 52.29 51.00 50.18 49.01 47.55 46.23 46.74 45.32 45.10 44.88 44.66 44.23 43.22 41.44 41.52 42.20 43.22 43.27 41.24
55.43 54.81 55.11 55.91 53.73 51.61 52.01 49.99 49.40 49.22 50.62 51.31 51.19 51.10 51.55 52.24 51.93 51.92 50.88 51.46 54.39 54.03 52.04 52.63 51.49 52.10 49.14 45.04 43.43 41.51 37.57 38.98 43.99 42.98 45.39 45.01 44.37 43.75 43.17 43.30 43.69 43.20 44.39
54.14 51.90 49.80 50.47 50.45 49.06 48.68 48.23 48.30 47.79 47.81 48.74 49.09 49.22 49.23 49.14 49.62 51.65 52.66 52.95 49.88 51.44 52.72 51.66 51.04 51.24 47.91 45.97 43.27 37.44 33.05 38.07 39.06 36.76 43.11 43.79 43.17 43.07 42.84 43.40 43.37 42.76 42.78